<?xml version="1.0" encoding="UTF-8" standalone="no" ?>
<gpx xmlns="http://www.topografix.com/GPX/1/1" xmlns:xsi="http://www.w3.org/2001/XMLSchema-instance" xsi:schemaLocation="http://www.topografix.com/GPX/1/1 http://www.topografix.com/GPX/1/1/gpx.xsd" version="1.1" creator="VisuGPX - https://www.visugpx.com">
  <metadata>
    <name>Grand tour du loup</name>
    <desc><![CDATA[Grand tour de la vallée du loup en VTT]]></desc>
  </metadata>
  <trk>
    <name><![CDATA[Track 001]]></name>
    <trkseg>
      <trkpt lat="43.64118" lon="7.0083">
        <ele>210.7</ele>
        <time>2009-03-11T07:19:57Z</time>
      </trkpt>
      <trkpt lat="43.64112" lon="7.00874">
        <ele>209.7</ele>
        <time>2009-03-11T07:24:35Z</time>
      </trkpt>
      <trkpt lat="43.64105" lon="7.00909">
        <ele>208.3</ele>
        <time>2009-03-11T07:24:52Z</time>
      </trkpt>
      <trkpt lat="43.6408" lon="7.00901">
        <ele>203.9</ele>
        <time>2009-03-11T07:25:02Z</time>
      </trkpt>
      <trkpt lat="43.64066" lon="7.00931">
        <ele>202</ele>
        <time>2009-03-11T07:25:12Z</time>
      </trkpt>
      <trkpt lat="43.64047" lon="7.00957">
        <ele>195.3</ele>
        <time>2009-03-11T07:25:38Z</time>
      </trkpt>
      <trkpt lat="43.6403" lon="7.00989">
        <ele>193.8</ele>
        <time>2009-03-11T07:25:44Z</time>
      </trkpt>
      <trkpt lat="43.64008" lon="7.01012">
        <ele>192.9</ele>
        <time>2009-03-11T07:25:50Z</time>
      </trkpt>
      <trkpt lat="43.63986" lon="7.01039">
        <ele>190.5</ele>
        <time>2009-03-11T07:25:56Z</time>
      </trkpt>
      <trkpt lat="43.63966" lon="7.01069">
        <ele>189</ele>
        <time>2009-03-11T07:26:02Z</time>
      </trkpt>
      <trkpt lat="43.63947" lon="7.01097">
        <ele>187.6</ele>
        <time>2009-03-11T07:26:08Z</time>
      </trkpt>
      <trkpt lat="43.63927" lon="7.01127">
        <ele>186.2</ele>
        <time>2009-03-11T07:26:15Z</time>
      </trkpt>
      <trkpt lat="43.63909" lon="7.01155">
        <ele>186.6</ele>
        <time>2009-03-11T07:26:22Z</time>
      </trkpt>
      <trkpt lat="43.63889" lon="7.01185">
        <ele>187.1</ele>
        <time>2009-03-11T07:26:30Z</time>
      </trkpt>
      <trkpt lat="43.63872" lon="7.01215">
        <ele>189</ele>
        <time>2009-03-11T07:26:40Z</time>
      </trkpt>
      <trkpt lat="43.63865" lon="7.01251">
        <ele>191.4</ele>
        <time>2009-03-11T07:26:50Z</time>
      </trkpt>
      <trkpt lat="43.63875" lon="7.01289">
        <ele>192.9</ele>
        <time>2009-03-11T07:27:02Z</time>
      </trkpt>
      <trkpt lat="43.6389" lon="7.01324">
        <ele>194.8</ele>
        <time>2009-03-11T07:27:15Z</time>
      </trkpt>
      <trkpt lat="43.63898" lon="7.01361">
        <ele>200.6</ele>
        <time>2009-03-11T07:27:28Z</time>
      </trkpt>
      <trkpt lat="43.63904" lon="7.01401">
        <ele>201.1</ele>
        <time>2009-03-11T07:27:40Z</time>
      </trkpt>
      <trkpt lat="43.6392" lon="7.01436">
        <ele>203</ele>
        <time>2009-03-11T07:27:51Z</time>
      </trkpt>
      <trkpt lat="43.63937" lon="7.01471">
        <ele>203.5</ele>
        <time>2009-03-11T07:28:01Z</time>
      </trkpt>
      <trkpt lat="43.63951" lon="7.01503">
        <ele>203.9</ele>
        <time>2009-03-11T07:28:10Z</time>
      </trkpt>
      <trkpt lat="43.63966" lon="7.01534">
        <ele>205.9</ele>
        <time>2009-03-11T07:28:19Z</time>
      </trkpt>
      <trkpt lat="43.63976" lon="7.01572">
        <ele>205.4</ele>
        <time>2009-03-11T07:28:28Z</time>
      </trkpt>
      <trkpt lat="43.63985" lon="7.01609">
        <ele>207.8</ele>
        <time>2009-03-11T07:28:38Z</time>
      </trkpt>
      <trkpt lat="43.63996" lon="7.01649">
        <ele>211.1</ele>
        <time>2009-03-11T07:28:49Z</time>
      </trkpt>
      <trkpt lat="43.64006" lon="7.01688">
        <ele>213.1</ele>
        <time>2009-03-11T07:29:01Z</time>
      </trkpt>
      <trkpt lat="43.64017" lon="7.01726">
        <ele>212.6</ele>
        <time>2009-03-11T07:29:13Z</time>
      </trkpt>
      <trkpt lat="43.64033" lon="7.01759">
        <ele>214</ele>
        <time>2009-03-11T07:29:25Z</time>
      </trkpt>
      <trkpt lat="43.64052" lon="7.01787">
        <ele>215</ele>
        <time>2009-03-11T07:29:36Z</time>
      </trkpt>
      <trkpt lat="43.64063" lon="7.01822">
        <ele>215.5</ele>
        <time>2009-03-11T07:29:44Z</time>
      </trkpt>
      <trkpt lat="43.6407" lon="7.01861">
        <ele>214</ele>
        <time>2009-03-11T07:29:50Z</time>
      </trkpt>
      <trkpt lat="43.64077" lon="7.01902">
        <ele>215</ele>
        <time>2009-03-11T07:29:57Z</time>
      </trkpt>
      <trkpt lat="43.64093" lon="7.01935">
        <ele>216.4</ele>
        <time>2009-03-11T07:30:06Z</time>
      </trkpt>
      <trkpt lat="43.64112" lon="7.01964">
        <ele>218.4</ele>
        <time>2009-03-11T07:30:14Z</time>
      </trkpt>
      <trkpt lat="43.64138" lon="7.01978">
        <ele>219.3</ele>
        <time>2009-03-11T07:30:22Z</time>
      </trkpt>
      <trkpt lat="43.64168" lon="7.01976">
        <ele>223.2</ele>
        <time>2009-03-11T07:30:30Z</time>
      </trkpt>
      <trkpt lat="43.64195" lon="7.01977">
        <ele>222.2</ele>
        <time>2009-03-11T07:30:38Z</time>
      </trkpt>
      <trkpt lat="43.64223" lon="7.01986">
        <ele>221.2</ele>
        <time>2009-03-11T07:30:45Z</time>
      </trkpt>
      <trkpt lat="43.6425" lon="7.01997">
        <ele>218.8</ele>
        <time>2009-03-11T07:30:50Z</time>
      </trkpt>
      <trkpt lat="43.6428" lon="7.02006">
        <ele>220.3</ele>
        <time>2009-03-11T07:30:55Z</time>
      </trkpt>
      <trkpt lat="43.64313" lon="7.02011">
        <ele>218.8</ele>
        <time>2009-03-11T07:31:00Z</time>
      </trkpt>
      <trkpt lat="43.64346" lon="7.02013">
        <ele>216.9</ele>
        <time>2009-03-11T07:31:05Z</time>
      </trkpt>
      <trkpt lat="43.64379" lon="7.02015">
        <ele>216.9</ele>
        <time>2009-03-11T07:31:10Z</time>
      </trkpt>
      <trkpt lat="43.64406" lon="7.02022">
        <ele>215</ele>
        <time>2009-03-11T07:31:16Z</time>
      </trkpt>
      <trkpt lat="43.64396" lon="7.02057">
        <ele>212.1</ele>
        <time>2009-03-11T07:31:24Z</time>
      </trkpt>
      <trkpt lat="43.64381" lon="7.02097">
        <ele>209.2</ele>
        <time>2009-03-11T07:31:29Z</time>
      </trkpt>
      <trkpt lat="43.64368" lon="7.02141">
        <ele>206.3</ele>
        <time>2009-03-11T07:31:33Z</time>
      </trkpt>
      <trkpt lat="43.64356" lon="7.02179">
        <ele>204.4</ele>
        <time>2009-03-11T07:31:36Z</time>
      </trkpt>
      <trkpt lat="43.64343" lon="7.02218">
        <ele>202</ele>
        <time>2009-03-11T07:31:39Z</time>
      </trkpt>
      <trkpt lat="43.64332" lon="7.02262">
        <ele>200.1</ele>
        <time>2009-03-11T07:31:42Z</time>
      </trkpt>
      <trkpt lat="43.64324" lon="7.02306">
        <ele>198.6</ele>
        <time>2009-03-11T07:31:45Z</time>
      </trkpt>
      <trkpt lat="43.64319" lon="7.02346">
        <ele>197.2</ele>
        <time>2009-03-11T07:31:48Z</time>
      </trkpt>
      <trkpt lat="43.64314" lon="7.02383">
        <ele>195.3</ele>
        <time>2009-03-11T07:31:51Z</time>
      </trkpt>
      <trkpt lat="43.64303" lon="7.02427">
        <ele>193.8</ele>
        <time>2009-03-11T07:31:55Z</time>
      </trkpt>
      <trkpt lat="43.64289" lon="7.02459">
        <ele>196.7</ele>
        <time>2009-03-11T07:32:42Z</time>
      </trkpt>
      <trkpt lat="43.64276" lon="7.02503">
        <ele>197.7</ele>
        <time>2009-03-11T07:32:49Z</time>
      </trkpt>
      <trkpt lat="43.6426" lon="7.02543">
        <ele>198.2</ele>
        <time>2009-03-11T07:32:54Z</time>
      </trkpt>
      <trkpt lat="43.64244" lon="7.02577">
        <ele>196.7</ele>
        <time>2009-03-11T07:32:58Z</time>
      </trkpt>
      <trkpt lat="43.64228" lon="7.02619">
        <ele>194.8</ele>
        <time>2009-03-11T07:33:02Z</time>
      </trkpt>
      <trkpt lat="43.64221" lon="7.02656">
        <ele>194.3</ele>
        <time>2009-03-11T07:33:05Z</time>
      </trkpt>
      <trkpt lat="43.64216" lon="7.02696">
        <ele>192.4</ele>
        <time>2009-03-11T07:33:08Z</time>
      </trkpt>
      <trkpt lat="43.64212" lon="7.02739">
        <ele>190.5</ele>
        <time>2009-03-11T07:33:11Z</time>
      </trkpt>
      <trkpt lat="43.64209" lon="7.0278">
        <ele>189</ele>
        <time>2009-03-11T07:33:14Z</time>
      </trkpt>
      <trkpt lat="43.64206" lon="7.02819">
        <ele>187.1</ele>
        <time>2009-03-11T07:33:17Z</time>
      </trkpt>
      <trkpt lat="43.64206" lon="7.02858">
        <ele>187.1</ele>
        <time>2009-03-11T07:33:20Z</time>
      </trkpt>
      <trkpt lat="43.64203" lon="7.02895">
        <ele>186.2</ele>
        <time>2009-03-11T07:33:23Z</time>
      </trkpt>
      <trkpt lat="43.64198" lon="7.02943">
        <ele>183.7</ele>
        <time>2009-03-11T07:33:27Z</time>
      </trkpt>
      <trkpt lat="43.64197" lon="7.02998">
        <ele>182.8</ele>
        <time>2009-03-11T07:33:31Z</time>
      </trkpt>
      <trkpt lat="43.64195" lon="7.03037">
        <ele>181.3</ele>
        <time>2009-03-11T07:33:34Z</time>
      </trkpt>
      <trkpt lat="43.64195" lon="7.03075">
        <ele>182.8</ele>
        <time>2009-03-11T07:33:37Z</time>
      </trkpt>
      <trkpt lat="43.64199" lon="7.03112">
        <ele>182.8</ele>
        <time>2009-03-11T07:33:40Z</time>
      </trkpt>
      <trkpt lat="43.6421" lon="7.03155">
        <ele>182.8</ele>
        <time>2009-03-11T07:33:44Z</time>
      </trkpt>
      <trkpt lat="43.64221" lon="7.03195">
        <ele>181.3</ele>
        <time>2009-03-11T07:33:48Z</time>
      </trkpt>
      <trkpt lat="43.64229" lon="7.03235">
        <ele>183.3</ele>
        <time>2009-03-11T07:33:52Z</time>
      </trkpt>
      <trkpt lat="43.64229" lon="7.03277">
        <ele>181.8</ele>
        <time>2009-03-11T07:33:56Z</time>
      </trkpt>
      <trkpt lat="43.64226" lon="7.03318">
        <ele>181.3</ele>
        <time>2009-03-11T07:34:00Z</time>
      </trkpt>
      <trkpt lat="43.64224" lon="7.03361">
        <ele>180.9</ele>
        <time>2009-03-11T07:34:04Z</time>
      </trkpt>
      <trkpt lat="43.64228" lon="7.03401">
        <ele>180.4</ele>
        <time>2009-03-11T07:34:08Z</time>
      </trkpt>
      <trkpt lat="43.64232" lon="7.03439">
        <ele>180.9</ele>
        <time>2009-03-11T07:34:12Z</time>
      </trkpt>
      <trkpt lat="43.64238" lon="7.03479">
        <ele>182.3</ele>
        <time>2009-03-11T07:34:17Z</time>
      </trkpt>
      <trkpt lat="43.64239" lon="7.03516">
        <ele>183.3</ele>
        <time>2009-03-11T07:34:22Z</time>
      </trkpt>
      <trkpt lat="43.64257" lon="7.03541">
        <ele>186.2</ele>
        <time>2009-03-11T07:34:28Z</time>
      </trkpt>
      <trkpt lat="43.64275" lon="7.03506">
        <ele>186.2</ele>
        <time>2009-03-11T07:34:35Z</time>
      </trkpt>
      <trkpt lat="43.64285" lon="7.03466">
        <ele>189.5</ele>
        <time>2009-03-11T07:34:43Z</time>
      </trkpt>
      <trkpt lat="43.64299" lon="7.03433">
        <ele>192.9</ele>
        <time>2009-03-11T07:34:52Z</time>
      </trkpt>
      <trkpt lat="43.64316" lon="7.03401">
        <ele>194.3</ele>
        <time>2009-03-11T07:35:02Z</time>
      </trkpt>
      <trkpt lat="43.64347" lon="7.03406">
        <ele>200.1</ele>
        <time>2009-03-11T07:35:20Z</time>
      </trkpt>
      <trkpt lat="43.6438" lon="7.03388">
        <ele>203</ele>
        <time>2009-03-11T07:35:35Z</time>
      </trkpt>
      <trkpt lat="43.64394" lon="7.03356">
        <ele>202.5</ele>
        <time>2009-03-11T07:35:45Z</time>
      </trkpt>
      <trkpt lat="43.64411" lon="7.0332">
        <ele>201.5</ele>
        <time>2009-03-11T07:35:55Z</time>
      </trkpt>
      <trkpt lat="43.64433" lon="7.0333">
        <ele>205.4</ele>
        <time>2009-03-11T07:36:08Z</time>
      </trkpt>
      <trkpt lat="43.6446" lon="7.03352">
        <ele>207.8</ele>
        <time>2009-03-11T07:36:21Z</time>
      </trkpt>
      <trkpt lat="43.64485" lon="7.03372">
        <ele>208.3</ele>
        <time>2009-03-11T07:36:33Z</time>
      </trkpt>
      <trkpt lat="43.6451" lon="7.03393">
        <ele>204.4</ele>
        <time>2009-03-11T07:36:41Z</time>
      </trkpt>
      <trkpt lat="43.64537" lon="7.03419">
        <ele>202</ele>
        <time>2009-03-11T07:36:46Z</time>
      </trkpt>
      <trkpt lat="43.64562" lon="7.0344">
        <ele>200.1</ele>
        <time>2009-03-11T07:36:50Z</time>
      </trkpt>
      <trkpt lat="43.6459" lon="7.03464">
        <ele>199.1</ele>
        <time>2009-03-11T07:36:55Z</time>
      </trkpt>
      <trkpt lat="43.64616" lon="7.03487">
        <ele>202</ele>
        <time>2009-03-11T07:37:03Z</time>
      </trkpt>
      <trkpt lat="43.6465" lon="7.03515">
        <ele>206.8</ele>
        <time>2009-03-11T07:37:20Z</time>
      </trkpt>
      <trkpt lat="43.64692" lon="7.03536">
        <ele>212.1</ele>
        <time>2009-03-11T07:37:45Z</time>
      </trkpt>
      <trkpt lat="43.64727" lon="7.03556">
        <ele>221.2</ele>
        <time>2009-03-11T07:38:10Z</time>
      </trkpt>
      <trkpt lat="43.64759" lon="7.03579">
        <ele>226</ele>
        <time>2009-03-11T07:38:33Z</time>
      </trkpt>
      <trkpt lat="43.64798" lon="7.03606">
        <ele>226.5</ele>
        <time>2009-03-11T07:38:54Z</time>
      </trkpt>
      <trkpt lat="43.64836" lon="7.03619">
        <ele>222.2</ele>
        <time>2009-03-11T07:39:08Z</time>
      </trkpt>
      <trkpt lat="43.64863" lon="7.03634">
        <ele>216.9</ele>
        <time>2009-03-11T07:39:17Z</time>
      </trkpt>
      <trkpt lat="43.64891" lon="7.03644">
        <ele>213.1</ele>
        <time>2009-03-11T07:39:24Z</time>
      </trkpt>
      <trkpt lat="43.64921" lon="7.03654">
        <ele>210.2</ele>
        <time>2009-03-11T07:39:30Z</time>
      </trkpt>
      <trkpt lat="43.64952" lon="7.03671">
        <ele>205.4</ele>
        <time>2009-03-11T07:39:35Z</time>
      </trkpt>
      <trkpt lat="43.64988" lon="7.03675">
        <ele>201.5</ele>
        <time>2009-03-11T07:39:40Z</time>
      </trkpt>
      <trkpt lat="43.65018" lon="7.03672">
        <ele>195.8</ele>
        <time>2009-03-11T07:39:47Z</time>
      </trkpt>
      <trkpt lat="43.6505" lon="7.0368">
        <ele>188.6</ele>
        <time>2009-03-11T07:39:56Z</time>
      </trkpt>
      <trkpt lat="43.6508" lon="7.0368">
        <ele>182.8</ele>
        <time>2009-03-11T07:40:04Z</time>
      </trkpt>
      <trkpt lat="43.65091" lon="7.03658">
        <ele>176.1</ele>
        <time>2009-03-11T07:40:53Z</time>
      </trkpt>
      <trkpt lat="43.65085" lon="7.03622">
        <ele>170.8</ele>
        <time>2009-03-11T07:41:00Z</time>
      </trkpt>
      <trkpt lat="43.65081" lon="7.03581">
        <ele>168.4</ele>
        <time>2009-03-11T07:41:05Z</time>
      </trkpt>
      <trkpt lat="43.65077" lon="7.03534">
        <ele>168.8</ele>
        <time>2009-03-11T07:41:11Z</time>
      </trkpt>
      <trkpt lat="43.65082" lon="7.03495">
        <ele>168.8</ele>
        <time>2009-03-11T07:41:18Z</time>
      </trkpt>
      <trkpt lat="43.65085" lon="7.03455">
        <ele>169.8</ele>
        <time>2009-03-11T07:41:25Z</time>
      </trkpt>
      <trkpt lat="43.651" lon="7.0342">
        <ele>167.4</ele>
        <time>2009-03-11T07:41:32Z</time>
      </trkpt>
      <trkpt lat="43.65114" lon="7.0339">
        <ele>168.8</ele>
        <time>2009-03-11T07:41:42Z</time>
      </trkpt>
      <trkpt lat="43.65115" lon="7.03351">
        <ele>172.2</ele>
        <time>2009-03-11T07:41:56Z</time>
      </trkpt>
      <trkpt lat="43.65114" lon="7.03311">
        <ele>176.1</ele>
        <time>2009-03-11T07:42:12Z</time>
      </trkpt>
      <trkpt lat="43.65138" lon="7.03305">
        <ele>179.4</ele>
        <time>2009-03-11T07:42:28Z</time>
      </trkpt>
      <trkpt lat="43.65165" lon="7.03324">
        <ele>182.3</ele>
        <time>2009-03-11T07:42:44Z</time>
      </trkpt>
      <trkpt lat="43.65194" lon="7.03316">
        <ele>183.7</ele>
        <time>2009-03-11T07:42:58Z</time>
      </trkpt>
      <trkpt lat="43.65219" lon="7.03312">
        <ele>184.2</ele>
        <time>2009-03-11T07:43:09Z</time>
      </trkpt>
      <trkpt lat="43.65244" lon="7.03333">
        <ele>184.7</ele>
        <time>2009-03-11T07:43:18Z</time>
      </trkpt>
      <trkpt lat="43.65268" lon="7.03356">
        <ele>183.7</ele>
        <time>2009-03-11T07:43:25Z</time>
      </trkpt>
      <trkpt lat="43.65296" lon="7.03368">
        <ele>181.3</ele>
        <time>2009-03-11T07:43:31Z</time>
      </trkpt>
      <trkpt lat="43.65328" lon="7.03371">
        <ele>180.4</ele>
        <time>2009-03-11T07:43:36Z</time>
      </trkpt>
      <trkpt lat="43.65354" lon="7.03386">
        <ele>177.5</ele>
        <time>2009-03-11T07:43:42Z</time>
      </trkpt>
      <trkpt lat="43.65357" lon="7.03427">
        <ele>174.1</ele>
        <time>2009-03-11T07:43:49Z</time>
      </trkpt>
      <trkpt lat="43.65362" lon="7.0347">
        <ele>171.3</ele>
        <time>2009-03-11T07:43:55Z</time>
      </trkpt>
      <trkpt lat="43.65364" lon="7.0351">
        <ele>169.3</ele>
        <time>2009-03-11T07:44:00Z</time>
      </trkpt>
      <trkpt lat="43.65373" lon="7.03552">
        <ele>169.3</ele>
        <time>2009-03-11T07:44:05Z</time>
      </trkpt>
      <trkpt lat="43.65377" lon="7.03594">
        <ele>169.3</ele>
        <time>2009-03-11T07:44:10Z</time>
      </trkpt>
      <trkpt lat="43.65387" lon="7.03633">
        <ele>167.4</ele>
        <time>2009-03-11T07:44:17Z</time>
      </trkpt>
      <trkpt lat="43.654" lon="7.03676">
        <ele>163.6</ele>
        <time>2009-03-11T07:44:23Z</time>
      </trkpt>
      <trkpt lat="43.6541" lon="7.03716">
        <ele>160.7</ele>
        <time>2009-03-11T07:44:27Z</time>
      </trkpt>
      <trkpt lat="43.65424" lon="7.03757">
        <ele>159.2</ele>
        <time>2009-03-11T07:44:31Z</time>
      </trkpt>
      <trkpt lat="43.6544" lon="7.0379">
        <ele>159.2</ele>
        <time>2009-03-11T07:44:35Z</time>
      </trkpt>
      <trkpt lat="43.65461" lon="7.0381">
        <ele>162.1</ele>
        <time>2009-03-11T07:44:42Z</time>
      </trkpt>
      <trkpt lat="43.65489" lon="7.03821">
        <ele>168.8</ele>
        <time>2009-03-11T07:45:01Z</time>
      </trkpt>
      <trkpt lat="43.65524" lon="7.03819">
        <ele>176.1</ele>
        <time>2009-03-11T07:45:23Z</time>
      </trkpt>
      <trkpt lat="43.65555" lon="7.03811">
        <ele>177</ele>
        <time>2009-03-11T07:45:41Z</time>
      </trkpt>
      <trkpt lat="43.6558" lon="7.03786">
        <ele>178.5</ele>
        <time>2009-03-11T07:45:58Z</time>
      </trkpt>
      <trkpt lat="43.65609" lon="7.03778">
        <ele>180.9</ele>
        <time>2009-03-11T07:46:14Z</time>
      </trkpt>
      <trkpt lat="43.65638" lon="7.03775">
        <ele>183.3</ele>
        <time>2009-03-11T07:46:28Z</time>
      </trkpt>
      <trkpt lat="43.65664" lon="7.03762">
        <ele>186.6</ele>
        <time>2009-03-11T07:46:41Z</time>
      </trkpt>
      <trkpt lat="43.6569" lon="7.03744">
        <ele>186.2</ele>
        <time>2009-03-11T07:46:55Z</time>
      </trkpt>
      <trkpt lat="43.65716" lon="7.03757">
        <ele>188.6</ele>
        <time>2009-03-11T07:47:08Z</time>
      </trkpt>
      <trkpt lat="43.6574" lon="7.03743">
        <ele>189.5</ele>
        <time>2009-03-11T07:47:21Z</time>
      </trkpt>
      <trkpt lat="43.65758" lon="7.03717">
        <ele>192.4</ele>
        <time>2009-03-11T07:47:33Z</time>
      </trkpt>
      <trkpt lat="43.65785" lon="7.03699">
        <ele>192.9</ele>
        <time>2009-03-11T07:47:42Z</time>
      </trkpt>
      <trkpt lat="43.65814" lon="7.03686">
        <ele>191</ele>
        <time>2009-03-11T07:47:50Z</time>
      </trkpt>
      <trkpt lat="43.6584" lon="7.03675">
        <ele>187.1</ele>
        <time>2009-03-11T07:47:58Z</time>
      </trkpt>
      <trkpt lat="43.65851" lon="7.03637">
        <ele>182.8</ele>
        <time>2009-03-11T07:48:05Z</time>
      </trkpt>
      <trkpt lat="43.65866" lon="7.03607">
        <ele>178.5</ele>
        <time>2009-03-11T07:48:13Z</time>
      </trkpt>
      <trkpt lat="43.65896" lon="7.03621">
        <ele>175.1</ele>
        <time>2009-03-11T07:48:21Z</time>
      </trkpt>
      <trkpt lat="43.65925" lon="7.03615">
        <ele>177</ele>
        <time>2009-03-11T07:48:28Z</time>
      </trkpt>
      <trkpt lat="43.65939" lon="7.03579">
        <ele>178.9</ele>
        <time>2009-03-11T07:48:36Z</time>
      </trkpt>
      <trkpt lat="43.65954" lon="7.03544">
        <ele>177.5</ele>
        <time>2009-03-11T07:48:44Z</time>
      </trkpt>
      <trkpt lat="43.65968" lon="7.03508">
        <ele>178.9</ele>
        <time>2009-03-11T07:48:52Z</time>
      </trkpt>
      <trkpt lat="43.65993" lon="7.03486">
        <ele>180.4</ele>
        <time>2009-03-11T07:49:01Z</time>
      </trkpt>
      <trkpt lat="43.66022" lon="7.03484">
        <ele>179.9</ele>
        <time>2009-03-11T07:49:10Z</time>
      </trkpt>
      <trkpt lat="43.66049" lon="7.03474">
        <ele>180.4</ele>
        <time>2009-03-11T07:49:20Z</time>
      </trkpt>
      <trkpt lat="43.66073" lon="7.03441">
        <ele>176.1</ele>
        <time>2009-03-11T07:49:27Z</time>
      </trkpt>
      <trkpt lat="43.66091" lon="7.03405">
        <ele>175.6</ele>
        <time>2009-03-11T07:49:33Z</time>
      </trkpt>
      <trkpt lat="43.66101" lon="7.03367">
        <ele>176.1</ele>
        <time>2009-03-11T07:49:41Z</time>
      </trkpt>
      <trkpt lat="43.66122" lon="7.03336">
        <ele>179.9</ele>
        <time>2009-03-11T07:50:35Z</time>
      </trkpt>
      <trkpt lat="43.66136" lon="7.03371">
        <ele>180.9</ele>
        <time>2009-03-11T07:51:42Z</time>
      </trkpt>
      <trkpt lat="43.66144" lon="7.03413">
        <ele>177.5</ele>
        <time>2009-03-11T07:51:53Z</time>
      </trkpt>
      <trkpt lat="43.66164" lon="7.0344">
        <ele>177</ele>
        <time>2009-03-11T07:52:36Z</time>
      </trkpt>
      <trkpt lat="43.6619" lon="7.03424">
        <ele>177</ele>
        <time>2009-03-11T07:52:49Z</time>
      </trkpt>
      <trkpt lat="43.66221" lon="7.03407">
        <ele>177</ele>
        <time>2009-03-11T07:53:02Z</time>
      </trkpt>
      <trkpt lat="43.66247" lon="7.0339">
        <ele>178</ele>
        <time>2009-03-11T07:53:13Z</time>
      </trkpt>
      <trkpt lat="43.66261" lon="7.0335">
        <ele>179.4</ele>
        <time>2009-03-11T07:53:23Z</time>
      </trkpt>
      <trkpt lat="43.66266" lon="7.03305">
        <ele>177.5</ele>
        <time>2009-03-11T07:53:32Z</time>
      </trkpt>
      <trkpt lat="43.66266" lon="7.03266">
        <ele>179.9</ele>
        <time>2009-03-11T07:53:43Z</time>
      </trkpt>
      <trkpt lat="43.66264" lon="7.03229">
        <ele>183.7</ele>
        <time>2009-03-11T07:53:56Z</time>
      </trkpt>
      <trkpt lat="43.6627" lon="7.0319">
        <ele>182.8</ele>
        <time>2009-03-11T07:54:08Z</time>
      </trkpt>
      <trkpt lat="43.66279" lon="7.03154">
        <ele>184.7</ele>
        <time>2009-03-11T07:54:20Z</time>
      </trkpt>
      <trkpt lat="43.663" lon="7.03128">
        <ele>186.2</ele>
        <time>2009-03-11T07:54:36Z</time>
      </trkpt>
      <trkpt lat="43.66316" lon="7.0316">
        <ele>185.7</ele>
        <time>2009-03-11T07:54:50Z</time>
      </trkpt>
      <trkpt lat="43.66339" lon="7.03181">
        <ele>185.2</ele>
        <time>2009-03-11T07:55:00Z</time>
      </trkpt>
      <trkpt lat="43.66369" lon="7.03187">
        <ele>184.2</ele>
        <time>2009-03-11T07:55:10Z</time>
      </trkpt>
      <trkpt lat="43.66404" lon="7.03181">
        <ele>181.3</ele>
        <time>2009-03-11T07:55:22Z</time>
      </trkpt>
      <trkpt lat="43.66438" lon="7.03181">
        <ele>183.3</ele>
        <time>2009-03-11T07:55:33Z</time>
      </trkpt>
      <trkpt lat="43.66471" lon="7.03176">
        <ele>191.9</ele>
        <time>2009-03-11T07:55:46Z</time>
      </trkpt>
      <trkpt lat="43.66502" lon="7.03167">
        <ele>191.4</ele>
        <time>2009-03-11T07:56:00Z</time>
      </trkpt>
      <trkpt lat="43.66531" lon="7.03161">
        <ele>197.7</ele>
        <time>2009-03-11T07:56:16Z</time>
      </trkpt>
      <trkpt lat="43.66554" lon="7.03161">
        <ele>201.1</ele>
        <time>2009-03-11T07:56:46Z</time>
      </trkpt>
      <trkpt lat="43.66582" lon="7.03178">
        <ele>202.5</ele>
        <time>2009-03-11T07:57:02Z</time>
      </trkpt>
      <trkpt lat="43.66597" lon="7.03211">
        <ele>202</ele>
        <time>2009-03-11T07:57:13Z</time>
      </trkpt>
      <trkpt lat="43.66619" lon="7.03243">
        <ele>204.9</ele>
        <time>2009-03-11T07:57:42Z</time>
      </trkpt>
      <trkpt lat="43.66647" lon="7.03247">
        <ele>204.9</ele>
        <time>2009-03-11T07:57:55Z</time>
      </trkpt>
      <trkpt lat="43.66673" lon="7.03236">
        <ele>203.9</ele>
        <time>2009-03-11T07:58:07Z</time>
      </trkpt>
      <trkpt lat="43.66698" lon="7.03223">
        <ele>207.8</ele>
        <time>2009-03-11T07:58:21Z</time>
      </trkpt>
      <trkpt lat="43.66725" lon="7.03215">
        <ele>208.7</ele>
        <time>2009-03-11T07:58:32Z</time>
      </trkpt>
      <trkpt lat="43.66754" lon="7.03204">
        <ele>209.7</ele>
        <time>2009-03-11T07:58:44Z</time>
      </trkpt>
      <trkpt lat="43.6678" lon="7.03191">
        <ele>208.7</ele>
        <time>2009-03-11T07:58:54Z</time>
      </trkpt>
      <trkpt lat="43.6681" lon="7.03185">
        <ele>209.2</ele>
        <time>2009-03-11T07:59:05Z</time>
      </trkpt>
      <trkpt lat="43.66822" lon="7.03151">
        <ele>212.1</ele>
        <time>2009-03-11T07:59:17Z</time>
      </trkpt>
      <trkpt lat="43.66844" lon="7.03123">
        <ele>214</ele>
        <time>2009-03-11T07:59:29Z</time>
      </trkpt>
      <trkpt lat="43.66866" lon="7.03107">
        <ele>215</ele>
        <time>2009-03-11T07:59:39Z</time>
      </trkpt>
      <trkpt lat="43.66893" lon="7.03111">
        <ele>217.4</ele>
        <time>2009-03-11T07:59:49Z</time>
      </trkpt>
      <trkpt lat="43.66914" lon="7.03087">
        <ele>217.9</ele>
        <time>2009-03-11T07:59:59Z</time>
      </trkpt>
      <trkpt lat="43.66928" lon="7.03049">
        <ele>219.8</ele>
        <time>2009-03-11T08:00:09Z</time>
      </trkpt>
      <trkpt lat="43.66937" lon="7.03011">
        <ele>220.8</ele>
        <time>2009-03-11T08:00:19Z</time>
      </trkpt>
      <trkpt lat="43.6693" lon="7.02976">
        <ele>222.2</ele>
        <time>2009-03-11T08:00:29Z</time>
      </trkpt>
      <trkpt lat="43.66919" lon="7.02941">
        <ele>223.2</ele>
        <time>2009-03-11T08:00:39Z</time>
      </trkpt>
      <trkpt lat="43.66917" lon="7.0294">
        <ele>224.1</ele>
        <time>2009-03-11T08:01:10Z</time>
      </trkpt>
      <trkpt lat="43.6693" lon="7.02975">
        <ele>222.7</ele>
        <time>2009-03-11T08:01:18Z</time>
      </trkpt>
      <trkpt lat="43.66938" lon="7.03014">
        <ele>219.8</ele>
        <time>2009-03-11T08:01:25Z</time>
      </trkpt>
      <trkpt lat="43.66965" lon="7.03022">
        <ele>219.3</ele>
        <time>2009-03-11T08:01:34Z</time>
      </trkpt>
      <trkpt lat="43.66993" lon="7.0301">
        <ele>218.4</ele>
        <time>2009-03-11T08:01:42Z</time>
      </trkpt>
      <trkpt lat="43.67018" lon="7.02986">
        <ele>218.4</ele>
        <time>2009-03-11T08:01:50Z</time>
      </trkpt>
      <trkpt lat="43.6705" lon="7.02926">
        <ele>216.9</ele>
        <time>2009-03-11T08:03:33Z</time>
      </trkpt>
      <trkpt lat="43.67052" lon="7.02882">
        <ele>223.6</ele>
        <time>2009-03-11T08:05:07Z</time>
      </trkpt>
      <trkpt lat="43.67019" lon="7.02869">
        <ele>228.9</ele>
        <time>2009-03-11T08:07:20Z</time>
      </trkpt>
      <trkpt lat="43.6699" lon="7.0285">
        <ele>230.9</ele>
        <time>2009-03-11T08:08:01Z</time>
      </trkpt>
      <trkpt lat="43.67021" lon="7.02837">
        <ele>229.4</ele>
        <time>2009-03-11T08:08:30Z</time>
      </trkpt>
      <trkpt lat="43.67034" lon="7.02803">
        <ele>233.3</ele>
        <time>2009-03-11T08:09:08Z</time>
      </trkpt>
      <trkpt lat="43.67054" lon="7.02776">
        <ele>234.7</ele>
        <time>2009-03-11T08:09:23Z</time>
      </trkpt>
      <trkpt lat="43.67072" lon="7.02741">
        <ele>236.1</ele>
        <time>2009-03-11T08:09:38Z</time>
      </trkpt>
      <trkpt lat="43.6709" lon="7.02702">
        <ele>237.1</ele>
        <time>2009-03-11T08:09:54Z</time>
      </trkpt>
      <trkpt lat="43.67103" lon="7.02638">
        <ele>238.5</ele>
        <time>2009-03-11T08:10:12Z</time>
      </trkpt>
      <trkpt lat="43.67108" lon="7.02595">
        <ele>236.1</ele>
        <time>2009-03-11T08:10:17Z</time>
      </trkpt>
      <trkpt lat="43.67115" lon="7.02611">
        <ele>234.2</ele>
        <time>2009-03-11T08:10:27Z</time>
      </trkpt>
      <trkpt lat="43.67141" lon="7.02645">
        <ele>234.2</ele>
        <time>2009-03-11T08:10:34Z</time>
      </trkpt>
      <trkpt lat="43.67161" lon="7.02674">
        <ele>234.7</ele>
        <time>2009-03-11T08:10:47Z</time>
      </trkpt>
      <trkpt lat="43.67182" lon="7.02713">
        <ele>232.8</ele>
        <time>2009-03-11T08:10:57Z</time>
      </trkpt>
      <trkpt lat="43.67189" lon="7.02757">
        <ele>231.3</ele>
        <time>2009-03-11T08:11:04Z</time>
      </trkpt>
      <trkpt lat="43.67185" lon="7.02803">
        <ele>231.8</ele>
        <time>2009-03-11T08:11:14Z</time>
      </trkpt>
      <trkpt lat="43.67198" lon="7.02829">
        <ele>233.3</ele>
        <time>2009-03-11T08:11:35Z</time>
      </trkpt>
      <trkpt lat="43.67219" lon="7.02801">
        <ele>232.8</ele>
        <time>2009-03-11T08:11:43Z</time>
      </trkpt>
      <trkpt lat="43.67233" lon="7.02766">
        <ele>234.2</ele>
        <time>2009-03-11T08:11:51Z</time>
      </trkpt>
      <trkpt lat="43.67232" lon="7.02728">
        <ele>234.7</ele>
        <time>2009-03-11T08:11:59Z</time>
      </trkpt>
      <trkpt lat="43.67219" lon="7.02694">
        <ele>236.1</ele>
        <time>2009-03-11T08:12:07Z</time>
      </trkpt>
      <trkpt lat="43.67202" lon="7.02661">
        <ele>237.1</ele>
        <time>2009-03-11T08:12:14Z</time>
      </trkpt>
      <trkpt lat="43.67189" lon="7.02627">
        <ele>240.5</ele>
        <time>2009-03-11T08:12:21Z</time>
      </trkpt>
      <trkpt lat="43.67185" lon="7.02577">
        <ele>238.1</ele>
        <time>2009-03-11T08:12:29Z</time>
      </trkpt>
      <trkpt lat="43.67195" lon="7.02539">
        <ele>239.5</ele>
        <time>2009-03-11T08:12:38Z</time>
      </trkpt>
      <trkpt lat="43.6721" lon="7.02503">
        <ele>240.9</ele>
        <time>2009-03-11T08:12:46Z</time>
      </trkpt>
      <trkpt lat="43.6723" lon="7.02474">
        <ele>241.9</ele>
        <time>2009-03-11T08:12:54Z</time>
      </trkpt>
      <trkpt lat="43.67255" lon="7.02448">
        <ele>242.4</ele>
        <time>2009-03-11T08:13:03Z</time>
      </trkpt>
      <trkpt lat="43.67282" lon="7.02423">
        <ele>244.3</ele>
        <time>2009-03-11T08:13:12Z</time>
      </trkpt>
      <trkpt lat="43.67312" lon="7.02406">
        <ele>245.3</ele>
        <time>2009-03-11T08:13:20Z</time>
      </trkpt>
      <trkpt lat="43.67342" lon="7.02393">
        <ele>246.2</ele>
        <time>2009-03-11T08:13:29Z</time>
      </trkpt>
      <trkpt lat="43.67375" lon="7.02385">
        <ele>247.2</ele>
        <time>2009-03-11T08:13:38Z</time>
      </trkpt>
      <trkpt lat="43.67408" lon="7.02377">
        <ele>249.6</ele>
        <time>2009-03-11T08:13:47Z</time>
      </trkpt>
      <trkpt lat="43.67437" lon="7.02365">
        <ele>253.9</ele>
        <time>2009-03-11T08:13:56Z</time>
      </trkpt>
      <trkpt lat="43.67462" lon="7.02343">
        <ele>254.4</ele>
        <time>2009-03-11T08:14:04Z</time>
      </trkpt>
      <trkpt lat="43.6748" lon="7.02311">
        <ele>256.8</ele>
        <time>2009-03-11T08:14:13Z</time>
      </trkpt>
      <trkpt lat="43.67493" lon="7.02274">
        <ele>257.8</ele>
        <time>2009-03-11T08:14:21Z</time>
      </trkpt>
      <trkpt lat="43.67507" lon="7.0224">
        <ele>257.8</ele>
        <time>2009-03-11T08:14:29Z</time>
      </trkpt>
      <trkpt lat="43.67518" lon="7.02207">
        <ele>258.3</ele>
        <time>2009-03-11T08:14:37Z</time>
      </trkpt>
      <trkpt lat="43.67522" lon="7.02168">
        <ele>260.7</ele>
        <time>2009-03-11T08:14:45Z</time>
      </trkpt>
      <trkpt lat="43.67522" lon="7.02126">
        <ele>261.6</ele>
        <time>2009-03-11T08:14:54Z</time>
      </trkpt>
      <trkpt lat="43.67527" lon="7.02084">
        <ele>262.1</ele>
        <time>2009-03-11T08:15:03Z</time>
      </trkpt>
      <trkpt lat="43.67539" lon="7.02049">
        <ele>262.6</ele>
        <time>2009-03-11T08:15:12Z</time>
      </trkpt>
      <trkpt lat="43.67554" lon="7.02016">
        <ele>263.1</ele>
        <time>2009-03-11T08:15:21Z</time>
      </trkpt>
      <trkpt lat="43.6757" lon="7.01983">
        <ele>263.1</ele>
        <time>2009-03-11T08:15:30Z</time>
      </trkpt>
      <trkpt lat="43.67587" lon="7.01947">
        <ele>263.1</ele>
        <time>2009-03-11T08:15:39Z</time>
      </trkpt>
      <trkpt lat="43.67603" lon="7.01914">
        <ele>264.5</ele>
        <time>2009-03-11T08:15:48Z</time>
      </trkpt>
      <trkpt lat="43.67621" lon="7.01886">
        <ele>265</ele>
        <time>2009-03-11T08:15:56Z</time>
      </trkpt>
      <trkpt lat="43.67645" lon="7.01858">
        <ele>267.9</ele>
        <time>2009-03-11T08:16:05Z</time>
      </trkpt>
      <trkpt lat="43.67672" lon="7.01834">
        <ele>269.3</ele>
        <time>2009-03-11T08:16:14Z</time>
      </trkpt>
      <trkpt lat="43.67695" lon="7.01809">
        <ele>270.7</ele>
        <time>2009-03-11T08:16:22Z</time>
      </trkpt>
      <trkpt lat="43.67718" lon="7.01786">
        <ele>271.7</ele>
        <time>2009-03-11T08:16:30Z</time>
      </trkpt>
      <trkpt lat="43.6773" lon="7.01748">
        <ele>271.7</ele>
        <time>2009-03-11T08:16:38Z</time>
      </trkpt>
      <trkpt lat="43.67736" lon="7.01711">
        <ele>274.1</ele>
        <time>2009-03-11T08:16:47Z</time>
      </trkpt>
      <trkpt lat="43.6775" lon="7.01679">
        <ele>275.6</ele>
        <time>2009-03-11T08:16:56Z</time>
      </trkpt>
      <trkpt lat="43.67764" lon="7.01644">
        <ele>278</ele>
        <time>2009-03-11T08:17:05Z</time>
      </trkpt>
      <trkpt lat="43.67776" lon="7.01603">
        <ele>278.4</ele>
        <time>2009-03-11T08:17:13Z</time>
      </trkpt>
      <trkpt lat="43.67777" lon="7.0156">
        <ele>278</ele>
        <time>2009-03-11T08:17:20Z</time>
      </trkpt>
      <trkpt lat="43.67773" lon="7.01519">
        <ele>277</ele>
        <time>2009-03-11T08:17:27Z</time>
      </trkpt>
      <trkpt lat="43.67776" lon="7.01478">
        <ele>276</ele>
        <time>2009-03-11T08:17:34Z</time>
      </trkpt>
      <trkpt lat="43.678" lon="7.01484">
        <ele>272.7</ele>
        <time>2009-03-11T08:17:42Z</time>
      </trkpt>
      <trkpt lat="43.67824" lon="7.01516">
        <ele>275.1</ele>
        <time>2009-03-11T08:17:51Z</time>
      </trkpt>
      <trkpt lat="43.67852" lon="7.01516">
        <ele>279.9</ele>
        <time>2009-03-11T08:18:02Z</time>
      </trkpt>
      <trkpt lat="43.67872" lon="7.01491">
        <ele>279.4</ele>
        <time>2009-03-11T08:18:13Z</time>
      </trkpt>
      <trkpt lat="43.6789" lon="7.01464">
        <ele>278.9</ele>
        <time>2009-03-11T08:18:24Z</time>
      </trkpt>
      <trkpt lat="43.67902" lon="7.01432">
        <ele>281.8</ele>
        <time>2009-03-11T08:18:36Z</time>
      </trkpt>
      <trkpt lat="43.67915" lon="7.0143">
        <ele>283.7</ele>
        <time>2009-03-11T08:18:50Z</time>
      </trkpt>
      <trkpt lat="43.67912" lon="7.01469">
        <ele>287.6</ele>
        <time>2009-03-11T08:19:03Z</time>
      </trkpt>
      <trkpt lat="43.67908" lon="7.01507">
        <ele>290.5</ele>
        <time>2009-03-11T08:19:15Z</time>
      </trkpt>
      <trkpt lat="43.67904" lon="7.01547">
        <ele>293.3</ele>
        <time>2009-03-11T08:19:28Z</time>
      </trkpt>
      <trkpt lat="43.67919" lon="7.01575">
        <ele>296.7</ele>
        <time>2009-03-11T08:19:41Z</time>
      </trkpt>
      <trkpt lat="43.67939" lon="7.01607">
        <ele>299.1</ele>
        <time>2009-03-11T08:19:56Z</time>
      </trkpt>
      <trkpt lat="43.67957" lon="7.01636">
        <ele>299.6</ele>
        <time>2009-03-11T08:20:10Z</time>
      </trkpt>
      <trkpt lat="43.67973" lon="7.01662">
        <ele>303</ele>
        <time>2009-03-11T08:20:23Z</time>
      </trkpt>
      <trkpt lat="43.67999" lon="7.01672">
        <ele>307.3</ele>
        <time>2009-03-11T08:20:37Z</time>
      </trkpt>
      <trkpt lat="43.68027" lon="7.01685">
        <ele>309.2</ele>
        <time>2009-03-11T08:20:52Z</time>
      </trkpt>
      <trkpt lat="43.68055" lon="7.01692">
        <ele>313.5</ele>
        <time>2009-03-11T08:21:06Z</time>
      </trkpt>
      <trkpt lat="43.68076" lon="7.01666">
        <ele>315</ele>
        <time>2009-03-11T08:21:21Z</time>
      </trkpt>
      <trkpt lat="43.68087" lon="7.01628">
        <ele>318.3</ele>
        <time>2009-03-11T08:21:34Z</time>
      </trkpt>
      <trkpt lat="43.68098" lon="7.01593">
        <ele>318.3</ele>
        <time>2009-03-11T08:21:48Z</time>
      </trkpt>
      <trkpt lat="43.6812" lon="7.01567">
        <ele>318.8</ele>
        <time>2009-03-11T08:21:57Z</time>
      </trkpt>
      <trkpt lat="43.68135" lon="7.01533">
        <ele>319.3</ele>
        <time>2009-03-11T08:22:06Z</time>
      </trkpt>
      <trkpt lat="43.6815" lon="7.01499">
        <ele>322.2</ele>
        <time>2009-03-11T08:22:17Z</time>
      </trkpt>
      <trkpt lat="43.68157" lon="7.01455">
        <ele>320.7</ele>
        <time>2009-03-11T08:22:26Z</time>
      </trkpt>
      <trkpt lat="43.68172" lon="7.01423">
        <ele>320.3</ele>
        <time>2009-03-11T08:22:34Z</time>
      </trkpt>
      <trkpt lat="43.68193" lon="7.01397">
        <ele>319.3</ele>
        <time>2009-03-11T08:22:44Z</time>
      </trkpt>
      <trkpt lat="43.6822" lon="7.0141">
        <ele>317.9</ele>
        <time>2009-03-11T08:22:53Z</time>
      </trkpt>
      <trkpt lat="43.68248" lon="7.01435">
        <ele>315</ele>
        <time>2009-03-11T08:22:59Z</time>
      </trkpt>
      <trkpt lat="43.68277" lon="7.01444">
        <ele>312.6</ele>
        <time>2009-03-11T08:23:03Z</time>
      </trkpt>
      <trkpt lat="43.68304" lon="7.0146">
        <ele>312.1</ele>
        <time>2009-03-11T08:23:07Z</time>
      </trkpt>
      <trkpt lat="43.68329" lon="7.01481">
        <ele>310.6</ele>
        <time>2009-03-11T08:23:12Z</time>
      </trkpt>
      <trkpt lat="43.68347" lon="7.0147">
        <ele>315</ele>
        <time>2009-03-11T08:23:31Z</time>
      </trkpt>
      <trkpt lat="43.68367" lon="7.0144">
        <ele>320.3</ele>
        <time>2009-03-11T08:23:51Z</time>
      </trkpt>
      <trkpt lat="43.68394" lon="7.01424">
        <ele>328.9</ele>
        <time>2009-03-11T08:24:09Z</time>
      </trkpt>
      <trkpt lat="43.68425" lon="7.01419">
        <ele>328.9</ele>
        <time>2009-03-11T08:24:25Z</time>
      </trkpt>
      <trkpt lat="43.68456" lon="7.01412">
        <ele>328.9</ele>
        <time>2009-03-11T08:24:36Z</time>
      </trkpt>
      <trkpt lat="43.68485" lon="7.01407">
        <ele>329.4</ele>
        <time>2009-03-11T08:24:48Z</time>
      </trkpt>
      <trkpt lat="43.68512" lon="7.01398">
        <ele>332.3</ele>
        <time>2009-03-11T08:25:00Z</time>
      </trkpt>
      <trkpt lat="43.6854" lon="7.01387">
        <ele>334.2</ele>
        <time>2009-03-11T08:25:11Z</time>
      </trkpt>
      <trkpt lat="43.68569" lon="7.01387">
        <ele>332.8</ele>
        <time>2009-03-11T08:25:20Z</time>
      </trkpt>
      <trkpt lat="43.68596" lon="7.01396">
        <ele>331.3</ele>
        <time>2009-03-11T08:25:27Z</time>
      </trkpt>
      <trkpt lat="43.68626" lon="7.01396">
        <ele>328.9</ele>
        <time>2009-03-11T08:25:34Z</time>
      </trkpt>
      <trkpt lat="43.68655" lon="7.01391">
        <ele>333.2</ele>
        <time>2009-03-11T08:25:41Z</time>
      </trkpt>
      <trkpt lat="43.68684" lon="7.01387">
        <ele>334.2</ele>
        <time>2009-03-11T08:25:50Z</time>
      </trkpt>
      <trkpt lat="43.68709" lon="7.01375">
        <ele>334.7</ele>
        <time>2009-03-11T08:26:01Z</time>
      </trkpt>
      <trkpt lat="43.68727" lon="7.0135">
        <ele>336.1</ele>
        <time>2009-03-11T08:26:14Z</time>
      </trkpt>
      <trkpt lat="43.6874" lon="7.01312">
        <ele>340.4</ele>
        <time>2009-03-11T08:26:29Z</time>
      </trkpt>
      <trkpt lat="43.68755" lon="7.01283">
        <ele>343.3</ele>
        <time>2009-03-11T08:26:44Z</time>
      </trkpt>
      <trkpt lat="43.68782" lon="7.013">
        <ele>348.1</ele>
        <time>2009-03-11T08:27:03Z</time>
      </trkpt>
      <trkpt lat="43.6881" lon="7.0132">
        <ele>357.7</ele>
        <time>2009-03-11T08:27:21Z</time>
      </trkpt>
      <trkpt lat="43.68831" lon="7.01311">
        <ele>358.2</ele>
        <time>2009-03-11T08:27:37Z</time>
      </trkpt>
      <trkpt lat="43.68844" lon="7.01275">
        <ele>358.7</ele>
        <time>2009-03-11T08:27:48Z</time>
      </trkpt>
      <trkpt lat="43.68863" lon="7.01245">
        <ele>357.7</ele>
        <time>2009-03-11T08:27:57Z</time>
      </trkpt>
      <trkpt lat="43.68889" lon="7.01225">
        <ele>357.3</ele>
        <time>2009-03-11T08:28:07Z</time>
      </trkpt>
      <trkpt lat="43.68919" lon="7.01235">
        <ele>355.3</ele>
        <time>2009-03-11T08:28:13Z</time>
      </trkpt>
      <trkpt lat="43.6895" lon="7.01243">
        <ele>357.3</ele>
        <time>2009-03-11T08:28:18Z</time>
      </trkpt>
      <trkpt lat="43.68979" lon="7.01254">
        <ele>364</ele>
        <time>2009-03-11T08:28:33Z</time>
      </trkpt>
      <trkpt lat="43.69007" lon="7.01271">
        <ele>366.4</ele>
        <time>2009-03-11T08:28:46Z</time>
      </trkpt>
      <trkpt lat="43.69033" lon="7.01284">
        <ele>365.9</ele>
        <time>2009-03-11T08:28:59Z</time>
      </trkpt>
      <trkpt lat="43.69044" lon="7.01318">
        <ele>359.2</ele>
        <time>2009-03-11T08:29:09Z</time>
      </trkpt>
      <trkpt lat="43.69052" lon="7.01369">
        <ele>350.1</ele>
        <time>2009-03-11T08:29:16Z</time>
      </trkpt>
      <trkpt lat="43.69065" lon="7.01414">
        <ele>346.7</ele>
        <time>2009-03-11T08:29:20Z</time>
      </trkpt>
      <trkpt lat="43.69081" lon="7.01451">
        <ele>343.3</ele>
        <time>2009-03-11T08:29:24Z</time>
      </trkpt>
      <trkpt lat="43.69094" lon="7.01493">
        <ele>340.4</ele>
        <time>2009-03-11T08:29:28Z</time>
      </trkpt>
      <trkpt lat="43.69114" lon="7.01484">
        <ele>338.5</ele>
        <time>2009-03-11T08:29:35Z</time>
      </trkpt>
      <trkpt lat="43.69108" lon="7.01432">
        <ele>333.2</ele>
        <time>2009-03-11T08:29:41Z</time>
      </trkpt>
      <trkpt lat="43.69103" lon="7.01382">
        <ele>329.9</ele>
        <time>2009-03-11T08:29:45Z</time>
      </trkpt>
      <trkpt lat="43.69102" lon="7.01342">
        <ele>326.5</ele>
        <time>2009-03-11T08:29:49Z</time>
      </trkpt>
      <trkpt lat="43.6912" lon="7.01302">
        <ele>323.1</ele>
        <time>2009-03-11T08:29:53Z</time>
      </trkpt>
      <trkpt lat="43.69143" lon="7.01271">
        <ele>320.3</ele>
        <time>2009-03-11T08:29:58Z</time>
      </trkpt>
      <trkpt lat="43.69164" lon="7.01235">
        <ele>316.9</ele>
        <time>2009-03-11T08:30:02Z</time>
      </trkpt>
      <trkpt lat="43.69176" lon="7.01184">
        <ele>309.7</ele>
        <time>2009-03-11T08:30:06Z</time>
      </trkpt>
      <trkpt lat="43.69186" lon="7.01146">
        <ele>307.3</ele>
        <time>2009-03-11T08:30:09Z</time>
      </trkpt>
      <trkpt lat="43.69196" lon="7.01107">
        <ele>305.4</ele>
        <time>2009-03-11T08:30:12Z</time>
      </trkpt>
      <trkpt lat="43.69199" lon="7.01071">
        <ele>304.4</ele>
        <time>2009-03-11T08:30:15Z</time>
      </trkpt>
      <trkpt lat="43.69215" lon="7.01034">
        <ele>304.4</ele>
        <time>2009-03-11T08:30:19Z</time>
      </trkpt>
      <trkpt lat="43.69238" lon="7.01002">
        <ele>303</ele>
        <time>2009-03-11T08:30:24Z</time>
      </trkpt>
      <trkpt lat="43.69258" lon="7.01025">
        <ele>299.6</ele>
        <time>2009-03-11T08:30:30Z</time>
      </trkpt>
      <trkpt lat="43.6927" lon="7.01057">
        <ele>292.4</ele>
        <time>2009-03-11T08:30:34Z</time>
      </trkpt>
      <trkpt lat="43.69275" lon="7.01097">
        <ele>290</ele>
        <time>2009-03-11T08:30:40Z</time>
      </trkpt>
      <trkpt lat="43.69253" lon="7.0113">
        <ele>286.6</ele>
        <time>2009-03-11T08:30:46Z</time>
      </trkpt>
      <trkpt lat="43.69243" lon="7.01171">
        <ele>283.7</ele>
        <time>2009-03-11T08:30:51Z</time>
      </trkpt>
      <trkpt lat="43.69254" lon="7.0122">
        <ele>281.8</ele>
        <time>2009-03-11T08:30:55Z</time>
      </trkpt>
      <trkpt lat="43.69264" lon="7.01266">
        <ele>280.8</ele>
        <time>2009-03-11T08:30:59Z</time>
      </trkpt>
      <trkpt lat="43.69272" lon="7.01311">
        <ele>278.4</ele>
        <time>2009-03-11T08:31:03Z</time>
      </trkpt>
      <trkpt lat="43.69279" lon="7.01354">
        <ele>275.6</ele>
        <time>2009-03-11T08:31:08Z</time>
      </trkpt>
      <trkpt lat="43.69297" lon="7.01356">
        <ele>269.8</ele>
        <time>2009-03-11T08:31:15Z</time>
      </trkpt>
      <trkpt lat="43.69316" lon="7.01325">
        <ele>267.9</ele>
        <time>2009-03-11T08:31:20Z</time>
      </trkpt>
      <trkpt lat="43.69327" lon="7.01282">
        <ele>262.6</ele>
        <time>2009-03-11T08:31:23Z</time>
      </trkpt>
      <trkpt lat="43.69334" lon="7.01239">
        <ele>261.1</ele>
        <time>2009-03-11T08:31:26Z</time>
      </trkpt>
      <trkpt lat="43.69346" lon="7.01201">
        <ele>259.7</ele>
        <time>2009-03-11T08:31:29Z</time>
      </trkpt>
      <trkpt lat="43.69361" lon="7.01155">
        <ele>254.9</ele>
        <time>2009-03-11T08:31:33Z</time>
      </trkpt>
      <trkpt lat="43.69375" lon="7.01113">
        <ele>252.5</ele>
        <time>2009-03-11T08:31:37Z</time>
      </trkpt>
      <trkpt lat="43.69379" lon="7.01073">
        <ele>247.7</ele>
        <time>2009-03-11T08:31:40Z</time>
      </trkpt>
      <trkpt lat="43.6939" lon="7.01036">
        <ele>245.8</ele>
        <time>2009-03-11T08:31:43Z</time>
      </trkpt>
      <trkpt lat="43.69406" lon="7.00992">
        <ele>244.3</ele>
        <time>2009-03-11T08:31:47Z</time>
      </trkpt>
      <trkpt lat="43.69415" lon="7.00954">
        <ele>244.3</ele>
        <time>2009-03-11T08:31:51Z</time>
      </trkpt>
      <trkpt lat="43.69429" lon="7.00912">
        <ele>241.9</ele>
        <time>2009-03-11T08:31:57Z</time>
      </trkpt>
      <trkpt lat="43.69439" lon="7.0087">
        <ele>238.5</ele>
        <time>2009-03-11T08:32:02Z</time>
      </trkpt>
      <trkpt lat="43.69453" lon="7.00829">
        <ele>237.1</ele>
        <time>2009-03-11T08:32:07Z</time>
      </trkpt>
      <trkpt lat="43.69469" lon="7.00797">
        <ele>237.1</ele>
        <time>2009-03-11T08:32:11Z</time>
      </trkpt>
      <trkpt lat="43.69491" lon="7.00774">
        <ele>236.6</ele>
        <time>2009-03-11T08:32:16Z</time>
      </trkpt>
      <trkpt lat="43.69515" lon="7.0074">
        <ele>233.3</ele>
        <time>2009-03-11T08:32:21Z</time>
      </trkpt>
      <trkpt lat="43.69539" lon="7.00691">
        <ele>230.4</ele>
        <time>2009-03-11T08:32:25Z</time>
      </trkpt>
      <trkpt lat="43.69554" lon="7.00651">
        <ele>227</ele>
        <time>2009-03-11T08:32:28Z</time>
      </trkpt>
      <trkpt lat="43.69567" lon="7.00615">
        <ele>224.6</ele>
        <time>2009-03-11T08:32:31Z</time>
      </trkpt>
      <trkpt lat="43.69585" lon="7.00577">
        <ele>222.7</ele>
        <time>2009-03-11T08:32:35Z</time>
      </trkpt>
      <trkpt lat="43.69605" lon="7.00535">
        <ele>219.8</ele>
        <time>2009-03-11T08:32:39Z</time>
      </trkpt>
      <trkpt lat="43.69621" lon="7.00504">
        <ele>217.4</ele>
        <time>2009-03-11T08:32:42Z</time>
      </trkpt>
      <trkpt lat="43.69644" lon="7.00462">
        <ele>215.5</ele>
        <time>2009-03-11T08:32:45Z</time>
      </trkpt>
      <trkpt lat="43.6967" lon="7.00415">
        <ele>213.1</ele>
        <time>2009-03-11T08:32:48Z</time>
      </trkpt>
      <trkpt lat="43.69668" lon="7.0036">
        <ele>208.3</ele>
        <time>2009-03-11T08:32:51Z</time>
      </trkpt>
      <trkpt lat="43.69681" lon="7.00318">
        <ele>204.4</ele>
        <time>2009-03-11T08:32:53Z</time>
      </trkpt>
      <trkpt lat="43.69697" lon="7.00285">
        <ele>202</ele>
        <time>2009-03-11T08:32:55Z</time>
      </trkpt>
      <trkpt lat="43.69722" lon="7.00247">
        <ele>193.4</ele>
        <time>2009-03-11T08:32:57Z</time>
      </trkpt>
      <trkpt lat="43.69746" lon="7.00208">
        <ele>190.5</ele>
        <time>2009-03-11T08:32:59Z</time>
      </trkpt>
      <trkpt lat="43.69761" lon="7.00158">
        <ele>190.5</ele>
        <time>2009-03-11T08:33:02Z</time>
      </trkpt>
      <trkpt lat="43.69766" lon="7.0011">
        <ele>189.5</ele>
        <time>2009-03-11T08:33:05Z</time>
      </trkpt>
      <trkpt lat="43.69773" lon="7.00068">
        <ele>182.3</ele>
        <time>2009-03-11T08:33:08Z</time>
      </trkpt>
      <trkpt lat="43.69776" lon="7.00024">
        <ele>171.7</ele>
        <time>2009-03-11T08:33:12Z</time>
      </trkpt>
      <trkpt lat="43.69773" lon="6.99983">
        <ele>164</ele>
        <time>2009-03-11T08:33:18Z</time>
      </trkpt>
      <trkpt lat="43.69762" lon="6.99946">
        <ele>153.9</ele>
        <time>2009-03-11T08:33:29Z</time>
      </trkpt>
      <trkpt lat="43.69741" lon="6.9991">
        <ele>147.7</ele>
        <time>2009-03-11T08:33:49Z</time>
      </trkpt>
      <trkpt lat="43.69759" lon="6.99889">
        <ele>149.6</ele>
        <time>2009-03-11T08:34:02Z</time>
      </trkpt>
      <trkpt lat="43.69784" lon="6.99905">
        <ele>146.3</ele>
        <time>2009-03-11T08:34:07Z</time>
      </trkpt>
      <trkpt lat="43.69818" lon="6.9992">
        <ele>143.9</ele>
        <time>2009-03-11T08:34:11Z</time>
      </trkpt>
      <trkpt lat="43.69851" lon="6.9993">
        <ele>141.9</ele>
        <time>2009-03-11T08:34:15Z</time>
      </trkpt>
      <trkpt lat="43.69881" lon="6.99919">
        <ele>142.4</ele>
        <time>2009-03-11T08:34:19Z</time>
      </trkpt>
      <trkpt lat="43.69908" lon="6.99908">
        <ele>141.9</ele>
        <time>2009-03-11T08:34:23Z</time>
      </trkpt>
      <trkpt lat="43.69937" lon="6.99897">
        <ele>141.5</ele>
        <time>2009-03-11T08:34:28Z</time>
      </trkpt>
      <trkpt lat="43.69965" lon="6.9989">
        <ele>141.9</ele>
        <time>2009-03-11T08:34:34Z</time>
      </trkpt>
      <trkpt lat="43.69993" lon="6.99899">
        <ele>141.9</ele>
        <time>2009-03-11T08:34:40Z</time>
      </trkpt>
      <trkpt lat="43.70019" lon="6.99914">
        <ele>141.9</ele>
        <time>2009-03-11T08:34:46Z</time>
      </trkpt>
      <trkpt lat="43.70047" lon="6.9992">
        <ele>140.5</ele>
        <time>2009-03-11T08:34:52Z</time>
      </trkpt>
      <trkpt lat="43.70073" lon="6.99914">
        <ele>141</ele>
        <time>2009-03-11T08:34:58Z</time>
      </trkpt>
      <trkpt lat="43.70098" lon="6.99904">
        <ele>140</ele>
        <time>2009-03-11T08:35:04Z</time>
      </trkpt>
      <trkpt lat="43.70127" lon="6.9989">
        <ele>140</ele>
        <time>2009-03-11T08:35:11Z</time>
      </trkpt>
      <trkpt lat="43.70156" lon="6.99883">
        <ele>141</ele>
        <time>2009-03-11T08:35:18Z</time>
      </trkpt>
      <trkpt lat="43.70184" lon="6.99876">
        <ele>144.8</ele>
        <time>2009-03-11T08:35:25Z</time>
      </trkpt>
      <trkpt lat="43.70209" lon="6.9986">
        <ele>144.3</ele>
        <time>2009-03-11T08:35:32Z</time>
      </trkpt>
      <trkpt lat="43.70236" lon="6.9984">
        <ele>145.3</ele>
        <time>2009-03-11T08:35:40Z</time>
      </trkpt>
      <trkpt lat="43.70261" lon="6.99849">
        <ele>146.7</ele>
        <time>2009-03-11T08:35:49Z</time>
      </trkpt>
      <trkpt lat="43.70276" lon="6.99885">
        <ele>146.3</ele>
        <time>2009-03-11T08:35:57Z</time>
      </trkpt>
      <trkpt lat="43.70296" lon="6.99917">
        <ele>140.5</ele>
        <time>2009-03-11T08:36:03Z</time>
      </trkpt>
      <trkpt lat="43.70326" lon="6.9993">
        <ele>139</ele>
        <time>2009-03-11T08:36:08Z</time>
      </trkpt>
      <trkpt lat="43.70331" lon="6.99974">
        <ele>140</ele>
        <time>2009-03-11T08:36:13Z</time>
      </trkpt>
      <trkpt lat="43.70349" lon="7.00004">
        <ele>139.5</ele>
        <time>2009-03-11T08:36:18Z</time>
      </trkpt>
      <trkpt lat="43.70372" lon="7.00026">
        <ele>143.9</ele>
        <time>2009-03-11T08:36:27Z</time>
      </trkpt>
      <trkpt lat="43.704" lon="7.00034">
        <ele>144.8</ele>
        <time>2009-03-11T08:36:42Z</time>
      </trkpt>
      <trkpt lat="43.70427" lon="7.00049">
        <ele>146.7</ele>
        <time>2009-03-11T08:36:57Z</time>
      </trkpt>
      <trkpt lat="43.70452" lon="7.00058">
        <ele>150.6</ele>
        <time>2009-03-11T08:37:11Z</time>
      </trkpt>
      <trkpt lat="43.70427" lon="7.00065">
        <ele>151.1</ele>
        <time>2009-03-11T08:37:27Z</time>
      </trkpt>
      <trkpt lat="43.704" lon="7.00071">
        <ele>152.5</ele>
        <time>2009-03-11T08:37:41Z</time>
      </trkpt>
      <trkpt lat="43.70377" lon="7.00095">
        <ele>152.5</ele>
        <time>2009-03-11T08:37:52Z</time>
      </trkpt>
      <trkpt lat="43.70358" lon="7.00127">
        <ele>152.5</ele>
        <time>2009-03-11T08:37:59Z</time>
      </trkpt>
      <trkpt lat="43.70345" lon="7.00169">
        <ele>152</ele>
        <time>2009-03-11T08:38:05Z</time>
      </trkpt>
      <trkpt lat="43.70334" lon="7.00205">
        <ele>152.5</ele>
        <time>2009-03-11T08:38:10Z</time>
      </trkpt>
      <trkpt lat="43.7032" lon="7.00236">
        <ele>151.5</ele>
        <time>2009-03-11T08:38:15Z</time>
      </trkpt>
      <trkpt lat="43.70292" lon="7.00256">
        <ele>151.1</ele>
        <time>2009-03-11T08:38:21Z</time>
      </trkpt>
      <trkpt lat="43.70266" lon="7.00272">
        <ele>152.5</ele>
        <time>2009-03-11T08:38:27Z</time>
      </trkpt>
      <trkpt lat="43.70247" lon="7.00305">
        <ele>151.1</ele>
        <time>2009-03-11T08:38:34Z</time>
      </trkpt>
      <trkpt lat="43.70242" lon="7.00342">
        <ele>153</ele>
        <time>2009-03-11T08:38:47Z</time>
      </trkpt>
      <trkpt lat="43.7024" lon="7.00379">
        <ele>155.9</ele>
        <time>2009-03-11T08:39:03Z</time>
      </trkpt>
      <trkpt lat="43.70242" lon="7.00417">
        <ele>160.7</ele>
        <time>2009-03-11T08:39:20Z</time>
      </trkpt>
      <trkpt lat="43.70255" lon="7.00451">
        <ele>166.4</ele>
        <time>2009-03-11T08:39:40Z</time>
      </trkpt>
      <trkpt lat="43.70267" lon="7.00485">
        <ele>171.3</ele>
        <time>2009-03-11T08:40:04Z</time>
      </trkpt>
      <trkpt lat="43.70245" lon="7.00514">
        <ele>178</ele>
        <time>2009-03-11T08:40:30Z</time>
      </trkpt>
      <trkpt lat="43.70225" lon="7.00552">
        <ele>180.9</ele>
        <time>2009-03-11T08:41:04Z</time>
      </trkpt>
      <trkpt lat="43.70217" lon="7.00592">
        <ele>187.6</ele>
        <time>2009-03-11T08:41:29Z</time>
      </trkpt>
      <trkpt lat="43.70217" lon="7.00631">
        <ele>191.4</ele>
        <time>2009-03-11T08:41:50Z</time>
      </trkpt>
      <trkpt lat="43.70215" lon="7.00673">
        <ele>201.1</ele>
        <time>2009-03-11T08:46:06Z</time>
      </trkpt>
      <trkpt lat="43.70216" lon="7.00713">
        <ele>204.9</ele>
        <time>2009-03-11T08:46:28Z</time>
      </trkpt>
      <trkpt lat="43.70218" lon="7.00751">
        <ele>209.7</ele>
        <time>2009-03-11T08:46:50Z</time>
      </trkpt>
      <trkpt lat="43.70216" lon="7.00786">
        <ele>214</ele>
        <time>2009-03-11T08:47:10Z</time>
      </trkpt>
      <trkpt lat="43.70224" lon="7.00822">
        <ele>219.3</ele>
        <time>2009-03-11T08:47:30Z</time>
      </trkpt>
      <trkpt lat="43.70238" lon="7.00853">
        <ele>223.6</ele>
        <time>2009-03-11T08:47:49Z</time>
      </trkpt>
      <trkpt lat="43.70249" lon="7.00889">
        <ele>226.5</ele>
        <time>2009-03-11T08:48:07Z</time>
      </trkpt>
      <trkpt lat="43.70257" lon="7.00923">
        <ele>226</ele>
        <time>2009-03-11T08:48:22Z</time>
      </trkpt>
      <trkpt lat="43.70271" lon="7.00953">
        <ele>222.2</ele>
        <time>2009-03-11T08:48:34Z</time>
      </trkpt>
      <trkpt lat="43.70289" lon="7.00979">
        <ele>222.2</ele>
        <time>2009-03-11T08:48:45Z</time>
      </trkpt>
      <trkpt lat="43.70315" lon="7.00998">
        <ele>225.1</ele>
        <time>2009-03-11T08:48:55Z</time>
      </trkpt>
      <trkpt lat="43.70315" lon="7.01036">
        <ele>224.1</ele>
        <time>2009-03-11T08:49:05Z</time>
      </trkpt>
      <trkpt lat="43.70302" lon="7.01069">
        <ele>224.1</ele>
        <time>2009-03-11T08:49:14Z</time>
      </trkpt>
      <trkpt lat="43.70278" lon="7.01093">
        <ele>227</ele>
        <time>2009-03-11T08:49:25Z</time>
      </trkpt>
      <trkpt lat="43.70266" lon="7.01128">
        <ele>229.9</ele>
        <time>2009-03-11T08:49:38Z</time>
      </trkpt>
      <trkpt lat="43.70252" lon="7.0116">
        <ele>233.7</ele>
        <time>2009-03-11T08:49:54Z</time>
      </trkpt>
      <trkpt lat="43.70235" lon="7.01193">
        <ele>241.9</ele>
        <time>2009-03-11T08:50:12Z</time>
      </trkpt>
      <trkpt lat="43.70222" lon="7.01231">
        <ele>250.6</ele>
        <time>2009-03-11T08:50:27Z</time>
      </trkpt>
      <trkpt lat="43.70221" lon="7.01282">
        <ele>253</ele>
        <time>2009-03-11T08:50:44Z</time>
      </trkpt>
      <trkpt lat="43.70221" lon="7.01331">
        <ele>253.9</ele>
        <time>2009-03-11T08:50:57Z</time>
      </trkpt>
      <trkpt lat="43.70229" lon="7.01374">
        <ele>253</ele>
        <time>2009-03-11T08:51:05Z</time>
      </trkpt>
      <trkpt lat="43.70232" lon="7.01416">
        <ele>252.5</ele>
        <time>2009-03-11T08:51:11Z</time>
      </trkpt>
      <trkpt lat="43.70233" lon="7.01457">
        <ele>254.4</ele>
        <time>2009-03-11T08:51:25Z</time>
      </trkpt>
      <trkpt lat="43.70243" lon="7.01495">
        <ele>253.9</ele>
        <time>2009-03-11T08:51:44Z</time>
      </trkpt>
      <trkpt lat="43.7023" lon="7.01534">
        <ele>260.2</ele>
        <time>2009-03-11T08:52:05Z</time>
      </trkpt>
      <trkpt lat="43.70219" lon="7.01573">
        <ele>265</ele>
        <time>2009-03-11T08:52:24Z</time>
      </trkpt>
      <trkpt lat="43.70209" lon="7.0161">
        <ele>265.9</ele>
        <time>2009-03-11T08:52:42Z</time>
      </trkpt>
      <trkpt lat="43.70193" lon="7.0164">
        <ele>267.4</ele>
        <time>2009-03-11T08:53:00Z</time>
      </trkpt>
      <trkpt lat="43.70182" lon="7.01677">
        <ele>271.2</ele>
        <time>2009-03-11T08:53:19Z</time>
      </trkpt>
      <trkpt lat="43.70195" lon="7.01717">
        <ele>273.6</ele>
        <time>2009-03-11T08:53:39Z</time>
      </trkpt>
      <trkpt lat="43.7021" lon="7.01696">
        <ele>282.8</ele>
        <time>2009-03-11T08:54:00Z</time>
      </trkpt>
      <trkpt lat="43.70234" lon="7.01672">
        <ele>287.1</ele>
        <time>2009-03-11T08:54:21Z</time>
      </trkpt>
      <trkpt lat="43.70261" lon="7.01679">
        <ele>290</ele>
        <time>2009-03-11T08:54:42Z</time>
      </trkpt>
      <trkpt lat="43.70282" lon="7.01704">
        <ele>294.3</ele>
        <time>2009-03-11T08:55:04Z</time>
      </trkpt>
      <trkpt lat="43.70304" lon="7.0168">
        <ele>300.5</ele>
        <time>2009-03-11T08:55:29Z</time>
      </trkpt>
      <trkpt lat="43.70321" lon="7.01706">
        <ele>301.5</ele>
        <time>2009-03-11T08:55:49Z</time>
      </trkpt>
      <trkpt lat="43.70338" lon="7.01734">
        <ele>303</ele>
        <time>2009-03-11T08:56:03Z</time>
      </trkpt>
      <trkpt lat="43.70355" lon="7.0175">
        <ele>307.8</ele>
        <time>2009-03-11T08:56:23Z</time>
      </trkpt>
      <trkpt lat="43.70365" lon="7.01781">
        <ele>313</ele>
        <time>2009-03-11T08:56:43Z</time>
      </trkpt>
      <trkpt lat="43.70383" lon="7.01759">
        <ele>318.8</ele>
        <time>2009-03-11T08:57:02Z</time>
      </trkpt>
      <trkpt lat="43.70402" lon="7.01732">
        <ele>321.7</ele>
        <time>2009-03-11T08:57:21Z</time>
      </trkpt>
      <trkpt lat="43.70426" lon="7.01715">
        <ele>326.5</ele>
        <time>2009-03-11T08:57:40Z</time>
      </trkpt>
      <trkpt lat="43.70453" lon="7.01708">
        <ele>326.5</ele>
        <time>2009-03-11T08:57:57Z</time>
      </trkpt>
      <trkpt lat="43.70471" lon="7.01681">
        <ele>329.4</ele>
        <time>2009-03-11T08:58:15Z</time>
      </trkpt>
      <trkpt lat="43.70489" lon="7.01703">
        <ele>332.8</ele>
        <time>2009-03-11T08:58:35Z</time>
      </trkpt>
      <trkpt lat="43.7051" lon="7.0173">
        <ele>334.2</ele>
        <time>2009-03-11T08:58:55Z</time>
      </trkpt>
      <trkpt lat="43.70531" lon="7.01761">
        <ele>339.5</ele>
        <time>2009-03-11T08:59:18Z</time>
      </trkpt>
      <trkpt lat="43.70557" lon="7.01787">
        <ele>342.8</ele>
        <time>2009-03-11T08:59:47Z</time>
      </trkpt>
      <trkpt lat="43.70574" lon="7.01822">
        <ele>350.1</ele>
        <time>2009-03-11T09:00:23Z</time>
      </trkpt>
      <trkpt lat="43.70582" lon="7.01864">
        <ele>359.2</ele>
        <time>2009-03-11T09:00:52Z</time>
      </trkpt>
      <trkpt lat="43.70592" lon="7.01893">
        <ele>362.6</ele>
        <time>2009-03-11T09:01:21Z</time>
      </trkpt>
      <trkpt lat="43.70613" lon="7.01873">
        <ele>367.8</ele>
        <time>2009-03-11T09:01:41Z</time>
      </trkpt>
      <trkpt lat="43.7063" lon="7.01843">
        <ele>372.6</ele>
        <time>2009-03-11T09:02:02Z</time>
      </trkpt>
      <trkpt lat="43.70644" lon="7.01813">
        <ele>376</ele>
        <time>2009-03-11T09:02:22Z</time>
      </trkpt>
      <trkpt lat="43.70655" lon="7.0178">
        <ele>379.9</ele>
        <time>2009-03-11T09:02:41Z</time>
      </trkpt>
      <trkpt lat="43.70676" lon="7.01752">
        <ele>384.2</ele>
        <time>2009-03-11T09:03:01Z</time>
      </trkpt>
      <trkpt lat="43.70689" lon="7.01717">
        <ele>390</ele>
        <time>2009-03-11T09:03:22Z</time>
      </trkpt>
      <trkpt lat="43.707" lon="7.0168">
        <ele>394.3</ele>
        <time>2009-03-11T09:03:44Z</time>
      </trkpt>
      <trkpt lat="43.7071" lon="7.01629">
        <ele>398.1</ele>
        <time>2009-03-11T09:04:24Z</time>
      </trkpt>
      <trkpt lat="43.70723" lon="7.0158">
        <ele>400</ele>
        <time>2009-03-11T09:05:00Z</time>
      </trkpt>
      <trkpt lat="43.70733" lon="7.01548">
        <ele>405.8</ele>
        <time>2009-03-11T09:05:30Z</time>
      </trkpt>
      <trkpt lat="43.70742" lon="7.01512">
        <ele>412.1</ele>
        <time>2009-03-11T09:06:16Z</time>
      </trkpt>
      <trkpt lat="43.70754" lon="7.01477">
        <ele>416.9</ele>
        <time>2009-03-11T09:06:42Z</time>
      </trkpt>
      <trkpt lat="43.70767" lon="7.01447">
        <ele>421.2</ele>
        <time>2009-03-11T09:07:05Z</time>
      </trkpt>
      <trkpt lat="43.70784" lon="7.01417">
        <ele>426.5</ele>
        <time>2009-03-11T09:07:27Z</time>
      </trkpt>
      <trkpt lat="43.70803" lon="7.01406">
        <ele>427.9</ele>
        <time>2009-03-11T09:07:48Z</time>
      </trkpt>
      <trkpt lat="43.70802" lon="7.01443">
        <ele>432.7</ele>
        <time>2009-03-11T09:08:10Z</time>
      </trkpt>
      <trkpt lat="43.70806" lon="7.01482">
        <ele>436.6</ele>
        <time>2009-03-11T09:08:31Z</time>
      </trkpt>
      <trkpt lat="43.70815" lon="7.01519">
        <ele>438.5</ele>
        <time>2009-03-11T09:08:55Z</time>
      </trkpt>
      <trkpt lat="43.70821" lon="7.01558">
        <ele>440.4</ele>
        <time>2009-03-11T09:09:18Z</time>
      </trkpt>
      <trkpt lat="43.70828" lon="7.01594">
        <ele>444.7</ele>
        <time>2009-03-11T09:09:39Z</time>
      </trkpt>
      <trkpt lat="43.70847" lon="7.01623">
        <ele>447.2</ele>
        <time>2009-03-11T09:10:00Z</time>
      </trkpt>
      <trkpt lat="43.70868" lon="7.0165">
        <ele>450</ele>
        <time>2009-03-11T09:10:20Z</time>
      </trkpt>
      <trkpt lat="43.70888" lon="7.01681">
        <ele>449.1</ele>
        <time>2009-03-11T09:10:40Z</time>
      </trkpt>
      <trkpt lat="43.70902" lon="7.01714">
        <ele>449.1</ele>
        <time>2009-03-11T09:10:59Z</time>
      </trkpt>
      <trkpt lat="43.70915" lon="7.01729">
        <ele>456.3</ele>
        <time>2009-03-11T09:11:19Z</time>
      </trkpt>
      <trkpt lat="43.70915" lon="7.01685">
        <ele>462.1</ele>
        <time>2009-03-11T09:11:47Z</time>
      </trkpt>
      <trkpt lat="43.70918" lon="7.0164">
        <ele>465.4</ele>
        <time>2009-03-11T09:12:22Z</time>
      </trkpt>
      <trkpt lat="43.7091" lon="7.01605">
        <ele>476</ele>
        <time>2009-03-11T09:12:49Z</time>
      </trkpt>
      <trkpt lat="43.70921" lon="7.01596">
        <ele>480.3</ele>
        <time>2009-03-11T09:14:28Z</time>
      </trkpt>
      <trkpt lat="43.70935" lon="7.01631">
        <ele>480.3</ele>
        <time>2009-03-11T09:14:52Z</time>
      </trkpt>
      <trkpt lat="43.70948" lon="7.01664">
        <ele>485.1</ele>
        <time>2009-03-11T09:15:17Z</time>
      </trkpt>
      <trkpt lat="43.70961" lon="7.01695">
        <ele>491.4</ele>
        <time>2009-03-11T09:15:42Z</time>
      </trkpt>
      <trkpt lat="43.70974" lon="7.0173">
        <ele>495.7</ele>
        <time>2009-03-11T09:16:06Z</time>
      </trkpt>
      <trkpt lat="43.70987" lon="7.01728">
        <ele>500</ele>
        <time>2009-03-11T09:16:29Z</time>
      </trkpt>
      <trkpt lat="43.70983" lon="7.01686">
        <ele>500.5</ele>
        <time>2009-03-11T09:16:53Z</time>
      </trkpt>
      <trkpt lat="43.7098" lon="7.01647">
        <ele>504.3</ele>
        <time>2009-03-11T09:17:17Z</time>
      </trkpt>
      <trkpt lat="43.70976" lon="7.01605">
        <ele>513</ele>
        <time>2009-03-11T09:17:39Z</time>
      </trkpt>
      <trkpt lat="43.70974" lon="7.01564">
        <ele>517.3</ele>
        <time>2009-03-11T09:18:01Z</time>
      </trkpt>
      <trkpt lat="43.7097" lon="7.01524">
        <ele>524.1</ele>
        <time>2009-03-11T09:18:23Z</time>
      </trkpt>
      <trkpt lat="43.70974" lon="7.01487">
        <ele>529.8</ele>
        <time>2009-03-11T09:18:43Z</time>
      </trkpt>
      <trkpt lat="43.70987" lon="7.01515">
        <ele>529.3</ele>
        <time>2009-03-11T09:19:05Z</time>
      </trkpt>
      <trkpt lat="43.70998" lon="7.01546">
        <ele>531.7</ele>
        <time>2009-03-11T09:19:29Z</time>
      </trkpt>
      <trkpt lat="43.71009" lon="7.01576">
        <ele>534.1</ele>
        <time>2009-03-11T09:19:50Z</time>
      </trkpt>
      <trkpt lat="43.71026" lon="7.01605">
        <ele>538.5</ele>
        <time>2009-03-11T09:20:10Z</time>
      </trkpt>
      <trkpt lat="43.71042" lon="7.01635">
        <ele>542.3</ele>
        <time>2009-03-11T09:20:30Z</time>
      </trkpt>
      <trkpt lat="43.71052" lon="7.01672">
        <ele>549.1</ele>
        <time>2009-03-11T09:20:50Z</time>
      </trkpt>
      <trkpt lat="43.71059" lon="7.0171">
        <ele>554.3</ele>
        <time>2009-03-11T09:21:10Z</time>
      </trkpt>
      <trkpt lat="43.71067" lon="7.01699">
        <ele>560.1</ele>
        <time>2009-03-11T09:21:30Z</time>
      </trkpt>
      <trkpt lat="43.71063" lon="7.01662">
        <ele>567.3</ele>
        <time>2009-03-11T09:21:52Z</time>
      </trkpt>
      <trkpt lat="43.71064" lon="7.01622">
        <ele>570.2</ele>
        <time>2009-03-11T09:22:19Z</time>
      </trkpt>
      <trkpt lat="43.7106" lon="7.01582">
        <ele>575.5</ele>
        <time>2009-03-11T09:22:48Z</time>
      </trkpt>
      <trkpt lat="43.71058" lon="7.01544">
        <ele>582.2</ele>
        <time>2009-03-11T09:23:18Z</time>
      </trkpt>
      <trkpt lat="43.71063" lon="7.01502">
        <ele>588</ele>
        <time>2009-03-11T09:23:47Z</time>
      </trkpt>
      <trkpt lat="43.71064" lon="7.01462">
        <ele>598.6</ele>
        <time>2009-03-11T09:24:16Z</time>
      </trkpt>
      <trkpt lat="43.71073" lon="7.01425">
        <ele>599.5</ele>
        <time>2009-03-11T09:24:41Z</time>
      </trkpt>
      <trkpt lat="43.71086" lon="7.01395">
        <ele>597.6</ele>
        <time>2009-03-11T09:25:04Z</time>
      </trkpt>
      <trkpt lat="43.71099" lon="7.01361">
        <ele>599.5</ele>
        <time>2009-03-11T09:25:26Z</time>
      </trkpt>
      <trkpt lat="43.71117" lon="7.0133">
        <ele>599.5</ele>
        <time>2009-03-11T09:25:54Z</time>
      </trkpt>
      <trkpt lat="43.71129" lon="7.01288">
        <ele>606.2</ele>
        <time>2009-03-11T09:26:25Z</time>
      </trkpt>
      <trkpt lat="43.71152" lon="7.01254">
        <ele>614.4</ele>
        <time>2009-03-11T09:27:02Z</time>
      </trkpt>
      <trkpt lat="43.71172" lon="7.01217">
        <ele>622.1</ele>
        <time>2009-03-11T09:27:34Z</time>
      </trkpt>
      <trkpt lat="43.71162" lon="7.0118">
        <ele>623.1</ele>
        <time>2009-03-11T09:27:55Z</time>
      </trkpt>
      <trkpt lat="43.71162" lon="7.01146">
        <ele>626.9</ele>
        <time>2009-03-11T09:28:15Z</time>
      </trkpt>
      <trkpt lat="43.71176" lon="7.01154">
        <ele>627.9</ele>
        <time>2009-03-11T09:28:34Z</time>
      </trkpt>
      <trkpt lat="43.71197" lon="7.01178">
        <ele>630.8</ele>
        <time>2009-03-11T09:28:54Z</time>
      </trkpt>
      <trkpt lat="43.71211" lon="7.01206">
        <ele>638</ele>
        <time>2009-03-11T09:29:24Z</time>
      </trkpt>
      <trkpt lat="43.71203" lon="7.01244">
        <ele>639.4</ele>
        <time>2009-03-11T09:29:52Z</time>
      </trkpt>
      <trkpt lat="43.71198" lon="7.01281">
        <ele>641.3</ele>
        <time>2009-03-11T09:30:15Z</time>
      </trkpt>
      <trkpt lat="43.71196" lon="7.01319">
        <ele>644.7</ele>
        <time>2009-03-11T09:30:34Z</time>
      </trkpt>
      <trkpt lat="43.71192" lon="7.01357">
        <ele>647.6</ele>
        <time>2009-03-11T09:30:58Z</time>
      </trkpt>
      <trkpt lat="43.71205" lon="7.01353">
        <ele>655.8</ele>
        <time>2009-03-11T09:31:21Z</time>
      </trkpt>
      <trkpt lat="43.71217" lon="7.0132">
        <ele>661</ele>
        <time>2009-03-11T09:31:43Z</time>
      </trkpt>
      <trkpt lat="43.71233" lon="7.0129">
        <ele>664.9</ele>
        <time>2009-03-11T09:32:04Z</time>
      </trkpt>
      <trkpt lat="43.71254" lon="7.01269">
        <ele>667.3</ele>
        <time>2009-03-11T09:32:26Z</time>
      </trkpt>
      <trkpt lat="43.71283" lon="7.01256">
        <ele>671.6</ele>
        <time>2009-03-11T09:32:57Z</time>
      </trkpt>
      <trkpt lat="43.71304" lon="7.01219">
        <ele>682.7</ele>
        <time>2009-03-11T09:33:35Z</time>
      </trkpt>
      <trkpt lat="43.71297" lon="7.01177">
        <ele>688</ele>
        <time>2009-03-11T09:34:04Z</time>
      </trkpt>
      <trkpt lat="43.71307" lon="7.01165">
        <ele>689.9</ele>
        <time>2009-03-11T09:34:30Z</time>
      </trkpt>
      <trkpt lat="43.7132" lon="7.01197">
        <ele>692.8</ele>
        <time>2009-03-11T09:35:02Z</time>
      </trkpt>
      <trkpt lat="43.71328" lon="7.01231">
        <ele>692.8</ele>
        <time>2009-03-11T09:35:30Z</time>
      </trkpt>
      <trkpt lat="43.71334" lon="7.01268">
        <ele>694.2</ele>
        <time>2009-03-11T09:35:55Z</time>
      </trkpt>
      <trkpt lat="43.71319" lon="7.01301">
        <ele>700.9</ele>
        <time>2009-03-11T09:36:28Z</time>
      </trkpt>
      <trkpt lat="43.71295" lon="7.01327">
        <ele>704.3</ele>
        <time>2009-03-11T09:36:53Z</time>
      </trkpt>
      <trkpt lat="43.71296" lon="7.01361">
        <ele>709.1</ele>
        <time>2009-03-11T09:37:15Z</time>
      </trkpt>
      <trkpt lat="43.71292" lon="7.01399">
        <ele>713</ele>
        <time>2009-03-11T09:37:36Z</time>
      </trkpt>
      <trkpt lat="43.71309" lon="7.01384">
        <ele>717.3</ele>
        <time>2009-03-11T09:37:58Z</time>
      </trkpt>
      <trkpt lat="43.71323" lon="7.01351">
        <ele>719.2</ele>
        <time>2009-03-11T09:38:26Z</time>
      </trkpt>
      <trkpt lat="43.71343" lon="7.01326">
        <ele>725</ele>
        <time>2009-03-11T09:38:49Z</time>
      </trkpt>
      <trkpt lat="43.71363" lon="7.01303">
        <ele>732.7</ele>
        <time>2009-03-11T09:39:10Z</time>
      </trkpt>
      <trkpt lat="43.71376" lon="7.01263">
        <ele>735.1</ele>
        <time>2009-03-11T09:39:47Z</time>
      </trkpt>
      <trkpt lat="43.71388" lon="7.01223">
        <ele>738.4</ele>
        <time>2009-03-11T09:40:19Z</time>
      </trkpt>
      <trkpt lat="43.714" lon="7.01187">
        <ele>743.2</ele>
        <time>2009-03-11T09:40:52Z</time>
      </trkpt>
      <trkpt lat="43.71427" lon="7.01181">
        <ele>749</ele>
        <time>2009-03-11T09:41:20Z</time>
      </trkpt>
      <trkpt lat="43.71452" lon="7.01189">
        <ele>751.4</ele>
        <time>2009-03-11T09:41:44Z</time>
      </trkpt>
      <trkpt lat="43.71479" lon="7.01181">
        <ele>754.8</ele>
        <time>2009-03-11T09:42:07Z</time>
      </trkpt>
      <trkpt lat="43.71506" lon="7.01169">
        <ele>756.7</ele>
        <time>2009-03-11T09:42:34Z</time>
      </trkpt>
      <trkpt lat="43.71532" lon="7.01175">
        <ele>765.8</ele>
        <time>2009-03-11T09:43:03Z</time>
      </trkpt>
      <trkpt lat="43.71553" lon="7.01197">
        <ele>770.6</ele>
        <time>2009-03-11T09:43:26Z</time>
      </trkpt>
      <trkpt lat="43.71579" lon="7.01207">
        <ele>773.5</ele>
        <time>2009-03-11T09:43:52Z</time>
      </trkpt>
      <trkpt lat="43.71609" lon="7.01203">
        <ele>779.3</ele>
        <time>2009-03-11T09:44:16Z</time>
      </trkpt>
      <trkpt lat="43.71616" lon="7.01236">
        <ele>785.1</ele>
        <time>2009-03-11T09:44:40Z</time>
      </trkpt>
      <trkpt lat="43.71621" lon="7.01274">
        <ele>787.5</ele>
        <time>2009-03-11T09:45:03Z</time>
      </trkpt>
      <trkpt lat="43.71627" lon="7.01312">
        <ele>790.3</ele>
        <time>2009-03-11T09:45:23Z</time>
      </trkpt>
      <trkpt lat="43.71629" lon="7.0135">
        <ele>794.2</ele>
        <time>2009-03-11T09:45:45Z</time>
      </trkpt>
      <trkpt lat="43.71629" lon="7.01389">
        <ele>798.5</ele>
        <time>2009-03-11T09:46:05Z</time>
      </trkpt>
      <trkpt lat="43.7164" lon="7.01425">
        <ele>800.9</ele>
        <time>2009-03-11T09:46:26Z</time>
      </trkpt>
      <trkpt lat="43.71658" lon="7.01456">
        <ele>803.8</ele>
        <time>2009-03-11T09:46:49Z</time>
      </trkpt>
      <trkpt lat="43.71673" lon="7.01485">
        <ele>806.7</ele>
        <time>2009-03-11T09:47:10Z</time>
      </trkpt>
      <trkpt lat="43.71682" lon="7.01521">
        <ele>808.1</ele>
        <time>2009-03-11T09:47:30Z</time>
      </trkpt>
      <trkpt lat="43.7169" lon="7.01557">
        <ele>809.1</ele>
        <time>2009-03-11T09:47:45Z</time>
      </trkpt>
      <trkpt lat="43.71697" lon="7.01599">
        <ele>812.9</ele>
        <time>2009-03-11T09:48:08Z</time>
      </trkpt>
      <trkpt lat="43.71702" lon="7.01641">
        <ele>817.3</ele>
        <time>2009-03-11T09:48:30Z</time>
      </trkpt>
      <trkpt lat="43.71709" lon="7.01679">
        <ele>819.2</ele>
        <time>2009-03-11T09:48:48Z</time>
      </trkpt>
      <trkpt lat="43.71718" lon="7.01715">
        <ele>820.6</ele>
        <time>2009-03-11T09:49:07Z</time>
      </trkpt>
      <trkpt lat="43.71729" lon="7.01752">
        <ele>822.1</ele>
        <time>2009-03-11T09:49:23Z</time>
      </trkpt>
      <trkpt lat="43.71739" lon="7.01789">
        <ele>818.7</ele>
        <time>2009-03-11T09:49:32Z</time>
      </trkpt>
      <trkpt lat="43.71746" lon="7.01822">
        <ele>818.7</ele>
        <time>2009-03-11T09:49:44Z</time>
      </trkpt>
      <trkpt lat="43.71718" lon="7.01829">
        <ele>820.1</ele>
        <time>2009-03-11T09:50:09Z</time>
      </trkpt>
      <trkpt lat="43.71708" lon="7.01864">
        <ele>821.6</ele>
        <time>2009-03-11T09:50:31Z</time>
      </trkpt>
      <trkpt lat="43.71719" lon="7.01899">
        <ele>824</ele>
        <time>2009-03-11T09:50:54Z</time>
      </trkpt>
      <trkpt lat="43.71722" lon="7.01937">
        <ele>824</ele>
        <time>2009-03-11T09:51:05Z</time>
      </trkpt>
      <trkpt lat="43.71726" lon="7.01978">
        <ele>821.6</ele>
        <time>2009-03-11T09:51:13Z</time>
      </trkpt>
      <trkpt lat="43.71728" lon="7.02017">
        <ele>820.1</ele>
        <time>2009-03-11T09:51:22Z</time>
      </trkpt>
      <trkpt lat="43.71717" lon="7.02056">
        <ele>819.2</ele>
        <time>2009-03-11T09:51:31Z</time>
      </trkpt>
      <trkpt lat="43.71708" lon="7.02094">
        <ele>821.6</ele>
        <time>2009-03-11T09:51:40Z</time>
      </trkpt>
      <trkpt lat="43.71707" lon="7.02134">
        <ele>824.5</ele>
        <time>2009-03-11T09:51:51Z</time>
      </trkpt>
      <trkpt lat="43.71707" lon="7.02172">
        <ele>826.9</ele>
        <time>2009-03-11T09:52:02Z</time>
      </trkpt>
      <trkpt lat="43.71712" lon="7.02211">
        <ele>828.8</ele>
        <time>2009-03-11T09:52:13Z</time>
      </trkpt>
      <trkpt lat="43.71721" lon="7.02247">
        <ele>829.8</ele>
        <time>2009-03-11T09:52:25Z</time>
      </trkpt>
      <trkpt lat="43.7173" lon="7.02285">
        <ele>830.2</ele>
        <time>2009-03-11T09:52:37Z</time>
      </trkpt>
      <trkpt lat="43.71737" lon="7.0232">
        <ele>830.7</ele>
        <time>2009-03-11T09:52:47Z</time>
      </trkpt>
      <trkpt lat="43.71748" lon="7.02361">
        <ele>831.7</ele>
        <time>2009-03-11T09:52:57Z</time>
      </trkpt>
      <trkpt lat="43.71769" lon="7.0237">
        <ele>833.1</ele>
        <time>2009-03-11T09:53:09Z</time>
      </trkpt>
      <trkpt lat="43.71773" lon="7.02333">
        <ele>836</ele>
        <time>2009-03-11T09:53:21Z</time>
      </trkpt>
      <trkpt lat="43.71789" lon="7.02302">
        <ele>838.9</ele>
        <time>2009-03-11T09:53:36Z</time>
      </trkpt>
      <trkpt lat="43.71807" lon="7.02316">
        <ele>840.8</ele>
        <time>2009-03-11T09:53:51Z</time>
      </trkpt>
      <trkpt lat="43.71809" lon="7.02353">
        <ele>841.3</ele>
        <time>2009-03-11T09:54:02Z</time>
      </trkpt>
      <trkpt lat="43.71812" lon="7.02392">
        <ele>838.9</ele>
        <time>2009-03-11T09:54:12Z</time>
      </trkpt>
      <trkpt lat="43.71816" lon="7.02432">
        <ele>839.8</ele>
        <time>2009-03-11T09:54:21Z</time>
      </trkpt>
      <trkpt lat="43.71812" lon="7.02472">
        <ele>839.8</ele>
        <time>2009-03-11T09:54:29Z</time>
      </trkpt>
      <trkpt lat="43.71805" lon="7.02514">
        <ele>837.9</ele>
        <time>2009-03-11T09:54:36Z</time>
      </trkpt>
      <trkpt lat="43.71795" lon="7.02553">
        <ele>838.9</ele>
        <time>2009-03-11T09:54:44Z</time>
      </trkpt>
      <trkpt lat="43.71785" lon="7.02588">
        <ele>837.4</ele>
        <time>2009-03-11T09:54:53Z</time>
      </trkpt>
      <trkpt lat="43.71763" lon="7.02614">
        <ele>837.9</ele>
        <time>2009-03-11T09:55:03Z</time>
      </trkpt>
      <trkpt lat="43.71737" lon="7.02628">
        <ele>838.9</ele>
        <time>2009-03-11T09:55:13Z</time>
      </trkpt>
      <trkpt lat="43.71708" lon="7.02635">
        <ele>840.3</ele>
        <time>2009-03-11T09:55:22Z</time>
      </trkpt>
      <trkpt lat="43.71682" lon="7.02652">
        <ele>843.7</ele>
        <time>2009-03-11T09:55:33Z</time>
      </trkpt>
      <trkpt lat="43.71669" lon="7.02691">
        <ele>845.1</ele>
        <time>2009-03-11T09:55:46Z</time>
      </trkpt>
      <trkpt lat="43.71678" lon="7.02733">
        <ele>845.1</ele>
        <time>2009-03-11T09:55:56Z</time>
      </trkpt>
      <trkpt lat="43.71695" lon="7.02761">
        <ele>846.6</ele>
        <time>2009-03-11T09:56:06Z</time>
      </trkpt>
      <trkpt lat="43.71716" lon="7.02787">
        <ele>846.6</ele>
        <time>2009-03-11T09:56:16Z</time>
      </trkpt>
      <trkpt lat="43.71738" lon="7.02814">
        <ele>847.1</ele>
        <time>2009-03-11T09:56:26Z</time>
      </trkpt>
      <trkpt lat="43.71758" lon="7.0284">
        <ele>847.5</ele>
        <time>2009-03-11T09:56:35Z</time>
      </trkpt>
      <trkpt lat="43.71776" lon="7.02867">
        <ele>847.1</ele>
        <time>2009-03-11T09:56:44Z</time>
      </trkpt>
      <trkpt lat="43.71794" lon="7.02897">
        <ele>847.5</ele>
        <time>2009-03-11T09:56:53Z</time>
      </trkpt>
      <trkpt lat="43.71815" lon="7.02927">
        <ele>847.5</ele>
        <time>2009-03-11T09:57:00Z</time>
      </trkpt>
      <trkpt lat="43.71835" lon="7.02952">
        <ele>844.2</ele>
        <time>2009-03-11T09:57:06Z</time>
      </trkpt>
      <trkpt lat="43.71857" lon="7.02979">
        <ele>838.9</ele>
        <time>2009-03-11T09:57:12Z</time>
      </trkpt>
      <trkpt lat="43.71875" lon="7.03008">
        <ele>837</ele>
        <time>2009-03-11T09:57:16Z</time>
      </trkpt>
      <trkpt lat="43.71892" lon="7.03042">
        <ele>834.6</ele>
        <time>2009-03-11T09:57:20Z</time>
      </trkpt>
      <trkpt lat="43.71908" lon="7.03077">
        <ele>832.6</ele>
        <time>2009-03-11T09:57:24Z</time>
      </trkpt>
      <trkpt lat="43.71915" lon="7.03111">
        <ele>832.2</ele>
        <time>2009-03-11T09:57:28Z</time>
      </trkpt>
      <trkpt lat="43.71922" lon="7.03154">
        <ele>832.6</ele>
        <time>2009-03-11T09:57:34Z</time>
      </trkpt>
      <trkpt lat="43.71918" lon="7.03202">
        <ele>836.5</ele>
        <time>2009-03-11T09:58:36Z</time>
      </trkpt>
      <trkpt lat="43.71931" lon="7.0324">
        <ele>835</ele>
        <time>2009-03-11T09:58:49Z</time>
      </trkpt>
      <trkpt lat="43.7195" lon="7.03267">
        <ele>839.8</ele>
        <time>2009-03-11T09:59:04Z</time>
      </trkpt>
      <trkpt lat="43.71973" lon="7.03293">
        <ele>838.4</ele>
        <time>2009-03-11T09:59:17Z</time>
      </trkpt>
      <trkpt lat="43.71987" lon="7.03323">
        <ele>834.6</ele>
        <time>2009-03-11T09:59:24Z</time>
      </trkpt>
      <trkpt lat="43.72001" lon="7.03357">
        <ele>831.7</ele>
        <time>2009-03-11T09:59:29Z</time>
      </trkpt>
      <trkpt lat="43.7202" lon="7.03388">
        <ele>827.8</ele>
        <time>2009-03-11T09:59:34Z</time>
      </trkpt>
      <trkpt lat="43.72035" lon="7.0342">
        <ele>824</ele>
        <time>2009-03-11T09:59:38Z</time>
      </trkpt>
      <trkpt lat="43.72041" lon="7.03464">
        <ele>823.5</ele>
        <time>2009-03-11T09:59:43Z</time>
      </trkpt>
      <trkpt lat="43.72044" lon="7.035">
        <ele>821.1</ele>
        <time>2009-03-11T09:59:48Z</time>
      </trkpt>
      <trkpt lat="43.72067" lon="7.03526">
        <ele>816.3</ele>
        <time>2009-03-11T09:59:56Z</time>
      </trkpt>
      <trkpt lat="43.7209" lon="7.03551">
        <ele>815.3</ele>
        <time>2009-03-11T10:00:04Z</time>
      </trkpt>
      <trkpt lat="43.72112" lon="7.03578">
        <ele>814.4</ele>
        <time>2009-03-11T10:00:12Z</time>
      </trkpt>
      <trkpt lat="43.72135" lon="7.03611">
        <ele>810</ele>
        <time>2009-03-11T10:00:17Z</time>
      </trkpt>
      <trkpt lat="43.72151" lon="7.03642">
        <ele>808.6</ele>
        <time>2009-03-11T10:00:21Z</time>
      </trkpt>
      <trkpt lat="43.72151" lon="7.03678">
        <ele>807.2</ele>
        <time>2009-03-11T10:00:26Z</time>
      </trkpt>
      <trkpt lat="43.7214" lon="7.03713">
        <ele>807.6</ele>
        <time>2009-03-11T10:00:32Z</time>
      </trkpt>
      <trkpt lat="43.72131" lon="7.03757">
        <ele>807.2</ele>
        <time>2009-03-11T10:00:38Z</time>
      </trkpt>
      <trkpt lat="43.72128" lon="7.03798">
        <ele>807.6</ele>
        <time>2009-03-11T10:00:45Z</time>
      </trkpt>
      <trkpt lat="43.72129" lon="7.03837">
        <ele>810</ele>
        <time>2009-03-11T10:00:54Z</time>
      </trkpt>
      <trkpt lat="43.72139" lon="7.03872">
        <ele>810.5</ele>
        <time>2009-03-11T10:01:03Z</time>
      </trkpt>
      <trkpt lat="43.72156" lon="7.03905">
        <ele>809.1</ele>
        <time>2009-03-11T10:01:14Z</time>
      </trkpt>
      <trkpt lat="43.72174" lon="7.03931">
        <ele>809.1</ele>
        <time>2009-03-11T10:01:24Z</time>
      </trkpt>
      <trkpt lat="43.72196" lon="7.03953">
        <ele>811.5</ele>
        <time>2009-03-11T10:01:36Z</time>
      </trkpt>
      <trkpt lat="43.7222" lon="7.03971">
        <ele>812</ele>
        <time>2009-03-11T10:01:46Z</time>
      </trkpt>
      <trkpt lat="43.72248" lon="7.0398">
        <ele>812.5</ele>
        <time>2009-03-11T10:01:57Z</time>
      </trkpt>
      <trkpt lat="43.72276" lon="7.0399">
        <ele>811.5</ele>
        <time>2009-03-11T10:02:05Z</time>
      </trkpt>
      <trkpt lat="43.72302" lon="7.03994">
        <ele>810</ele>
        <time>2009-03-11T10:02:19Z</time>
      </trkpt>
      <trkpt lat="43.72332" lon="7.03996">
        <ele>811.5</ele>
        <time>2009-03-11T10:02:28Z</time>
      </trkpt>
      <trkpt lat="43.7236" lon="7.0398">
        <ele>809.6</ele>
        <time>2009-03-11T10:02:35Z</time>
      </trkpt>
      <trkpt lat="43.72387" lon="7.03958">
        <ele>807.6</ele>
        <time>2009-03-11T10:02:41Z</time>
      </trkpt>
      <trkpt lat="43.72414" lon="7.0394">
        <ele>804.8</ele>
        <time>2009-03-11T10:02:47Z</time>
      </trkpt>
      <trkpt lat="43.72431" lon="7.03971">
        <ele>803.8</ele>
        <time>2009-03-11T10:02:54Z</time>
      </trkpt>
      <trkpt lat="43.72449" lon="7.04001">
        <ele>806.7</ele>
        <time>2009-03-11T10:03:02Z</time>
      </trkpt>
      <trkpt lat="43.72472" lon="7.04025">
        <ele>809.1</ele>
        <time>2009-03-11T10:03:12Z</time>
      </trkpt>
      <trkpt lat="43.72498" lon="7.04035">
        <ele>812</ele>
        <time>2009-03-11T10:03:27Z</time>
      </trkpt>
      <trkpt lat="43.72524" lon="7.04046">
        <ele>810</ele>
        <time>2009-03-11T10:03:37Z</time>
      </trkpt>
      <trkpt lat="43.72551" lon="7.04064">
        <ele>810.5</ele>
        <time>2009-03-11T10:03:46Z</time>
      </trkpt>
      <trkpt lat="43.72577" lon="7.04072">
        <ele>809.6</ele>
        <time>2009-03-11T10:03:52Z</time>
      </trkpt>
      <trkpt lat="43.72603" lon="7.04088">
        <ele>807.6</ele>
        <time>2009-03-11T10:03:58Z</time>
      </trkpt>
      <trkpt lat="43.7263" lon="7.04097">
        <ele>810</ele>
        <time>2009-03-11T10:04:06Z</time>
      </trkpt>
      <trkpt lat="43.72657" lon="7.04108">
        <ele>810</ele>
        <time>2009-03-11T10:04:13Z</time>
      </trkpt>
      <trkpt lat="43.72684" lon="7.04126">
        <ele>812.9</ele>
        <time>2009-03-11T10:04:21Z</time>
      </trkpt>
      <trkpt lat="43.72711" lon="7.04139">
        <ele>812.9</ele>
        <time>2009-03-11T10:04:30Z</time>
      </trkpt>
      <trkpt lat="43.72738" lon="7.04139">
        <ele>812.5</ele>
        <time>2009-03-11T10:04:40Z</time>
      </trkpt>
      <trkpt lat="43.72767" lon="7.04134">
        <ele>814.9</ele>
        <time>2009-03-11T10:04:51Z</time>
      </trkpt>
      <trkpt lat="43.72794" lon="7.0412">
        <ele>818.7</ele>
        <time>2009-03-11T10:05:03Z</time>
      </trkpt>
      <trkpt lat="43.7282" lon="7.04121">
        <ele>820.1</ele>
        <time>2009-03-11T10:05:15Z</time>
      </trkpt>
      <trkpt lat="43.72847" lon="7.04131">
        <ele>822.5</ele>
        <time>2009-03-11T10:05:30Z</time>
      </trkpt>
      <trkpt lat="43.72873" lon="7.04136">
        <ele>824</ele>
        <time>2009-03-11T10:05:45Z</time>
      </trkpt>
      <trkpt lat="43.72904" lon="7.04135">
        <ele>822.5</ele>
        <time>2009-03-11T10:05:58Z</time>
      </trkpt>
      <trkpt lat="43.72933" lon="7.04138">
        <ele>818.7</ele>
        <time>2009-03-11T10:06:05Z</time>
      </trkpt>
      <trkpt lat="43.72954" lon="7.0416">
        <ele>827.4</ele>
        <time>2009-03-11T10:06:19Z</time>
      </trkpt>
      <trkpt lat="43.72948" lon="7.04196">
        <ele>831.7</ele>
        <time>2009-03-11T10:06:33Z</time>
      </trkpt>
      <trkpt lat="43.72946" lon="7.04233">
        <ele>832.6</ele>
        <time>2009-03-11T10:06:48Z</time>
      </trkpt>
      <trkpt lat="43.72947" lon="7.04272">
        <ele>833.6</ele>
        <time>2009-03-11T10:06:57Z</time>
      </trkpt>
      <trkpt lat="43.72945" lon="7.0431">
        <ele>834.1</ele>
        <time>2009-03-11T10:07:09Z</time>
      </trkpt>
      <trkpt lat="43.72945" lon="7.04346">
        <ele>837</ele>
        <time>2009-03-11T10:07:22Z</time>
      </trkpt>
      <trkpt lat="43.72947" lon="7.04384">
        <ele>837.9</ele>
        <time>2009-03-11T10:07:34Z</time>
      </trkpt>
      <trkpt lat="43.72947" lon="7.04423">
        <ele>841.3</ele>
        <time>2009-03-11T10:07:45Z</time>
      </trkpt>
      <trkpt lat="43.72946" lon="7.04459">
        <ele>839.4</ele>
        <time>2009-03-11T10:07:55Z</time>
      </trkpt>
      <trkpt lat="43.72937" lon="7.04494">
        <ele>840.8</ele>
        <time>2009-03-11T10:08:04Z</time>
      </trkpt>
      <trkpt lat="43.7294" lon="7.0453">
        <ele>843.2</ele>
        <time>2009-03-11T10:08:16Z</time>
      </trkpt>
      <trkpt lat="43.72962" lon="7.0455">
        <ele>842.3</ele>
        <time>2009-03-11T10:08:27Z</time>
      </trkpt>
      <trkpt lat="43.72985" lon="7.04569">
        <ele>839.8</ele>
        <time>2009-03-11T10:08:33Z</time>
      </trkpt>
      <trkpt lat="43.73013" lon="7.04595">
        <ele>837</ele>
        <time>2009-03-11T10:08:38Z</time>
      </trkpt>
      <trkpt lat="43.73035" lon="7.04618">
        <ele>834.6</ele>
        <time>2009-03-11T10:08:42Z</time>
      </trkpt>
      <trkpt lat="43.73055" lon="7.04645">
        <ele>832.6</ele>
        <time>2009-03-11T10:08:46Z</time>
      </trkpt>
      <trkpt lat="43.73077" lon="7.04675">
        <ele>831.2</ele>
        <time>2009-03-11T10:08:51Z</time>
      </trkpt>
      <trkpt lat="43.731" lon="7.04701">
        <ele>828.3</ele>
        <time>2009-03-11T10:08:56Z</time>
      </trkpt>
      <trkpt lat="43.7312" lon="7.04729">
        <ele>826.4</ele>
        <time>2009-03-11T10:09:01Z</time>
      </trkpt>
      <trkpt lat="43.7315" lon="7.04745">
        <ele>825.9</ele>
        <time>2009-03-11T10:09:07Z</time>
      </trkpt>
      <trkpt lat="43.73179" lon="7.0475">
        <ele>825.9</ele>
        <time>2009-03-11T10:09:13Z</time>
      </trkpt>
      <trkpt lat="43.73207" lon="7.04764">
        <ele>825.9</ele>
        <time>2009-03-11T10:09:19Z</time>
      </trkpt>
      <trkpt lat="43.73233" lon="7.04777">
        <ele>825.9</ele>
        <time>2009-03-11T10:09:27Z</time>
      </trkpt>
      <trkpt lat="43.73254" lon="7.04799">
        <ele>827.4</ele>
        <time>2009-03-11T10:09:40Z</time>
      </trkpt>
      <trkpt lat="43.73263" lon="7.04834">
        <ele>825.4</ele>
        <time>2009-03-11T10:09:50Z</time>
      </trkpt>
      <trkpt lat="43.73276" lon="7.04873">
        <ele>826.9</ele>
        <time>2009-03-11T10:09:58Z</time>
      </trkpt>
      <trkpt lat="43.73288" lon="7.04907">
        <ele>826.9</ele>
        <time>2009-03-11T10:10:05Z</time>
      </trkpt>
      <trkpt lat="43.73302" lon="7.04939">
        <ele>826.9</ele>
        <time>2009-03-11T10:10:11Z</time>
      </trkpt>
      <trkpt lat="43.73324" lon="7.04961">
        <ele>827.4</ele>
        <time>2009-03-11T10:10:17Z</time>
      </trkpt>
      <trkpt lat="43.73345" lon="7.04987">
        <ele>825.9</ele>
        <time>2009-03-11T10:10:24Z</time>
      </trkpt>
      <trkpt lat="43.7337" lon="7.05">
        <ele>821.6</ele>
        <time>2009-03-11T10:10:39Z</time>
      </trkpt>
      <trkpt lat="43.73394" lon="7.05023">
        <ele>820.1</ele>
        <time>2009-03-11T10:10:50Z</time>
      </trkpt>
      <trkpt lat="43.73413" lon="7.05051">
        <ele>817.7</ele>
        <time>2009-03-11T10:10:58Z</time>
      </trkpt>
      <trkpt lat="43.73417" lon="7.05096">
        <ele>818.2</ele>
        <time>2009-03-11T10:11:06Z</time>
      </trkpt>
      <trkpt lat="43.73423" lon="7.0514">
        <ele>817.7</ele>
        <time>2009-03-11T10:11:13Z</time>
      </trkpt>
      <trkpt lat="43.7343" lon="7.05181">
        <ele>821.1</ele>
        <time>2009-03-11T10:11:23Z</time>
      </trkpt>
      <trkpt lat="43.73436" lon="7.05221">
        <ele>818.2</ele>
        <time>2009-03-11T10:11:33Z</time>
      </trkpt>
      <trkpt lat="43.73445" lon="7.05256">
        <ele>818.2</ele>
        <time>2009-03-11T10:11:42Z</time>
      </trkpt>
      <trkpt lat="43.73457" lon="7.053">
        <ele>818.7</ele>
        <time>2009-03-11T10:11:53Z</time>
      </trkpt>
      <trkpt lat="43.73462" lon="7.05339">
        <ele>823.5</ele>
        <time>2009-03-11T10:12:10Z</time>
      </trkpt>
      <trkpt lat="43.73466" lon="7.05374">
        <ele>824</ele>
        <time>2009-03-11T10:12:28Z</time>
      </trkpt>
      <trkpt lat="43.73475" lon="7.05412">
        <ele>821.1</ele>
        <time>2009-03-11T10:12:38Z</time>
      </trkpt>
      <trkpt lat="43.73491" lon="7.05436">
        <ele>819.2</ele>
        <time>2009-03-11T10:13:23Z</time>
      </trkpt>
      <trkpt lat="43.73511" lon="7.05411">
        <ele>821.6</ele>
        <time>2009-03-11T10:13:44Z</time>
      </trkpt>
      <trkpt lat="43.73531" lon="7.05386">
        <ele>824.5</ele>
        <time>2009-03-11T10:14:37Z</time>
      </trkpt>
      <trkpt lat="43.73553" lon="7.05363">
        <ele>826.9</ele>
        <time>2009-03-11T10:14:57Z</time>
      </trkpt>
      <trkpt lat="43.73574" lon="7.05333">
        <ele>831.2</ele>
        <time>2009-03-11T10:15:16Z</time>
      </trkpt>
      <trkpt lat="43.73583" lon="7.05298">
        <ele>839.8</ele>
        <time>2009-03-11T10:16:34Z</time>
      </trkpt>
      <trkpt lat="43.7364" lon="7.05236">
        <ele>857.6</ele>
        <time>2009-03-11T10:19:31Z</time>
      </trkpt>
      <trkpt lat="43.7364" lon="7.05107">
        <ele>878.3</ele>
        <time>2009-03-11T10:23:00Z</time>
      </trkpt>
      <trkpt lat="43.7364" lon="7.05075">
        <ele>884.6</ele>
        <time>2009-03-11T10:23:42Z</time>
      </trkpt>
      <trkpt lat="43.73646" lon="7.05022">
        <ele>895.6</ele>
        <time>2009-03-11T10:28:53Z</time>
      </trkpt>
      <trkpt lat="43.7366" lon="7.0499">
        <ele>912.4</ele>
        <time>2009-03-11T10:30:56Z</time>
      </trkpt>
      <trkpt lat="43.73693" lon="7.04997">
        <ele>922.5</ele>
        <time>2009-03-11T10:32:59Z</time>
      </trkpt>
      <trkpt lat="43.73708" lon="7.04993">
        <ele>924.9</ele>
        <time>2009-03-11T10:33:40Z</time>
      </trkpt>
      <trkpt lat="43.73715" lon="7.0496">
        <ele>940.3</ele>
        <time>2009-03-11T10:34:42Z</time>
      </trkpt>
      <trkpt lat="43.73749" lon="7.04951">
        <ele>949.9</ele>
        <time>2009-03-11T10:36:09Z</time>
      </trkpt>
      <trkpt lat="43.73778" lon="7.04962">
        <ele>954.7</ele>
        <time>2009-03-11T10:37:04Z</time>
      </trkpt>
      <trkpt lat="43.73814" lon="7.04965">
        <ele>965.8</ele>
        <time>2009-03-11T10:38:03Z</time>
      </trkpt>
      <trkpt lat="43.73853" lon="7.04997">
        <ele>970.1</ele>
        <time>2009-03-11T10:39:31Z</time>
      </trkpt>
      <trkpt lat="43.73902" lon="7.05055">
        <ele>988.4</ele>
        <time>2009-03-11T10:41:47Z</time>
      </trkpt>
      <trkpt lat="43.73937" lon="7.05061">
        <ele>997</ele>
        <time>2009-03-11T10:42:56Z</time>
      </trkpt>
      <trkpt lat="43.73974" lon="7.05084">
        <ele>1011.4</ele>
        <time>2009-03-11T10:44:14Z</time>
      </trkpt>
      <trkpt lat="43.74001" lon="7.05083">
        <ele>1022.5</ele>
        <time>2009-03-11T10:45:17Z</time>
      </trkpt>
      <trkpt lat="43.74006" lon="7.05045">
        <ele>1022.5</ele>
        <time>2009-03-11T10:57:37Z</time>
      </trkpt>
      <trkpt lat="43.74015" lon="7.05009">
        <ele>1028.3</ele>
        <time>2009-03-11T10:58:19Z</time>
      </trkpt>
      <trkpt lat="43.74024" lon="7.04972">
        <ele>1032.6</ele>
        <time>2009-03-11T10:58:56Z</time>
      </trkpt>
      <trkpt lat="43.74029" lon="7.04971">
        <ele>1036</ele>
        <time>2009-03-11T11:00:12Z</time>
      </trkpt>
      <trkpt lat="43.74016" lon="7.05">
        <ele>1030.7</ele>
        <time>2009-03-11T11:00:30Z</time>
      </trkpt>
      <trkpt lat="43.74008" lon="7.05036">
        <ele>1025.4</ele>
        <time>2009-03-11T11:00:40Z</time>
      </trkpt>
      <trkpt lat="43.74004" lon="7.05074">
        <ele>1023.9</ele>
        <time>2009-03-11T11:00:49Z</time>
      </trkpt>
      <trkpt lat="43.74011" lon="7.05108">
        <ele>1024.4</ele>
        <time>2009-03-11T11:01:29Z</time>
      </trkpt>
      <trkpt lat="43.74037" lon="7.05117">
        <ele>1030.2</ele>
        <time>2009-03-11T11:02:12Z</time>
      </trkpt>
      <trkpt lat="43.74064" lon="7.05126">
        <ele>1029.2</ele>
        <time>2009-03-11T11:02:56Z</time>
      </trkpt>
      <trkpt lat="43.74094" lon="7.05128">
        <ele>1029.2</ele>
        <time>2009-03-11T11:04:37Z</time>
      </trkpt>
      <trkpt lat="43.74117" lon="7.05114">
        <ele>1030.2</ele>
        <time>2009-03-11T11:05:13Z</time>
      </trkpt>
      <trkpt lat="43.74142" lon="7.05099">
        <ele>1029.2</ele>
        <time>2009-03-11T11:05:51Z</time>
      </trkpt>
      <trkpt lat="43.7417" lon="7.0511">
        <ele>1028.3</ele>
        <time>2009-03-11T11:06:07Z</time>
      </trkpt>
      <trkpt lat="43.74191" lon="7.05094">
        <ele>1026.3</ele>
        <time>2009-03-11T11:06:25Z</time>
      </trkpt>
      <trkpt lat="43.74218" lon="7.05084">
        <ele>1022.5</ele>
        <time>2009-03-11T11:06:33Z</time>
      </trkpt>
      <trkpt lat="43.74242" lon="7.05069">
        <ele>1019.6</ele>
        <time>2009-03-11T11:06:38Z</time>
      </trkpt>
      <trkpt lat="43.74267" lon="7.05047">
        <ele>1016.3</ele>
        <time>2009-03-11T11:06:46Z</time>
      </trkpt>
      <trkpt lat="43.74283" lon="7.05018">
        <ele>1013.8</ele>
        <time>2009-03-11T11:06:57Z</time>
      </trkpt>
      <trkpt lat="43.74307" lon="7.05005">
        <ele>1014.3</ele>
        <time>2009-03-11T11:07:46Z</time>
      </trkpt>
      <trkpt lat="43.74334" lon="7.05009">
        <ele>1012.9</ele>
        <time>2009-03-11T11:08:04Z</time>
      </trkpt>
      <trkpt lat="43.74361" lon="7.05001">
        <ele>1012.9</ele>
        <time>2009-03-11T11:08:19Z</time>
      </trkpt>
      <trkpt lat="43.74386" lon="7.04986">
        <ele>1015.3</ele>
        <time>2009-03-11T11:08:48Z</time>
      </trkpt>
      <trkpt lat="43.7441" lon="7.04973">
        <ele>1019.1</ele>
        <time>2009-03-11T11:09:04Z</time>
      </trkpt>
      <trkpt lat="43.74434" lon="7.04965">
        <ele>1025.9</ele>
        <time>2009-03-11T11:09:44Z</time>
      </trkpt>
      <trkpt lat="43.74452" lon="7.04984">
        <ele>1023</ele>
        <time>2009-03-11T11:14:48Z</time>
      </trkpt>
      <trkpt lat="43.74474" lon="7.05009">
        <ele>1022</ele>
        <time>2009-03-11T11:15:07Z</time>
      </trkpt>
      <trkpt lat="43.745" lon="7.05">
        <ele>1022</ele>
        <time>2009-03-11T11:15:17Z</time>
      </trkpt>
      <trkpt lat="43.74526" lon="7.04995">
        <ele>1023</ele>
        <time>2009-03-11T11:15:28Z</time>
      </trkpt>
      <trkpt lat="43.74552" lon="7.05004">
        <ele>1023.5</ele>
        <time>2009-03-11T11:15:39Z</time>
      </trkpt>
      <trkpt lat="43.7458" lon="7.05003">
        <ele>1022</ele>
        <time>2009-03-11T11:15:49Z</time>
      </trkpt>
      <trkpt lat="43.74608" lon="7.05007">
        <ele>1021.5</ele>
        <time>2009-03-11T11:16:00Z</time>
      </trkpt>
      <trkpt lat="43.74636" lon="7.05021">
        <ele>1017.2</ele>
        <time>2009-03-11T11:16:11Z</time>
      </trkpt>
      <trkpt lat="43.7466" lon="7.0504">
        <ele>1012.4</ele>
        <time>2009-03-11T11:16:21Z</time>
      </trkpt>
      <trkpt lat="43.74681" lon="7.05068">
        <ele>1010.5</ele>
        <time>2009-03-11T11:16:29Z</time>
      </trkpt>
      <trkpt lat="43.747" lon="7.05101">
        <ele>1009</ele>
        <time>2009-03-11T11:16:38Z</time>
      </trkpt>
      <trkpt lat="43.74719" lon="7.05133">
        <ele>1006.6</ele>
        <time>2009-03-11T11:16:47Z</time>
      </trkpt>
      <trkpt lat="43.74737" lon="7.05154">
        <ele>1001.4</ele>
        <time>2009-03-11T11:17:01Z</time>
      </trkpt>
      <trkpt lat="43.74751" lon="7.05183">
        <ele>998.5</ele>
        <time>2009-03-11T11:17:14Z</time>
      </trkpt>
      <trkpt lat="43.74755" lon="7.05224">
        <ele>996.1</ele>
        <time>2009-03-11T11:17:22Z</time>
      </trkpt>
      <trkpt lat="43.74769" lon="7.0526">
        <ele>992.2</ele>
        <time>2009-03-11T11:17:51Z</time>
      </trkpt>
      <trkpt lat="43.74768" lon="7.05302">
        <ele>990.3</ele>
        <time>2009-03-11T11:18:03Z</time>
      </trkpt>
      <trkpt lat="43.74775" lon="7.05339">
        <ele>985</ele>
        <time>2009-03-11T11:18:13Z</time>
      </trkpt>
      <trkpt lat="43.74781" lon="7.05376">
        <ele>980.7</ele>
        <time>2009-03-11T11:18:22Z</time>
      </trkpt>
      <trkpt lat="43.74802" lon="7.05402">
        <ele>977.3</ele>
        <time>2009-03-11T11:18:29Z</time>
      </trkpt>
      <trkpt lat="43.74831" lon="7.0541">
        <ele>975.9</ele>
        <time>2009-03-11T11:18:37Z</time>
      </trkpt>
      <trkpt lat="43.74857" lon="7.05416">
        <ele>971.1</ele>
        <time>2009-03-11T11:18:46Z</time>
      </trkpt>
      <trkpt lat="43.74884" lon="7.05426">
        <ele>970.6</ele>
        <time>2009-03-11T11:18:54Z</time>
      </trkpt>
      <trkpt lat="43.74907" lon="7.05452">
        <ele>970.1</ele>
        <time>2009-03-11T11:19:05Z</time>
      </trkpt>
      <trkpt lat="43.74927" lon="7.05482">
        <ele>968.7</ele>
        <time>2009-03-11T11:19:12Z</time>
      </trkpt>
      <trkpt lat="43.74951" lon="7.05491">
        <ele>967.2</ele>
        <time>2009-03-11T11:19:22Z</time>
      </trkpt>
      <trkpt lat="43.74974" lon="7.05509">
        <ele>966.3</ele>
        <time>2009-03-11T11:19:31Z</time>
      </trkpt>
      <trkpt lat="43.74999" lon="7.05528">
        <ele>965.3</ele>
        <time>2009-03-11T11:19:37Z</time>
      </trkpt>
      <trkpt lat="43.75027" lon="7.05544">
        <ele>964.8</ele>
        <time>2009-03-11T11:19:44Z</time>
      </trkpt>
      <trkpt lat="43.75054" lon="7.05551">
        <ele>965.8</ele>
        <time>2009-03-11T11:19:55Z</time>
      </trkpt>
      <trkpt lat="43.75083" lon="7.05551">
        <ele>963.4</ele>
        <time>2009-03-11T11:20:04Z</time>
      </trkpt>
      <trkpt lat="43.75109" lon="7.05566">
        <ele>961.9</ele>
        <time>2009-03-11T11:20:15Z</time>
      </trkpt>
      <trkpt lat="43.75137" lon="7.05553">
        <ele>960.5</ele>
        <time>2009-03-11T11:20:24Z</time>
      </trkpt>
      <trkpt lat="43.75158" lon="7.05523">
        <ele>959.1</ele>
        <time>2009-03-11T11:20:31Z</time>
      </trkpt>
      <trkpt lat="43.75179" lon="7.05493">
        <ele>959.1</ele>
        <time>2009-03-11T11:20:37Z</time>
      </trkpt>
      <trkpt lat="43.75202" lon="7.05473">
        <ele>959.5</ele>
        <time>2009-03-11T11:20:43Z</time>
      </trkpt>
      <trkpt lat="43.7523" lon="7.05453">
        <ele>960</ele>
        <time>2009-03-11T11:20:52Z</time>
      </trkpt>
      <trkpt lat="43.75251" lon="7.05424">
        <ele>962.4</ele>
        <time>2009-03-11T11:21:03Z</time>
      </trkpt>
      <trkpt lat="43.75268" lon="7.05392">
        <ele>962.4</ele>
        <time>2009-03-11T11:21:15Z</time>
      </trkpt>
      <trkpt lat="43.75282" lon="7.05356">
        <ele>965.8</ele>
        <time>2009-03-11T11:21:27Z</time>
      </trkpt>
      <trkpt lat="43.7529" lon="7.05315">
        <ele>965.3</ele>
        <time>2009-03-11T11:21:38Z</time>
      </trkpt>
      <trkpt lat="43.75306" lon="7.05286">
        <ele>964.3</ele>
        <time>2009-03-11T11:21:46Z</time>
      </trkpt>
      <trkpt lat="43.75327" lon="7.05255">
        <ele>964.8</ele>
        <time>2009-03-11T11:21:55Z</time>
      </trkpt>
      <trkpt lat="43.75346" lon="7.05229">
        <ele>965.8</ele>
        <time>2009-03-11T11:22:04Z</time>
      </trkpt>
      <trkpt lat="43.75364" lon="7.05199">
        <ele>965.3</ele>
        <time>2009-03-11T11:22:13Z</time>
      </trkpt>
      <trkpt lat="43.75382" lon="7.05161">
        <ele>963.4</ele>
        <time>2009-03-11T11:22:22Z</time>
      </trkpt>
      <trkpt lat="43.75407" lon="7.05139">
        <ele>962.9</ele>
        <time>2009-03-11T11:22:28Z</time>
      </trkpt>
      <trkpt lat="43.75434" lon="7.05126">
        <ele>962.9</ele>
        <time>2009-03-11T11:22:35Z</time>
      </trkpt>
      <trkpt lat="43.75448" lon="7.05091">
        <ele>962.9</ele>
        <time>2009-03-11T11:22:43Z</time>
      </trkpt>
      <trkpt lat="43.75454" lon="7.0505">
        <ele>962.4</ele>
        <time>2009-03-11T11:22:50Z</time>
      </trkpt>
      <trkpt lat="43.75459" lon="7.05008">
        <ele>964.8</ele>
        <time>2009-03-11T11:22:57Z</time>
      </trkpt>
      <trkpt lat="43.75474" lon="7.04976">
        <ele>968.7</ele>
        <time>2009-03-11T11:23:07Z</time>
      </trkpt>
      <trkpt lat="43.75494" lon="7.04954">
        <ele>969.1</ele>
        <time>2009-03-11T11:23:18Z</time>
      </trkpt>
      <trkpt lat="43.75502" lon="7.04918">
        <ele>966.3</ele>
        <time>2009-03-11T11:23:25Z</time>
      </trkpt>
      <trkpt lat="43.75505" lon="7.04874">
        <ele>963.4</ele>
        <time>2009-03-11T11:23:31Z</time>
      </trkpt>
      <trkpt lat="43.7552" lon="7.04834">
        <ele>962.9</ele>
        <time>2009-03-11T11:23:36Z</time>
      </trkpt>
      <trkpt lat="43.75532" lon="7.04799">
        <ele>961.5</ele>
        <time>2009-03-11T11:23:41Z</time>
      </trkpt>
      <trkpt lat="43.75552" lon="7.0476">
        <ele>960</ele>
        <time>2009-03-11T11:23:47Z</time>
      </trkpt>
      <trkpt lat="43.75573" lon="7.04728">
        <ele>961</ele>
        <time>2009-03-11T11:23:54Z</time>
      </trkpt>
      <trkpt lat="43.75594" lon="7.04701">
        <ele>961.9</ele>
        <time>2009-03-11T11:24:03Z</time>
      </trkpt>
      <trkpt lat="43.75615" lon="7.04673">
        <ele>963.4</ele>
        <time>2009-03-11T11:24:14Z</time>
      </trkpt>
      <trkpt lat="43.75639" lon="7.04652">
        <ele>963.9</ele>
        <time>2009-03-11T11:24:23Z</time>
      </trkpt>
      <trkpt lat="43.75663" lon="7.04628">
        <ele>965.8</ele>
        <time>2009-03-11T11:24:32Z</time>
      </trkpt>
      <trkpt lat="43.75684" lon="7.04603">
        <ele>966.7</ele>
        <time>2009-03-11T11:24:41Z</time>
      </trkpt>
      <trkpt lat="43.75709" lon="7.04578">
        <ele>966.3</ele>
        <time>2009-03-11T11:24:51Z</time>
      </trkpt>
      <trkpt lat="43.75729" lon="7.04551">
        <ele>966.3</ele>
        <time>2009-03-11T11:25:11Z</time>
      </trkpt>
      <trkpt lat="43.75749" lon="7.04527">
        <ele>965.8</ele>
        <time>2009-03-11T11:25:26Z</time>
      </trkpt>
      <trkpt lat="43.75747" lon="7.0451">
        <ele>964.8</ele>
        <time>2009-03-11T11:26:23Z</time>
      </trkpt>
      <trkpt lat="43.75763" lon="7.04505">
        <ele>965.8</ele>
        <time>2009-03-11T11:26:35Z</time>
      </trkpt>
      <trkpt lat="43.75782" lon="7.04479">
        <ele>965.8</ele>
        <time>2009-03-11T11:26:42Z</time>
      </trkpt>
      <trkpt lat="43.75803" lon="7.04447">
        <ele>965.3</ele>
        <time>2009-03-11T11:26:49Z</time>
      </trkpt>
      <trkpt lat="43.75823" lon="7.04419">
        <ele>966.3</ele>
        <time>2009-03-11T11:26:55Z</time>
      </trkpt>
      <trkpt lat="43.75848" lon="7.04395">
        <ele>967.2</ele>
        <time>2009-03-11T11:27:01Z</time>
      </trkpt>
      <trkpt lat="43.75874" lon="7.04377">
        <ele>967.2</ele>
        <time>2009-03-11T11:27:08Z</time>
      </trkpt>
      <trkpt lat="43.75903" lon="7.04364">
        <ele>967.7</ele>
        <time>2009-03-11T11:27:15Z</time>
      </trkpt>
      <trkpt lat="43.7593" lon="7.04353">
        <ele>966.7</ele>
        <time>2009-03-11T11:27:21Z</time>
      </trkpt>
      <trkpt lat="43.75959" lon="7.04347">
        <ele>967.7</ele>
        <time>2009-03-11T11:27:27Z</time>
      </trkpt>
      <trkpt lat="43.75985" lon="7.04327">
        <ele>969.1</ele>
        <time>2009-03-11T11:27:33Z</time>
      </trkpt>
      <trkpt lat="43.76006" lon="7.04297">
        <ele>968.7</ele>
        <time>2009-03-11T11:27:38Z</time>
      </trkpt>
      <trkpt lat="43.76032" lon="7.04266">
        <ele>966.3</ele>
        <time>2009-03-11T11:27:43Z</time>
      </trkpt>
      <trkpt lat="43.76055" lon="7.04237">
        <ele>966.3</ele>
        <time>2009-03-11T11:27:47Z</time>
      </trkpt>
      <trkpt lat="43.76078" lon="7.04212">
        <ele>966.7</ele>
        <time>2009-03-11T11:27:51Z</time>
      </trkpt>
      <trkpt lat="43.76106" lon="7.04183">
        <ele>966.7</ele>
        <time>2009-03-11T11:27:56Z</time>
      </trkpt>
      <trkpt lat="43.76129" lon="7.04158">
        <ele>967.2</ele>
        <time>2009-03-11T11:28:01Z</time>
      </trkpt>
      <trkpt lat="43.76156" lon="7.04133">
        <ele>966.7</ele>
        <time>2009-03-11T11:28:07Z</time>
      </trkpt>
      <trkpt lat="43.76181" lon="7.04102">
        <ele>964.3</ele>
        <time>2009-03-11T11:28:13Z</time>
      </trkpt>
      <trkpt lat="43.76199" lon="7.04073">
        <ele>963.9</ele>
        <time>2009-03-11T11:28:18Z</time>
      </trkpt>
      <trkpt lat="43.76222" lon="7.04042">
        <ele>962.9</ele>
        <time>2009-03-11T11:28:24Z</time>
      </trkpt>
      <trkpt lat="43.76251" lon="7.04027">
        <ele>962.9</ele>
        <time>2009-03-11T11:28:30Z</time>
      </trkpt>
      <trkpt lat="43.76279" lon="7.04012">
        <ele>961</ele>
        <time>2009-03-11T11:28:35Z</time>
      </trkpt>
      <trkpt lat="43.76307" lon="7.03984">
        <ele>959.5</ele>
        <time>2009-03-11T11:28:40Z</time>
      </trkpt>
      <trkpt lat="43.76332" lon="7.03955">
        <ele>959.1</ele>
        <time>2009-03-11T11:28:45Z</time>
      </trkpt>
      <trkpt lat="43.76356" lon="7.03929">
        <ele>960</ele>
        <time>2009-03-11T11:28:50Z</time>
      </trkpt>
      <trkpt lat="43.76368" lon="7.0389">
        <ele>958.6</ele>
        <time>2009-03-11T11:28:56Z</time>
      </trkpt>
      <trkpt lat="43.76388" lon="7.03864">
        <ele>960</ele>
        <time>2009-03-11T11:29:02Z</time>
      </trkpt>
      <trkpt lat="43.76416" lon="7.03853">
        <ele>961.9</ele>
        <time>2009-03-11T11:29:09Z</time>
      </trkpt>
      <trkpt lat="43.76444" lon="7.03848">
        <ele>963.4</ele>
        <time>2009-03-11T11:29:18Z</time>
      </trkpt>
      <trkpt lat="43.7647" lon="7.03823">
        <ele>962.4</ele>
        <time>2009-03-11T11:29:26Z</time>
      </trkpt>
      <trkpt lat="43.76486" lon="7.03792">
        <ele>963.4</ele>
        <time>2009-03-11T11:29:33Z</time>
      </trkpt>
      <trkpt lat="43.76491" lon="7.0375">
        <ele>962.4</ele>
        <time>2009-03-11T11:29:43Z</time>
      </trkpt>
      <trkpt lat="43.765" lon="7.03712">
        <ele>961.9</ele>
        <time>2009-03-11T11:29:53Z</time>
      </trkpt>
      <trkpt lat="43.76506" lon="7.03668">
        <ele>964.3</ele>
        <time>2009-03-11T11:30:04Z</time>
      </trkpt>
      <trkpt lat="43.76508" lon="7.03625">
        <ele>965.3</ele>
        <time>2009-03-11T11:30:15Z</time>
      </trkpt>
      <trkpt lat="43.76521" lon="7.03591">
        <ele>966.3</ele>
        <time>2009-03-11T11:30:25Z</time>
      </trkpt>
      <trkpt lat="43.76537" lon="7.03558">
        <ele>967.7</ele>
        <time>2009-03-11T11:30:34Z</time>
      </trkpt>
      <trkpt lat="43.7655" lon="7.03523">
        <ele>969.1</ele>
        <time>2009-03-11T11:30:42Z</time>
      </trkpt>
      <trkpt lat="43.76551" lon="7.03483">
        <ele>970.1</ele>
        <time>2009-03-11T11:30:51Z</time>
      </trkpt>
      <trkpt lat="43.76566" lon="7.0345">
        <ele>972.5</ele>
        <time>2009-03-11T11:31:03Z</time>
      </trkpt>
      <trkpt lat="43.7658" lon="7.03417">
        <ele>974.9</ele>
        <time>2009-03-11T11:31:28Z</time>
      </trkpt>
      <trkpt lat="43.76594" lon="7.03382">
        <ele>977.3</ele>
        <time>2009-03-11T11:31:40Z</time>
      </trkpt>
      <trkpt lat="43.76613" lon="7.03353">
        <ele>977.8</ele>
        <time>2009-03-11T11:31:50Z</time>
      </trkpt>
      <trkpt lat="43.7663" lon="7.03324">
        <ele>979.2</ele>
        <time>2009-03-11T11:31:59Z</time>
      </trkpt>
      <trkpt lat="43.7664" lon="7.03288">
        <ele>979.7</ele>
        <time>2009-03-11T11:32:08Z</time>
      </trkpt>
      <trkpt lat="43.76653" lon="7.03252">
        <ele>981.2</ele>
        <time>2009-03-11T11:32:20Z</time>
      </trkpt>
      <trkpt lat="43.76666" lon="7.03218">
        <ele>984.5</ele>
        <time>2009-03-11T11:32:33Z</time>
      </trkpt>
      <trkpt lat="43.76679" lon="7.03186">
        <ele>989.8</ele>
        <time>2009-03-11T11:32:49Z</time>
      </trkpt>
      <trkpt lat="43.76691" lon="7.03152">
        <ele>992.7</ele>
        <time>2009-03-11T11:33:05Z</time>
      </trkpt>
      <trkpt lat="43.76708" lon="7.03118">
        <ele>993.2</ele>
        <time>2009-03-11T11:33:18Z</time>
      </trkpt>
      <trkpt lat="43.76723" lon="7.03086">
        <ele>995.1</ele>
        <time>2009-03-11T11:33:30Z</time>
      </trkpt>
      <trkpt lat="43.76739" lon="7.03054">
        <ele>993.7</ele>
        <time>2009-03-11T11:33:39Z</time>
      </trkpt>
      <trkpt lat="43.76753" lon="7.0302">
        <ele>993.7</ele>
        <time>2009-03-11T11:33:48Z</time>
      </trkpt>
      <trkpt lat="43.76763" lon="7.02984">
        <ele>995.6</ele>
        <time>2009-03-11T11:33:58Z</time>
      </trkpt>
      <trkpt lat="43.76771" lon="7.02943">
        <ele>998</ele>
        <time>2009-03-11T11:34:10Z</time>
      </trkpt>
      <trkpt lat="43.76781" lon="7.02906">
        <ele>1000.9</ele>
        <time>2009-03-11T11:34:22Z</time>
      </trkpt>
      <trkpt lat="43.76793" lon="7.02871">
        <ele>1001.8</ele>
        <time>2009-03-11T11:34:34Z</time>
      </trkpt>
      <trkpt lat="43.76809" lon="7.02841">
        <ele>1005.2</ele>
        <time>2009-03-11T11:34:47Z</time>
      </trkpt>
      <trkpt lat="43.76819" lon="7.02805">
        <ele>1007.1</ele>
        <time>2009-03-11T11:35:01Z</time>
      </trkpt>
      <trkpt lat="43.76829" lon="7.02767">
        <ele>1011.4</ele>
        <time>2009-03-11T11:35:16Z</time>
      </trkpt>
      <trkpt lat="43.76846" lon="7.02735">
        <ele>1013.4</ele>
        <time>2009-03-11T11:35:30Z</time>
      </trkpt>
      <trkpt lat="43.76862" lon="7.02705">
        <ele>1016.7</ele>
        <time>2009-03-11T11:35:45Z</time>
      </trkpt>
      <trkpt lat="43.76887" lon="7.02701">
        <ele>1018.7</ele>
        <time>2009-03-11T11:37:06Z</time>
      </trkpt>
      <trkpt lat="43.76917" lon="7.02705">
        <ele>1022.5</ele>
        <time>2009-03-11T11:37:21Z</time>
      </trkpt>
      <trkpt lat="43.76946" lon="7.02711">
        <ele>1023.9</ele>
        <time>2009-03-11T11:37:36Z</time>
      </trkpt>
      <trkpt lat="43.76974" lon="7.02717">
        <ele>1027.3</ele>
        <time>2009-03-11T11:37:56Z</time>
      </trkpt>
      <trkpt lat="43.76983" lon="7.02748">
        <ele>1033.6</ele>
        <time>2009-03-11T11:38:30Z</time>
      </trkpt>
      <trkpt lat="43.76985" lon="7.02785">
        <ele>1036.9</ele>
        <time>2009-03-11T11:38:50Z</time>
      </trkpt>
      <trkpt lat="43.76975" lon="7.02822">
        <ele>1038.8</ele>
        <time>2009-03-11T11:39:08Z</time>
      </trkpt>
      <trkpt lat="43.76973" lon="7.0286">
        <ele>1039.8</ele>
        <time>2009-03-11T11:39:19Z</time>
      </trkpt>
      <trkpt lat="43.76981" lon="7.02897">
        <ele>1042.7</ele>
        <time>2009-03-11T11:39:30Z</time>
      </trkpt>
      <trkpt lat="43.76979" lon="7.02937">
        <ele>1044.6</ele>
        <time>2009-03-11T11:39:41Z</time>
      </trkpt>
      <trkpt lat="43.76977" lon="7.02977">
        <ele>1047.5</ele>
        <time>2009-03-11T11:39:53Z</time>
      </trkpt>
      <trkpt lat="43.7697" lon="7.03014">
        <ele>1048.5</ele>
        <time>2009-03-11T11:40:04Z</time>
      </trkpt>
      <trkpt lat="43.76965" lon="7.03051">
        <ele>1051.3</ele>
        <time>2009-03-11T11:40:15Z</time>
      </trkpt>
      <trkpt lat="43.76958" lon="7.0309">
        <ele>1053.3</ele>
        <time>2009-03-11T11:40:27Z</time>
      </trkpt>
      <trkpt lat="43.76951" lon="7.03125">
        <ele>1052.3</ele>
        <time>2009-03-11T11:40:37Z</time>
      </trkpt>
      <trkpt lat="43.7695" lon="7.03165">
        <ele>1051.3</ele>
        <time>2009-03-11T11:40:45Z</time>
      </trkpt>
      <trkpt lat="43.76954" lon="7.03206">
        <ele>1053.7</ele>
        <time>2009-03-11T11:40:54Z</time>
      </trkpt>
      <trkpt lat="43.76966" lon="7.0324">
        <ele>1055.7</ele>
        <time>2009-03-11T11:41:03Z</time>
      </trkpt>
      <trkpt lat="43.76976" lon="7.03274">
        <ele>1056.6</ele>
        <time>2009-03-11T11:41:12Z</time>
      </trkpt>
      <trkpt lat="43.76988" lon="7.0331">
        <ele>1059</ele>
        <time>2009-03-11T11:41:22Z</time>
      </trkpt>
      <trkpt lat="43.76999" lon="7.03311">
        <ele>1060.5</ele>
        <time>2009-03-11T11:41:36Z</time>
      </trkpt>
      <trkpt lat="43.76992" lon="7.03273">
        <ele>1063.8</ele>
        <time>2009-03-11T11:41:51Z</time>
      </trkpt>
      <trkpt lat="43.76989" lon="7.03234">
        <ele>1066.7</ele>
        <time>2009-03-11T11:42:04Z</time>
      </trkpt>
      <trkpt lat="43.76985" lon="7.03196">
        <ele>1069.6</ele>
        <time>2009-03-11T11:42:17Z</time>
      </trkpt>
      <trkpt lat="43.76993" lon="7.03159">
        <ele>1073</ele>
        <time>2009-03-11T11:42:30Z</time>
      </trkpt>
      <trkpt lat="43.77011" lon="7.0313">
        <ele>1075.9</ele>
        <time>2009-03-11T11:42:44Z</time>
      </trkpt>
      <trkpt lat="43.77032" lon="7.03106">
        <ele>1077.8</ele>
        <time>2009-03-11T11:43:34Z</time>
      </trkpt>
      <trkpt lat="43.77058" lon="7.03087">
        <ele>1077.3</ele>
        <time>2009-03-11T11:43:47Z</time>
      </trkpt>
      <trkpt lat="43.77081" lon="7.0306">
        <ele>1080.2</ele>
        <time>2009-03-11T11:44:00Z</time>
      </trkpt>
      <trkpt lat="43.77101" lon="7.03034">
        <ele>1084</ele>
        <time>2009-03-11T11:44:14Z</time>
      </trkpt>
      <trkpt lat="43.77111" lon="7.03">
        <ele>1086.9</ele>
        <time>2009-03-11T11:44:28Z</time>
      </trkpt>
      <trkpt lat="43.77128" lon="7.0297">
        <ele>1092.2</ele>
        <time>2009-03-11T11:44:42Z</time>
      </trkpt>
      <trkpt lat="43.7714" lon="7.02935">
        <ele>1096.5</ele>
        <time>2009-03-11T11:44:56Z</time>
      </trkpt>
      <trkpt lat="43.77152" lon="7.0295">
        <ele>1101.8</ele>
        <time>2009-03-11T11:45:16Z</time>
      </trkpt>
      <trkpt lat="43.77141" lon="7.02986">
        <ele>1107.6</ele>
        <time>2009-03-11T11:45:36Z</time>
      </trkpt>
      <trkpt lat="43.77135" lon="7.0303">
        <ele>1108.5</ele>
        <time>2009-03-11T11:45:52Z</time>
      </trkpt>
      <trkpt lat="43.7713" lon="7.03072">
        <ele>1108.5</ele>
        <time>2009-03-11T11:46:06Z</time>
      </trkpt>
      <trkpt lat="43.77124" lon="7.03109">
        <ele>1107.6</ele>
        <time>2009-03-11T11:46:18Z</time>
      </trkpt>
      <trkpt lat="43.7711" lon="7.03142">
        <ele>1110.9</ele>
        <time>2009-03-11T11:46:31Z</time>
      </trkpt>
      <trkpt lat="43.77111" lon="7.03184">
        <ele>1111.4</ele>
        <time>2009-03-11T11:46:43Z</time>
      </trkpt>
      <trkpt lat="43.77111" lon="7.03221">
        <ele>1111.4</ele>
        <time>2009-03-11T11:46:54Z</time>
      </trkpt>
      <trkpt lat="43.77109" lon="7.0326">
        <ele>1113.8</ele>
        <time>2009-03-11T11:47:06Z</time>
      </trkpt>
      <trkpt lat="43.77114" lon="7.03297">
        <ele>1112.9</ele>
        <time>2009-03-11T11:47:16Z</time>
      </trkpt>
      <trkpt lat="43.77125" lon="7.03333">
        <ele>1112.9</ele>
        <time>2009-03-11T11:47:25Z</time>
      </trkpt>
      <trkpt lat="43.7714" lon="7.0337">
        <ele>1111.9</ele>
        <time>2009-03-11T11:47:33Z</time>
      </trkpt>
      <trkpt lat="43.77154" lon="7.03404">
        <ele>1110.9</ele>
        <time>2009-03-11T11:47:40Z</time>
      </trkpt>
      <trkpt lat="43.77165" lon="7.03442">
        <ele>1110</ele>
        <time>2009-03-11T11:47:47Z</time>
      </trkpt>
      <trkpt lat="43.77174" lon="7.03479">
        <ele>1110</ele>
        <time>2009-03-11T11:47:55Z</time>
      </trkpt>
      <trkpt lat="43.77179" lon="7.03516">
        <ele>1110.9</ele>
        <time>2009-03-11T11:48:03Z</time>
      </trkpt>
      <trkpt lat="43.77174" lon="7.03553">
        <ele>1111.9</ele>
        <time>2009-03-11T11:48:11Z</time>
      </trkpt>
      <trkpt lat="43.77164" lon="7.03591">
        <ele>1112.9</ele>
        <time>2009-03-11T11:48:20Z</time>
      </trkpt>
      <trkpt lat="43.77163" lon="7.03629">
        <ele>1112.9</ele>
        <time>2009-03-11T11:48:30Z</time>
      </trkpt>
      <trkpt lat="43.77168" lon="7.03665">
        <ele>1113.8</ele>
        <time>2009-03-11T11:48:42Z</time>
      </trkpt>
      <trkpt lat="43.77191" lon="7.03692">
        <ele>1110.9</ele>
        <time>2009-03-11T11:48:52Z</time>
      </trkpt>
      <trkpt lat="43.77206" lon="7.03723">
        <ele>1109</ele>
        <time>2009-03-11T11:48:59Z</time>
      </trkpt>
      <trkpt lat="43.77224" lon="7.03753">
        <ele>1104.2</ele>
        <time>2009-03-11T11:49:10Z</time>
      </trkpt>
      <trkpt lat="43.77248" lon="7.03778">
        <ele>1099.4</ele>
        <time>2009-03-11T11:49:20Z</time>
      </trkpt>
      <trkpt lat="43.7727" lon="7.03801">
        <ele>1097</ele>
        <time>2009-03-11T11:49:29Z</time>
      </trkpt>
      <trkpt lat="43.77291" lon="7.03829">
        <ele>1095.1</ele>
        <time>2009-03-11T11:49:37Z</time>
      </trkpt>
      <trkpt lat="43.77302" lon="7.03865">
        <ele>1092.7</ele>
        <time>2009-03-11T11:49:47Z</time>
      </trkpt>
      <trkpt lat="43.77306" lon="7.03902">
        <ele>1089.8</ele>
        <time>2009-03-11T11:50:09Z</time>
      </trkpt>
      <trkpt lat="43.77307" lon="7.03945">
        <ele>1089.8</ele>
        <time>2009-03-11T11:50:42Z</time>
      </trkpt>
      <trkpt lat="43.77306" lon="7.03981">
        <ele>1085.9</ele>
        <time>2009-03-11T11:50:51Z</time>
      </trkpt>
      <trkpt lat="43.77306" lon="7.04021">
        <ele>1080.7</ele>
        <time>2009-03-11T11:51:00Z</time>
      </trkpt>
      <trkpt lat="43.77303" lon="7.0406">
        <ele>1076.8</ele>
        <time>2009-03-11T11:51:13Z</time>
      </trkpt>
      <trkpt lat="43.77301" lon="7.041">
        <ele>1073.4</ele>
        <time>2009-03-11T11:51:26Z</time>
      </trkpt>
      <trkpt lat="43.77299" lon="7.04138">
        <ele>1072</ele>
        <time>2009-03-11T11:51:33Z</time>
      </trkpt>
      <trkpt lat="43.77298" lon="7.04178">
        <ele>1068.6</ele>
        <time>2009-03-11T11:51:39Z</time>
      </trkpt>
      <trkpt lat="43.77315" lon="7.04212">
        <ele>1064.3</ele>
        <time>2009-03-11T11:51:46Z</time>
      </trkpt>
      <trkpt lat="43.77339" lon="7.04197">
        <ele>1062.4</ele>
        <time>2009-03-11T11:51:52Z</time>
      </trkpt>
      <trkpt lat="43.77361" lon="7.04166">
        <ele>1061</ele>
        <time>2009-03-11T11:51:58Z</time>
      </trkpt>
      <trkpt lat="43.77385" lon="7.04146">
        <ele>1060</ele>
        <time>2009-03-11T11:52:03Z</time>
      </trkpt>
      <trkpt lat="43.77415" lon="7.04127">
        <ele>1058.5</ele>
        <time>2009-03-11T11:52:08Z</time>
      </trkpt>
      <trkpt lat="43.77444" lon="7.04112">
        <ele>1055.7</ele>
        <time>2009-03-11T11:52:13Z</time>
      </trkpt>
      <trkpt lat="43.77472" lon="7.04107">
        <ele>1053.7</ele>
        <time>2009-03-11T11:52:17Z</time>
      </trkpt>
      <trkpt lat="43.77504" lon="7.04105">
        <ele>1050.4</ele>
        <time>2009-03-11T11:52:21Z</time>
      </trkpt>
      <trkpt lat="43.77538" lon="7.04107">
        <ele>1048.5</ele>
        <time>2009-03-11T11:52:25Z</time>
      </trkpt>
      <trkpt lat="43.7757" lon="7.04098">
        <ele>1046.5</ele>
        <time>2009-03-11T11:52:29Z</time>
      </trkpt>
      <trkpt lat="43.77602" lon="7.04081">
        <ele>1043.6</ele>
        <time>2009-03-11T11:52:33Z</time>
      </trkpt>
      <trkpt lat="43.77631" lon="7.04056">
        <ele>1041.2</ele>
        <time>2009-03-11T11:52:37Z</time>
      </trkpt>
      <trkpt lat="43.77653" lon="7.04033">
        <ele>1037.9</ele>
        <time>2009-03-11T11:52:41Z</time>
      </trkpt>
      <trkpt lat="43.77683" lon="7.04019">
        <ele>1036.4</ele>
        <time>2009-03-11T11:52:46Z</time>
      </trkpt>
      <trkpt lat="43.77712" lon="7.04006">
        <ele>1034</ele>
        <time>2009-03-11T11:52:51Z</time>
      </trkpt>
      <trkpt lat="43.77738" lon="7.03994">
        <ele>1032.6</ele>
        <time>2009-03-11T11:52:55Z</time>
      </trkpt>
      <trkpt lat="43.77767" lon="7.03988">
        <ele>1032.1</ele>
        <time>2009-03-11T11:53:00Z</time>
      </trkpt>
      <trkpt lat="43.77797" lon="7.03983">
        <ele>1032.6</ele>
        <time>2009-03-11T11:53:08Z</time>
      </trkpt>
      <trkpt lat="43.77825" lon="7.03975">
        <ele>1033.6</ele>
        <time>2009-03-11T11:53:15Z</time>
      </trkpt>
      <trkpt lat="43.77854" lon="7.03981">
        <ele>1035</ele>
        <time>2009-03-11T11:53:25Z</time>
      </trkpt>
      <trkpt lat="43.77881" lon="7.0399">
        <ele>1036.9</ele>
        <time>2009-03-11T11:53:36Z</time>
      </trkpt>
      <trkpt lat="43.77909" lon="7.03995">
        <ele>1038.4</ele>
        <time>2009-03-11T11:53:45Z</time>
      </trkpt>
      <trkpt lat="43.77938" lon="7.03996">
        <ele>1037.9</ele>
        <time>2009-03-11T11:53:54Z</time>
      </trkpt>
      <trkpt lat="43.77963" lon="7.04002">
        <ele>1037.4</ele>
        <time>2009-03-11T11:54:02Z</time>
      </trkpt>
      <trkpt lat="43.77992" lon="7.04005">
        <ele>1037.4</ele>
        <time>2009-03-11T11:54:10Z</time>
      </trkpt>
      <trkpt lat="43.78022" lon="7.03998">
        <ele>1039.3</ele>
        <time>2009-03-11T11:54:18Z</time>
      </trkpt>
      <trkpt lat="43.7805" lon="7.03997">
        <ele>1039.8</ele>
        <time>2009-03-11T11:54:26Z</time>
      </trkpt>
      <trkpt lat="43.78076" lon="7.04013">
        <ele>1039.3</ele>
        <time>2009-03-11T11:54:33Z</time>
      </trkpt>
      <trkpt lat="43.781" lon="7.04036">
        <ele>1036.4</ele>
        <time>2009-03-11T11:54:40Z</time>
      </trkpt>
      <trkpt lat="43.78131" lon="7.04035">
        <ele>1034</ele>
        <time>2009-03-11T11:54:47Z</time>
      </trkpt>
      <trkpt lat="43.78158" lon="7.04032">
        <ele>1035</ele>
        <time>2009-03-11T11:54:52Z</time>
      </trkpt>
      <trkpt lat="43.78185" lon="7.04051">
        <ele>1034</ele>
        <time>2009-03-11T11:54:59Z</time>
      </trkpt>
      <trkpt lat="43.78216" lon="7.04065">
        <ele>1030.2</ele>
        <time>2009-03-11T11:55:05Z</time>
      </trkpt>
      <trkpt lat="43.78238" lon="7.04091">
        <ele>1027.3</ele>
        <time>2009-03-11T11:55:09Z</time>
      </trkpt>
      <trkpt lat="43.78256" lon="7.0413">
        <ele>1027.3</ele>
        <time>2009-03-11T11:55:13Z</time>
      </trkpt>
      <trkpt lat="43.7827" lon="7.04172">
        <ele>1028.7</ele>
        <time>2009-03-11T11:55:17Z</time>
      </trkpt>
      <trkpt lat="43.78281" lon="7.04211">
        <ele>1025.9</ele>
        <time>2009-03-11T11:55:21Z</time>
      </trkpt>
      <trkpt lat="43.7829" lon="7.04189">
        <ele>1022.5</ele>
        <time>2009-03-11T11:55:27Z</time>
      </trkpt>
      <trkpt lat="43.7828" lon="7.04145">
        <ele>1020.6</ele>
        <time>2009-03-11T11:55:32Z</time>
      </trkpt>
      <trkpt lat="43.78283" lon="7.04102">
        <ele>1017.7</ele>
        <time>2009-03-11T11:55:36Z</time>
      </trkpt>
      <trkpt lat="43.78293" lon="7.04064">
        <ele>1015.8</ele>
        <time>2009-03-11T11:55:40Z</time>
      </trkpt>
      <trkpt lat="43.78321" lon="7.04055">
        <ele>1013.8</ele>
        <time>2009-03-11T11:55:45Z</time>
      </trkpt>
      <trkpt lat="43.78351" lon="7.0406">
        <ele>1011</ele>
        <time>2009-03-11T11:55:49Z</time>
      </trkpt>
      <trkpt lat="43.78384" lon="7.04049">
        <ele>1007.6</ele>
        <time>2009-03-11T11:55:53Z</time>
      </trkpt>
      <trkpt lat="43.78411" lon="7.0404">
        <ele>1005.7</ele>
        <time>2009-03-11T11:55:56Z</time>
      </trkpt>
      <trkpt lat="43.78439" lon="7.04022">
        <ele>1004.7</ele>
        <time>2009-03-11T11:56:00Z</time>
      </trkpt>
      <trkpt lat="43.78447" lon="7.03982">
        <ele>1003.8</ele>
        <time>2009-03-11T11:56:04Z</time>
      </trkpt>
      <trkpt lat="43.78471" lon="7.03967">
        <ele>1003.3</ele>
        <time>2009-03-11T11:56:08Z</time>
      </trkpt>
      <trkpt lat="43.78504" lon="7.03965">
        <ele>1001.4</ele>
        <time>2009-03-11T11:56:12Z</time>
      </trkpt>
      <trkpt lat="43.78533" lon="7.03955">
        <ele>998.9</ele>
        <time>2009-03-11T11:56:16Z</time>
      </trkpt>
      <trkpt lat="43.7855" lon="7.0392">
        <ele>997</ele>
        <time>2009-03-11T11:56:20Z</time>
      </trkpt>
      <trkpt lat="43.78563" lon="7.03877">
        <ele>994.1</ele>
        <time>2009-03-11T11:56:24Z</time>
      </trkpt>
      <trkpt lat="43.78556" lon="7.03829">
        <ele>991.3</ele>
        <time>2009-03-11T11:56:28Z</time>
      </trkpt>
      <trkpt lat="43.7855" lon="7.03791">
        <ele>988.4</ele>
        <time>2009-03-11T11:56:33Z</time>
      </trkpt>
      <trkpt lat="43.78572" lon="7.03767">
        <ele>986</ele>
        <time>2009-03-11T11:56:37Z</time>
      </trkpt>
      <trkpt lat="43.78601" lon="7.03764">
        <ele>986.4</ele>
        <time>2009-03-11T11:56:41Z</time>
      </trkpt>
      <trkpt lat="43.7862" lon="7.03799">
        <ele>983.1</ele>
        <time>2009-03-11T11:56:46Z</time>
      </trkpt>
      <trkpt lat="43.78651" lon="7.03783">
        <ele>980.2</ele>
        <time>2009-03-11T11:56:51Z</time>
      </trkpt>
      <trkpt lat="43.78679" lon="7.03762">
        <ele>979.2</ele>
        <time>2009-03-11T11:56:55Z</time>
      </trkpt>
      <trkpt lat="43.78696" lon="7.03722">
        <ele>975.9</ele>
        <time>2009-03-11T11:56:59Z</time>
      </trkpt>
      <trkpt lat="43.78705" lon="7.03673">
        <ele>973</ele>
        <time>2009-03-11T11:57:03Z</time>
      </trkpt>
      <trkpt lat="43.78712" lon="7.03634">
        <ele>971.5</ele>
        <time>2009-03-11T11:57:06Z</time>
      </trkpt>
      <trkpt lat="43.7872" lon="7.03593">
        <ele>970.1</ele>
        <time>2009-03-11T11:57:09Z</time>
      </trkpt>
      <trkpt lat="43.78729" lon="7.03553">
        <ele>968.2</ele>
        <time>2009-03-11T11:57:12Z</time>
      </trkpt>
      <trkpt lat="43.78747" lon="7.03521">
        <ele>967.2</ele>
        <time>2009-03-11T11:57:15Z</time>
      </trkpt>
      <trkpt lat="43.7877" lon="7.03488">
        <ele>967.7</ele>
        <time>2009-03-11T11:57:19Z</time>
      </trkpt>
      <trkpt lat="43.78793" lon="7.03462">
        <ele>968.2</ele>
        <time>2009-03-11T11:57:23Z</time>
      </trkpt>
      <trkpt lat="43.78819" lon="7.03442">
        <ele>969.6</ele>
        <time>2009-03-11T11:57:28Z</time>
      </trkpt>
      <trkpt lat="43.78845" lon="7.03438">
        <ele>968.2</ele>
        <time>2009-03-11T11:57:37Z</time>
      </trkpt>
      <trkpt lat="43.78868" lon="7.03458">
        <ele>966.3</ele>
        <time>2009-03-11T11:58:08Z</time>
      </trkpt>
      <trkpt lat="43.78897" lon="7.03454">
        <ele>968.2</ele>
        <time>2009-03-11T12:00:33Z</time>
      </trkpt>
      <trkpt lat="43.78924" lon="7.03436">
        <ele>965.8</ele>
        <time>2009-03-11T12:00:40Z</time>
      </trkpt>
      <trkpt lat="43.78949" lon="7.03411">
        <ele>963.9</ele>
        <time>2009-03-11T12:00:45Z</time>
      </trkpt>
      <trkpt lat="43.78972" lon="7.03381">
        <ele>961</ele>
        <time>2009-03-11T12:00:50Z</time>
      </trkpt>
      <trkpt lat="43.78997" lon="7.0336">
        <ele>958.6</ele>
        <time>2009-03-11T12:00:55Z</time>
      </trkpt>
      <trkpt lat="43.7902" lon="7.03335">
        <ele>956.2</ele>
        <time>2009-03-11T12:00:59Z</time>
      </trkpt>
      <trkpt lat="43.79041" lon="7.03327">
        <ele>953.3</ele>
        <time>2009-03-11T12:01:05Z</time>
      </trkpt>
      <trkpt lat="43.79023" lon="7.03361">
        <ele>951.8</ele>
        <time>2009-03-11T12:01:10Z</time>
      </trkpt>
      <trkpt lat="43.79008" lon="7.03396">
        <ele>949</ele>
        <time>2009-03-11T12:01:14Z</time>
      </trkpt>
      <trkpt lat="43.78993" lon="7.03437">
        <ele>946.1</ele>
        <time>2009-03-11T12:01:18Z</time>
      </trkpt>
      <trkpt lat="43.78984" lon="7.03481">
        <ele>943.2</ele>
        <time>2009-03-11T12:01:22Z</time>
      </trkpt>
      <trkpt lat="43.78985" lon="7.03533">
        <ele>939.8</ele>
        <time>2009-03-11T12:01:26Z</time>
      </trkpt>
      <trkpt lat="43.78974" lon="7.0357">
        <ele>936.9</ele>
        <time>2009-03-11T12:01:29Z</time>
      </trkpt>
      <trkpt lat="43.7897" lon="7.03607">
        <ele>934.5</ele>
        <time>2009-03-11T12:01:32Z</time>
      </trkpt>
      <trkpt lat="43.78968" lon="7.03647">
        <ele>931.2</ele>
        <time>2009-03-11T12:01:36Z</time>
      </trkpt>
      <trkpt lat="43.78981" lon="7.03677">
        <ele>930.7</ele>
        <time>2009-03-11T12:01:41Z</time>
      </trkpt>
      <trkpt lat="43.79009" lon="7.03689">
        <ele>928.8</ele>
        <time>2009-03-11T12:01:46Z</time>
      </trkpt>
      <trkpt lat="43.79037" lon="7.03698">
        <ele>928.8</ele>
        <time>2009-03-11T12:01:51Z</time>
      </trkpt>
      <trkpt lat="43.79064" lon="7.03688">
        <ele>933.6</ele>
        <time>2009-03-11T12:01:59Z</time>
      </trkpt>
      <trkpt lat="43.7909" lon="7.03671">
        <ele>939.3</ele>
        <time>2009-03-11T12:02:13Z</time>
      </trkpt>
      <trkpt lat="43.79117" lon="7.03666">
        <ele>944.6</ele>
        <time>2009-03-11T12:02:29Z</time>
      </trkpt>
      <trkpt lat="43.79145" lon="7.03665">
        <ele>952.8</ele>
        <time>2009-03-11T12:02:44Z</time>
      </trkpt>
      <trkpt lat="43.79172" lon="7.03673">
        <ele>954.2</ele>
        <time>2009-03-11T12:02:57Z</time>
      </trkpt>
      <trkpt lat="43.79204" lon="7.03691">
        <ele>950.4</ele>
        <time>2009-03-11T12:07:49Z</time>
      </trkpt>
      <trkpt lat="43.79228" lon="7.03691">
        <ele>952.3</ele>
        <time>2009-03-11T12:08:07Z</time>
      </trkpt>
      <trkpt lat="43.79255" lon="7.0369">
        <ele>955.2</ele>
        <time>2009-03-11T12:08:21Z</time>
      </trkpt>
      <trkpt lat="43.79282" lon="7.03687">
        <ele>955.7</ele>
        <time>2009-03-11T12:08:34Z</time>
      </trkpt>
      <trkpt lat="43.7931" lon="7.03698">
        <ele>949.9</ele>
        <time>2009-03-11T12:08:45Z</time>
      </trkpt>
      <trkpt lat="43.79337" lon="7.03704">
        <ele>947.5</ele>
        <time>2009-03-11T12:08:51Z</time>
      </trkpt>
      <trkpt lat="43.79346" lon="7.03657">
        <ele>943.7</ele>
        <time>2009-03-11T12:08:56Z</time>
      </trkpt>
      <trkpt lat="43.79352" lon="7.03615">
        <ele>946.1</ele>
        <time>2009-03-11T12:09:00Z</time>
      </trkpt>
      <trkpt lat="43.79366" lon="7.03575">
        <ele>945.6</ele>
        <time>2009-03-11T12:09:05Z</time>
      </trkpt>
      <trkpt lat="43.79374" lon="7.03533">
        <ele>944.6</ele>
        <time>2009-03-11T12:09:11Z</time>
      </trkpt>
      <trkpt lat="43.79351" lon="7.03513">
        <ele>945.1</ele>
        <time>2009-03-11T12:09:18Z</time>
      </trkpt>
      <trkpt lat="43.79354" lon="7.03485">
        <ele>948</ele>
        <time>2009-03-11T12:09:33Z</time>
      </trkpt>
      <trkpt lat="43.79361" lon="7.03448">
        <ele>949.9</ele>
        <time>2009-03-11T12:09:46Z</time>
      </trkpt>
      <trkpt lat="43.79362" lon="7.03408">
        <ele>954.7</ele>
        <time>2009-03-11T12:10:01Z</time>
      </trkpt>
      <trkpt lat="43.79345" lon="7.03381">
        <ele>957.6</ele>
        <time>2009-03-11T12:10:15Z</time>
      </trkpt>
      <trkpt lat="43.79341" lon="7.03343">
        <ele>956.6</ele>
        <time>2009-03-11T12:10:28Z</time>
      </trkpt>
      <trkpt lat="43.7934" lon="7.03302">
        <ele>956.2</ele>
        <time>2009-03-11T12:10:37Z</time>
      </trkpt>
      <trkpt lat="43.79337" lon="7.03264">
        <ele>956.2</ele>
        <time>2009-03-11T12:10:47Z</time>
      </trkpt>
      <trkpt lat="43.79338" lon="7.03223">
        <ele>957.1</ele>
        <time>2009-03-11T12:10:57Z</time>
      </trkpt>
      <trkpt lat="43.79347" lon="7.03184">
        <ele>958.1</ele>
        <time>2009-03-11T12:11:06Z</time>
      </trkpt>
      <trkpt lat="43.79345" lon="7.03143">
        <ele>958.6</ele>
        <time>2009-03-11T12:11:45Z</time>
      </trkpt>
      <trkpt lat="43.7933" lon="7.03107">
        <ele>958.6</ele>
        <time>2009-03-11T12:12:08Z</time>
      </trkpt>
      <trkpt lat="43.79328" lon="7.03071">
        <ele>956.2</ele>
        <time>2009-03-11T12:12:29Z</time>
      </trkpt>
      <trkpt lat="43.79336" lon="7.03035">
        <ele>957.1</ele>
        <time>2009-03-11T12:12:48Z</time>
      </trkpt>
      <trkpt lat="43.79341" lon="7.02991">
        <ele>956.2</ele>
        <time>2009-03-11T12:13:26Z</time>
      </trkpt>
      <trkpt lat="43.7935" lon="7.02955">
        <ele>961</ele>
        <time>2009-03-11T12:13:57Z</time>
      </trkpt>
      <trkpt lat="43.79356" lon="7.02916">
        <ele>962.9</ele>
        <time>2009-03-11T12:14:15Z</time>
      </trkpt>
      <trkpt lat="43.79358" lon="7.02881">
        <ele>967.2</ele>
        <time>2009-03-11T12:14:33Z</time>
      </trkpt>
      <trkpt lat="43.79363" lon="7.02843">
        <ele>966.3</ele>
        <time>2009-03-11T12:14:52Z</time>
      </trkpt>
      <trkpt lat="43.79357" lon="7.02805">
        <ele>964.3</ele>
        <time>2009-03-11T12:15:04Z</time>
      </trkpt>
      <trkpt lat="43.79351" lon="7.02768">
        <ele>961.9</ele>
        <time>2009-03-11T12:15:17Z</time>
      </trkpt>
      <trkpt lat="43.79345" lon="7.0273">
        <ele>960</ele>
        <time>2009-03-11T12:15:54Z</time>
      </trkpt>
      <trkpt lat="43.79336" lon="7.02694">
        <ele>962.4</ele>
        <time>2009-03-11T12:16:13Z</time>
      </trkpt>
      <trkpt lat="43.79329" lon="7.02658">
        <ele>965.8</ele>
        <time>2009-03-11T12:16:27Z</time>
      </trkpt>
      <trkpt lat="43.79333" lon="7.02619">
        <ele>966.3</ele>
        <time>2009-03-11T12:16:40Z</time>
      </trkpt>
      <trkpt lat="43.7935" lon="7.02587">
        <ele>964.3</ele>
        <time>2009-03-11T12:17:06Z</time>
      </trkpt>
      <trkpt lat="43.79362" lon="7.02557">
        <ele>963.4</ele>
        <time>2009-03-11T12:17:36Z</time>
      </trkpt>
      <trkpt lat="43.79371" lon="7.02522">
        <ele>963.4</ele>
        <time>2009-03-11T12:18:02Z</time>
      </trkpt>
      <trkpt lat="43.79384" lon="7.02491">
        <ele>969.1</ele>
        <time>2009-03-11T12:18:34Z</time>
      </trkpt>
      <trkpt lat="43.79358" lon="7.02484">
        <ele>978.3</ele>
        <time>2009-03-11T12:19:05Z</time>
      </trkpt>
      <trkpt lat="43.79348" lon="7.02454">
        <ele>977.3</ele>
        <time>2009-03-11T12:19:30Z</time>
      </trkpt>
      <trkpt lat="43.79353" lon="7.02473">
        <ele>976.8</ele>
        <time>2009-03-11T12:20:03Z</time>
      </trkpt>
      <trkpt lat="43.79373" lon="7.02491">
        <ele>970.6</ele>
        <time>2009-03-11T12:20:13Z</time>
      </trkpt>
      <trkpt lat="43.79397" lon="7.02474">
        <ele>966.7</ele>
        <time>2009-03-11T12:20:23Z</time>
      </trkpt>
      <trkpt lat="43.79411" lon="7.0244">
        <ele>967.7</ele>
        <time>2009-03-11T12:20:36Z</time>
      </trkpt>
      <trkpt lat="43.79422" lon="7.02405">
        <ele>969.6</ele>
        <time>2009-03-11T12:20:51Z</time>
      </trkpt>
      <trkpt lat="43.79432" lon="7.02369">
        <ele>972.5</ele>
        <time>2009-03-11T12:21:07Z</time>
      </trkpt>
      <trkpt lat="43.79446" lon="7.02339">
        <ele>977.3</ele>
        <time>2009-03-11T12:21:40Z</time>
      </trkpt>
      <trkpt lat="43.79441" lon="7.02303">
        <ele>983.1</ele>
        <time>2009-03-11T12:23:17Z</time>
      </trkpt>
      <trkpt lat="43.79448" lon="7.02265">
        <ele>988.4</ele>
        <time>2009-03-11T12:23:45Z</time>
      </trkpt>
      <trkpt lat="43.79441" lon="7.02214">
        <ele>993.2</ele>
        <time>2009-03-11T12:25:23Z</time>
      </trkpt>
      <trkpt lat="43.79434" lon="7.02159">
        <ele>1000.4</ele>
        <time>2009-03-11T12:27:09Z</time>
      </trkpt>
      <trkpt lat="43.79438" lon="7.02122">
        <ele>1010</ele>
        <time>2009-03-11T12:27:58Z</time>
      </trkpt>
      <trkpt lat="43.7944" lon="7.02084">
        <ele>1017.2</ele>
        <time>2009-03-11T12:28:33Z</time>
      </trkpt>
      <trkpt lat="43.79442" lon="7.02045">
        <ele>1017.7</ele>
        <time>2009-03-11T12:29:27Z</time>
      </trkpt>
      <trkpt lat="43.79446" lon="7.01949">
        <ele>1026.3</ele>
        <time>2009-03-11T12:32:40Z</time>
      </trkpt>
      <trkpt lat="43.79455" lon="7.0179">
        <ele>1049.4</ele>
        <time>2009-03-11T12:35:53Z</time>
      </trkpt>
      <trkpt lat="43.7947" lon="7.01754">
        <ele>1056.1</ele>
        <time>2009-03-11T12:37:32Z</time>
      </trkpt>
      <trkpt lat="43.79483" lon="7.01724">
        <ele>1061</ele>
        <time>2009-03-11T12:38:07Z</time>
      </trkpt>
      <trkpt lat="43.79503" lon="7.01705">
        <ele>1063.8</ele>
        <time>2009-03-11T12:38:41Z</time>
      </trkpt>
      <trkpt lat="43.79528" lon="7.01692">
        <ele>1069.1</ele>
        <time>2009-03-11T12:39:14Z</time>
      </trkpt>
      <trkpt lat="43.79537" lon="7.01656">
        <ele>1070.6</ele>
        <time>2009-03-11T12:39:47Z</time>
      </trkpt>
      <trkpt lat="43.79543" lon="7.01619">
        <ele>1070.6</ele>
        <time>2009-03-11T12:39:59Z</time>
      </trkpt>
      <trkpt lat="43.79552" lon="7.01582">
        <ele>1068.2</ele>
        <time>2009-03-11T12:40:08Z</time>
      </trkpt>
      <trkpt lat="43.79567" lon="7.01547">
        <ele>1068.6</ele>
        <time>2009-03-11T12:40:19Z</time>
      </trkpt>
      <trkpt lat="43.79589" lon="7.0152">
        <ele>1075.4</ele>
        <time>2009-03-11T12:40:49Z</time>
      </trkpt>
      <trkpt lat="43.79613" lon="7.01493">
        <ele>1080.7</ele>
        <time>2009-03-11T12:41:27Z</time>
      </trkpt>
      <trkpt lat="43.79641" lon="7.01456">
        <ele>1080.2</ele>
        <time>2009-03-11T12:42:20Z</time>
      </trkpt>
      <trkpt lat="43.79649" lon="7.01411">
        <ele>1082.6</ele>
        <time>2009-03-11T12:43:04Z</time>
      </trkpt>
      <trkpt lat="43.79659" lon="7.01373">
        <ele>1081.1</ele>
        <time>2009-03-11T12:43:20Z</time>
      </trkpt>
      <trkpt lat="43.79674" lon="7.01342">
        <ele>1082.1</ele>
        <time>2009-03-11T12:43:35Z</time>
      </trkpt>
      <trkpt lat="43.79689" lon="7.01307">
        <ele>1079.7</ele>
        <time>2009-03-11T12:43:49Z</time>
      </trkpt>
      <trkpt lat="43.79702" lon="7.01278">
        <ele>1083.1</ele>
        <time>2009-03-11T12:44:29Z</time>
      </trkpt>
      <trkpt lat="43.79711" lon="7.01239">
        <ele>1082.1</ele>
        <time>2009-03-11T12:44:41Z</time>
      </trkpt>
      <trkpt lat="43.79723" lon="7.01203">
        <ele>1081.1</ele>
        <time>2009-03-11T12:44:50Z</time>
      </trkpt>
      <trkpt lat="43.79741" lon="7.01185">
        <ele>1079.2</ele>
        <time>2009-03-11T12:46:01Z</time>
      </trkpt>
      <trkpt lat="43.79733" lon="7.01142">
        <ele>1078.7</ele>
        <time>2009-03-11T12:46:31Z</time>
      </trkpt>
      <trkpt lat="43.79722" lon="7.01104">
        <ele>1076.8</ele>
        <time>2009-03-11T12:46:39Z</time>
      </trkpt>
      <trkpt lat="43.79723" lon="7.01065">
        <ele>1077.3</ele>
        <time>2009-03-11T12:46:50Z</time>
      </trkpt>
      <trkpt lat="43.79734" lon="7.01028">
        <ele>1078.7</ele>
        <time>2009-03-11T12:47:04Z</time>
      </trkpt>
      <trkpt lat="43.79748" lon="7.00993">
        <ele>1076.8</ele>
        <time>2009-03-11T12:47:14Z</time>
      </trkpt>
      <trkpt lat="43.79743" lon="7.00966">
        <ele>1075.9</ele>
        <time>2009-03-11T12:47:52Z</time>
      </trkpt>
      <trkpt lat="43.79735" lon="7.0093">
        <ele>1072</ele>
        <time>2009-03-11T12:48:01Z</time>
      </trkpt>
      <trkpt lat="43.79742" lon="7.00894">
        <ele>1069.1</ele>
        <time>2009-03-11T12:48:10Z</time>
      </trkpt>
      <trkpt lat="43.79729" lon="7.00867">
        <ele>1061</ele>
        <time>2009-03-11T12:48:29Z</time>
      </trkpt>
      <trkpt lat="43.79725" lon="7.0083">
        <ele>1059</ele>
        <time>2009-03-11T12:48:38Z</time>
      </trkpt>
      <trkpt lat="43.79731" lon="7.00793">
        <ele>1058.1</ele>
        <time>2009-03-11T12:48:51Z</time>
      </trkpt>
      <trkpt lat="43.79738" lon="7.00756">
        <ele>1052.3</ele>
        <time>2009-03-11T12:49:01Z</time>
      </trkpt>
      <trkpt lat="43.79738" lon="7.00722">
        <ele>1044.6</ele>
        <time>2009-03-11T12:49:15Z</time>
      </trkpt>
      <trkpt lat="43.7975" lon="7.00687">
        <ele>1043.2</ele>
        <time>2009-03-11T12:49:23Z</time>
      </trkpt>
      <trkpt lat="43.79755" lon="7.00652">
        <ele>1048.5</ele>
        <time>2009-03-11T12:49:37Z</time>
      </trkpt>
      <trkpt lat="43.79754" lon="7.00611">
        <ele>1049.9</ele>
        <time>2009-03-11T12:50:01Z</time>
      </trkpt>
      <trkpt lat="43.79761" lon="7.00574">
        <ele>1037.4</ele>
        <time>2009-03-11T12:50:28Z</time>
      </trkpt>
      <trkpt lat="43.79784" lon="7.00528">
        <ele>1034</ele>
        <time>2009-03-11T12:51:54Z</time>
      </trkpt>
      <trkpt lat="43.7981" lon="7.00457">
        <ele>1038.4</ele>
        <time>2009-03-11T12:52:54Z</time>
      </trkpt>
      <trkpt lat="43.79822" lon="7.00396">
        <ele>1043.2</ele>
        <time>2009-03-11T12:53:26Z</time>
      </trkpt>
      <trkpt lat="43.79837" lon="7.00357">
        <ele>1042.7</ele>
        <time>2009-03-11T12:53:40Z</time>
      </trkpt>
      <trkpt lat="43.79847" lon="7.00317">
        <ele>1035</ele>
        <time>2009-03-11T12:54:08Z</time>
      </trkpt>
      <trkpt lat="43.79848" lon="7.00274">
        <ele>1023.5</ele>
        <time>2009-03-11T12:55:54Z</time>
      </trkpt>
      <trkpt lat="43.7983" lon="7.00255">
        <ele>1012.9</ele>
        <time>2009-03-11T12:56:19Z</time>
      </trkpt>
      <trkpt lat="43.79805" lon="7.00272">
        <ele>1005.2</ele>
        <time>2009-03-11T12:56:37Z</time>
      </trkpt>
      <trkpt lat="43.79812" lon="7.00227">
        <ele>998.5</ele>
        <time>2009-03-11T12:57:03Z</time>
      </trkpt>
      <trkpt lat="43.79837" lon="7.00198">
        <ele>990.8</ele>
        <time>2009-03-11T12:57:29Z</time>
      </trkpt>
      <trkpt lat="43.79825" lon="7.00171">
        <ele>980.2</ele>
        <time>2009-03-11T12:58:10Z</time>
      </trkpt>
      <trkpt lat="43.79821" lon="7.00146">
        <ele>975.4</ele>
        <time>2009-03-11T12:59:17Z</time>
      </trkpt>
      <trkpt lat="43.79791" lon="7.00147">
        <ele>967.7</ele>
        <time>2009-03-11T12:59:52Z</time>
      </trkpt>
      <trkpt lat="43.79793" lon="7.00101">
        <ele>963.9</ele>
        <time>2009-03-11T13:00:10Z</time>
      </trkpt>
      <trkpt lat="43.79795" lon="7.00064">
        <ele>951.4</ele>
        <time>2009-03-11T13:00:53Z</time>
      </trkpt>
      <trkpt lat="43.79793" lon="7.0003">
        <ele>942.2</ele>
        <time>2009-03-11T13:01:21Z</time>
      </trkpt>
      <trkpt lat="43.79794" lon="7.00001">
        <ele>932.1</ele>
        <time>2009-03-11T13:01:44Z</time>
      </trkpt>
      <trkpt lat="43.79798" lon="6.99942">
        <ele>936.9</ele>
        <time>2009-03-11T13:06:12Z</time>
      </trkpt>
      <trkpt lat="43.79794" lon="6.99896">
        <ele>932.6</ele>
        <time>2009-03-11T13:06:52Z</time>
      </trkpt>
      <trkpt lat="43.79799" lon="6.99855">
        <ele>926.8</ele>
        <time>2009-03-11T13:07:02Z</time>
      </trkpt>
      <trkpt lat="43.79807" lon="6.99816">
        <ele>918.2</ele>
        <time>2009-03-11T13:08:50Z</time>
      </trkpt>
      <trkpt lat="43.7981" lon="6.99774">
        <ele>909.5</ele>
        <time>2009-03-11T13:09:08Z</time>
      </trkpt>
      <trkpt lat="43.79826" lon="6.99725">
        <ele>909.5</ele>
        <time>2009-03-11T13:10:40Z</time>
      </trkpt>
      <trkpt lat="43.79844" lon="6.99687">
        <ele>911.5</ele>
        <time>2009-03-11T13:11:38Z</time>
      </trkpt>
      <trkpt lat="43.79854" lon="6.99648">
        <ele>921.6</ele>
        <time>2009-03-11T13:12:24Z</time>
      </trkpt>
      <trkpt lat="43.79866" lon="6.99618">
        <ele>921.6</ele>
        <time>2009-03-11T13:12:36Z</time>
      </trkpt>
      <trkpt lat="43.79858" lon="6.99584">
        <ele>922.5</ele>
        <time>2009-03-11T13:12:47Z</time>
      </trkpt>
      <trkpt lat="43.79858" lon="6.99549">
        <ele>925.9</ele>
        <time>2009-03-11T13:13:00Z</time>
      </trkpt>
      <trkpt lat="43.79863" lon="6.99513">
        <ele>931.2</ele>
        <time>2009-03-11T13:13:18Z</time>
      </trkpt>
      <trkpt lat="43.79863" lon="6.99475">
        <ele>933.6</ele>
        <time>2009-03-11T13:13:37Z</time>
      </trkpt>
      <trkpt lat="43.79864" lon="6.99433">
        <ele>937.4</ele>
        <time>2009-03-11T13:13:53Z</time>
      </trkpt>
      <trkpt lat="43.79849" lon="6.99398">
        <ele>936.9</ele>
        <time>2009-03-11T13:14:06Z</time>
      </trkpt>
      <trkpt lat="43.79844" lon="6.9936">
        <ele>935.5</ele>
        <time>2009-03-11T13:14:43Z</time>
      </trkpt>
      <trkpt lat="43.79839" lon="6.99317">
        <ele>938.4</ele>
        <time>2009-03-11T13:15:24Z</time>
      </trkpt>
      <trkpt lat="43.79831" lon="6.99281">
        <ele>939.8</ele>
        <time>2009-03-11T13:15:50Z</time>
      </trkpt>
      <trkpt lat="43.79829" lon="6.99244">
        <ele>941.7</ele>
        <time>2009-03-11T13:16:08Z</time>
      </trkpt>
      <trkpt lat="43.79827" lon="6.99209">
        <ele>940.3</ele>
        <time>2009-03-11T13:16:22Z</time>
      </trkpt>
      <trkpt lat="43.79831" lon="6.99169">
        <ele>934.1</ele>
        <time>2009-03-11T13:16:54Z</time>
      </trkpt>
      <trkpt lat="43.79833" lon="6.99131">
        <ele>931.2</ele>
        <time>2009-03-11T13:17:03Z</time>
      </trkpt>
      <trkpt lat="43.79833" lon="6.99096">
        <ele>925.9</ele>
        <time>2009-03-11T13:17:16Z</time>
      </trkpt>
      <trkpt lat="43.79841" lon="6.99061">
        <ele>924.9</ele>
        <time>2009-03-11T13:17:45Z</time>
      </trkpt>
      <trkpt lat="43.79861" lon="6.99035">
        <ele>924.9</ele>
        <time>2009-03-11T13:18:09Z</time>
      </trkpt>
      <trkpt lat="43.79861" lon="6.98999">
        <ele>923.5</ele>
        <time>2009-03-11T13:18:20Z</time>
      </trkpt>
      <trkpt lat="43.79876" lon="6.98965">
        <ele>920.1</ele>
        <time>2009-03-11T13:18:28Z</time>
      </trkpt>
      <trkpt lat="43.79884" lon="6.98926">
        <ele>915.3</ele>
        <time>2009-03-11T13:18:38Z</time>
      </trkpt>
      <trkpt lat="43.79887" lon="6.98898">
        <ele>915.3</ele>
        <time>2009-03-11T13:18:51Z</time>
      </trkpt>
      <trkpt lat="43.79891" lon="6.98859">
        <ele>915.3</ele>
        <time>2009-03-11T13:19:00Z</time>
      </trkpt>
      <trkpt lat="43.79896" lon="6.98822">
        <ele>916.8</ele>
        <time>2009-03-11T13:19:09Z</time>
      </trkpt>
      <trkpt lat="43.79902" lon="6.98785">
        <ele>910.5</ele>
        <time>2009-03-11T13:19:20Z</time>
      </trkpt>
      <trkpt lat="43.79906" lon="6.98747">
        <ele>907.6</ele>
        <time>2009-03-11T13:19:33Z</time>
      </trkpt>
      <trkpt lat="43.799" lon="6.98708">
        <ele>901.9</ele>
        <time>2009-03-11T13:19:43Z</time>
      </trkpt>
      <trkpt lat="43.799" lon="6.98667">
        <ele>897.5</ele>
        <time>2009-03-11T13:19:50Z</time>
      </trkpt>
      <trkpt lat="43.79881" lon="6.98645">
        <ele>893.2</ele>
        <time>2009-03-11T13:20:00Z</time>
      </trkpt>
      <trkpt lat="43.79857" lon="6.98628">
        <ele>893.2</ele>
        <time>2009-03-11T13:20:09Z</time>
      </trkpt>
      <trkpt lat="43.79835" lon="6.98603">
        <ele>891.8</ele>
        <time>2009-03-11T13:20:17Z</time>
      </trkpt>
      <trkpt lat="43.79821" lon="6.98571">
        <ele>888.9</ele>
        <time>2009-03-11T13:20:25Z</time>
      </trkpt>
      <trkpt lat="43.79814" lon="6.98535">
        <ele>885.5</ele>
        <time>2009-03-11T13:20:55Z</time>
      </trkpt>
      <trkpt lat="43.79802" lon="6.98496">
        <ele>883.6</ele>
        <time>2009-03-11T13:22:09Z</time>
      </trkpt>
      <trkpt lat="43.7978" lon="6.98464">
        <ele>875.4</ele>
        <time>2009-03-11T13:22:54Z</time>
      </trkpt>
      <trkpt lat="43.79758" lon="6.98435">
        <ele>869.6</ele>
        <time>2009-03-11T13:23:27Z</time>
      </trkpt>
      <trkpt lat="43.79735" lon="6.98417">
        <ele>863.9</ele>
        <time>2009-03-11T13:23:44Z</time>
      </trkpt>
      <trkpt lat="43.79717" lon="6.98412">
        <ele>858.1</ele>
        <time>2009-03-11T13:24:17Z</time>
      </trkpt>
      <trkpt lat="43.79699" lon="6.98386">
        <ele>849.5</ele>
        <time>2009-03-11T13:24:44Z</time>
      </trkpt>
      <trkpt lat="43.7971" lon="6.98353">
        <ele>843.2</ele>
        <time>2009-03-11T13:25:04Z</time>
      </trkpt>
      <trkpt lat="43.79718" lon="6.98314">
        <ele>842.7</ele>
        <time>2009-03-11T13:25:40Z</time>
      </trkpt>
      <trkpt lat="43.79713" lon="6.98269">
        <ele>832.6</ele>
        <time>2009-03-11T13:26:16Z</time>
      </trkpt>
      <trkpt lat="43.79713" lon="6.98224">
        <ele>831.7</ele>
        <time>2009-03-11T13:26:42Z</time>
      </trkpt>
      <trkpt lat="43.79706" lon="6.98185">
        <ele>827.8</ele>
        <time>2009-03-11T13:26:53Z</time>
      </trkpt>
      <trkpt lat="43.79698" lon="6.98153">
        <ele>821.6</ele>
        <time>2009-03-11T13:27:18Z</time>
      </trkpt>
      <trkpt lat="43.79702" lon="6.98113">
        <ele>811.5</ele>
        <time>2009-03-11T13:28:13Z</time>
      </trkpt>
      <trkpt lat="43.79677" lon="6.98122">
        <ele>805.7</ele>
        <time>2009-03-11T13:28:37Z</time>
      </trkpt>
      <trkpt lat="43.79652" lon="6.98137">
        <ele>797.6</ele>
        <time>2009-03-11T13:28:59Z</time>
      </trkpt>
      <trkpt lat="43.79623" lon="6.98149">
        <ele>791.8</ele>
        <time>2009-03-11T13:29:20Z</time>
      </trkpt>
      <trkpt lat="43.79602" lon="6.98135">
        <ele>789.4</ele>
        <time>2009-03-11T13:57:24Z</time>
      </trkpt>
      <trkpt lat="43.79588" lon="6.98099">
        <ele>784.1</ele>
        <time>2009-03-11T13:57:54Z</time>
      </trkpt>
      <trkpt lat="43.79569" lon="6.98068">
        <ele>783.6</ele>
        <time>2009-03-11T13:58:02Z</time>
      </trkpt>
      <trkpt lat="43.7954" lon="6.98051">
        <ele>780.7</ele>
        <time>2009-03-11T13:58:09Z</time>
      </trkpt>
      <trkpt lat="43.79513" lon="6.98058">
        <ele>774.5</ele>
        <time>2009-03-11T13:58:15Z</time>
      </trkpt>
      <trkpt lat="43.79507" lon="6.98101">
        <ele>768.7</ele>
        <time>2009-03-11T13:58:21Z</time>
      </trkpt>
      <trkpt lat="43.79513" lon="6.98139">
        <ele>765.8</ele>
        <time>2009-03-11T13:58:26Z</time>
      </trkpt>
      <trkpt lat="43.7953" lon="6.98177">
        <ele>762.5</ele>
        <time>2009-03-11T13:58:31Z</time>
      </trkpt>
      <trkpt lat="43.79549" lon="6.98215">
        <ele>758.6</ele>
        <time>2009-03-11T13:58:36Z</time>
      </trkpt>
      <trkpt lat="43.79544" lon="6.98255">
        <ele>755.7</ele>
        <time>2009-03-11T13:58:42Z</time>
      </trkpt>
      <trkpt lat="43.79529" lon="6.98287">
        <ele>754.3</ele>
        <time>2009-03-11T13:58:48Z</time>
      </trkpt>
      <trkpt lat="43.79521" lon="6.98324">
        <ele>753.3</ele>
        <time>2009-03-11T13:58:55Z</time>
      </trkpt>
      <trkpt lat="43.79518" lon="6.98338">
        <ele>757.2</ele>
        <time>2009-03-11T14:30:16Z</time>
      </trkpt>
      <trkpt lat="43.79521" lon="6.98298">
        <ele>752.8</ele>
        <time>2009-03-11T14:30:25Z</time>
      </trkpt>
      <trkpt lat="43.79521" lon="6.98258">
        <ele>752.8</ele>
        <time>2009-03-11T14:30:31Z</time>
      </trkpt>
      <trkpt lat="43.79515" lon="6.98216">
        <ele>753.8</ele>
        <time>2009-03-11T14:30:36Z</time>
      </trkpt>
      <trkpt lat="43.79497" lon="6.98178">
        <ele>750</ele>
        <time>2009-03-11T14:30:41Z</time>
      </trkpt>
      <trkpt lat="43.79479" lon="6.98146">
        <ele>745.6</ele>
        <time>2009-03-11T14:30:45Z</time>
      </trkpt>
      <trkpt lat="43.79468" lon="6.9811">
        <ele>742.8</ele>
        <time>2009-03-11T14:30:49Z</time>
      </trkpt>
      <trkpt lat="43.79467" lon="6.9807">
        <ele>741.8</ele>
        <time>2009-03-11T14:30:53Z</time>
      </trkpt>
      <trkpt lat="43.79474" lon="6.98028">
        <ele>737</ele>
        <time>2009-03-11T14:30:57Z</time>
      </trkpt>
      <trkpt lat="43.79491" lon="6.97988">
        <ele>731.7</ele>
        <time>2009-03-11T14:31:01Z</time>
      </trkpt>
      <trkpt lat="43.79517" lon="6.97956">
        <ele>729.8</ele>
        <time>2009-03-11T14:31:05Z</time>
      </trkpt>
      <trkpt lat="43.7955" lon="6.97944">
        <ele>728.3</ele>
        <time>2009-03-11T14:31:09Z</time>
      </trkpt>
      <trkpt lat="43.79582" lon="6.97927">
        <ele>725.9</ele>
        <time>2009-03-11T14:31:13Z</time>
      </trkpt>
      <trkpt lat="43.79611" lon="6.97899">
        <ele>723</ele>
        <time>2009-03-11T14:31:17Z</time>
      </trkpt>
      <trkpt lat="43.79644" lon="6.97892">
        <ele>720.2</ele>
        <time>2009-03-11T14:31:21Z</time>
      </trkpt>
      <trkpt lat="43.79642" lon="6.97853">
        <ele>719.7</ele>
        <time>2009-03-11T14:31:25Z</time>
      </trkpt>
      <trkpt lat="43.79634" lon="6.97805">
        <ele>720.2</ele>
        <time>2009-03-11T14:31:29Z</time>
      </trkpt>
      <trkpt lat="43.79612" lon="6.9777">
        <ele>718.2</ele>
        <time>2009-03-11T14:31:33Z</time>
      </trkpt>
      <trkpt lat="43.7959" lon="6.97744">
        <ele>715.4</ele>
        <time>2009-03-11T14:31:36Z</time>
      </trkpt>
      <trkpt lat="43.79577" lon="6.97707">
        <ele>713.9</ele>
        <time>2009-03-11T14:31:39Z</time>
      </trkpt>
      <trkpt lat="43.79569" lon="6.9767">
        <ele>713.4</ele>
        <time>2009-03-11T14:31:42Z</time>
      </trkpt>
      <trkpt lat="43.79562" lon="6.97632">
        <ele>713.4</ele>
        <time>2009-03-11T14:31:45Z</time>
      </trkpt>
      <trkpt lat="43.79555" lon="6.97592">
        <ele>712.5</ele>
        <time>2009-03-11T14:31:48Z</time>
      </trkpt>
      <trkpt lat="43.79554" lon="6.97552">
        <ele>711</ele>
        <time>2009-03-11T14:31:51Z</time>
      </trkpt>
      <trkpt lat="43.79555" lon="6.97513">
        <ele>708.1</ele>
        <time>2009-03-11T14:31:54Z</time>
      </trkpt>
      <trkpt lat="43.79559" lon="6.97474">
        <ele>706.7</ele>
        <time>2009-03-11T14:31:57Z</time>
      </trkpt>
      <trkpt lat="43.79568" lon="6.97438">
        <ele>705.3</ele>
        <time>2009-03-11T14:32:00Z</time>
      </trkpt>
      <trkpt lat="43.79575" lon="6.97402">
        <ele>703.8</ele>
        <time>2009-03-11T14:32:03Z</time>
      </trkpt>
      <trkpt lat="43.79577" lon="6.97363">
        <ele>701.9</ele>
        <time>2009-03-11T14:32:06Z</time>
      </trkpt>
      <trkpt lat="43.79579" lon="6.97325">
        <ele>700.5</ele>
        <time>2009-03-11T14:32:09Z</time>
      </trkpt>
      <trkpt lat="43.79568" lon="6.97277">
        <ele>699.5</ele>
        <time>2009-03-11T14:32:13Z</time>
      </trkpt>
      <trkpt lat="43.79563" lon="6.97235">
        <ele>699</ele>
        <time>2009-03-11T14:32:16Z</time>
      </trkpt>
      <trkpt lat="43.79569" lon="6.97196">
        <ele>695.2</ele>
        <time>2009-03-11T14:32:19Z</time>
      </trkpt>
      <trkpt lat="43.79578" lon="6.97157">
        <ele>693.7</ele>
        <time>2009-03-11T14:32:22Z</time>
      </trkpt>
      <trkpt lat="43.79586" lon="6.9711">
        <ele>689.9</ele>
        <time>2009-03-11T14:32:26Z</time>
      </trkpt>
      <trkpt lat="43.79577" lon="6.97066">
        <ele>688.9</ele>
        <time>2009-03-11T14:32:30Z</time>
      </trkpt>
      <trkpt lat="43.79552" lon="6.97034">
        <ele>686.5</ele>
        <time>2009-03-11T14:32:34Z</time>
      </trkpt>
      <trkpt lat="43.79552" lon="6.96987">
        <ele>683.2</ele>
        <time>2009-03-11T14:32:38Z</time>
      </trkpt>
      <trkpt lat="43.79557" lon="6.96952">
        <ele>681.7</ele>
        <time>2009-03-11T14:32:41Z</time>
      </trkpt>
      <trkpt lat="43.79533" lon="6.96923">
        <ele>678.8</ele>
        <time>2009-03-11T14:32:45Z</time>
      </trkpt>
      <trkpt lat="43.79499" lon="6.96914">
        <ele>675</ele>
        <time>2009-03-11T14:32:49Z</time>
      </trkpt>
      <trkpt lat="43.79466" lon="6.96913">
        <ele>675.5</ele>
        <time>2009-03-11T14:32:52Z</time>
      </trkpt>
      <trkpt lat="43.79439" lon="6.96901">
        <ele>673.5</ele>
        <time>2009-03-11T14:32:55Z</time>
      </trkpt>
      <trkpt lat="43.79432" lon="6.96858">
        <ele>672.6</ele>
        <time>2009-03-11T14:32:59Z</time>
      </trkpt>
      <trkpt lat="43.79414" lon="6.96836">
        <ele>672.1</ele>
        <time>2009-03-11T14:33:04Z</time>
      </trkpt>
      <trkpt lat="43.79409" lon="6.96876">
        <ele>671.6</ele>
        <time>2009-03-11T14:33:09Z</time>
      </trkpt>
      <trkpt lat="43.79425" lon="6.96911">
        <ele>669.7</ele>
        <time>2009-03-11T14:33:13Z</time>
      </trkpt>
      <trkpt lat="43.79454" lon="6.96932">
        <ele>668.3</ele>
        <time>2009-03-11T14:33:17Z</time>
      </trkpt>
      <trkpt lat="43.79479" lon="6.96961">
        <ele>666.3</ele>
        <time>2009-03-11T14:33:21Z</time>
      </trkpt>
      <trkpt lat="43.79465" lon="6.97005">
        <ele>666.3</ele>
        <time>2009-03-11T14:33:25Z</time>
      </trkpt>
      <trkpt lat="43.79451" lon="6.9704">
        <ele>662</ele>
        <time>2009-03-11T14:33:28Z</time>
      </trkpt>
      <trkpt lat="43.79445" lon="6.97081">
        <ele>656.7</ele>
        <time>2009-03-11T14:33:31Z</time>
      </trkpt>
      <trkpt lat="43.79443" lon="6.97125">
        <ele>653.4</ele>
        <time>2009-03-11T14:33:34Z</time>
      </trkpt>
      <trkpt lat="43.79424" lon="6.97164">
        <ele>650.9</ele>
        <time>2009-03-11T14:33:37Z</time>
      </trkpt>
      <trkpt lat="43.79415" lon="6.97207">
        <ele>647.1</ele>
        <time>2009-03-11T14:33:40Z</time>
      </trkpt>
      <trkpt lat="43.79407" lon="6.9725">
        <ele>643.7</ele>
        <time>2009-03-11T14:33:43Z</time>
      </trkpt>
      <trkpt lat="43.79401" lon="6.97294">
        <ele>640.9</ele>
        <time>2009-03-11T14:33:46Z</time>
      </trkpt>
      <trkpt lat="43.79396" lon="6.97337">
        <ele>638</ele>
        <time>2009-03-11T14:33:49Z</time>
      </trkpt>
      <trkpt lat="43.794" lon="6.97382">
        <ele>636</ele>
        <time>2009-03-11T14:33:52Z</time>
      </trkpt>
      <trkpt lat="43.79403" lon="6.97423">
        <ele>635.1</ele>
        <time>2009-03-11T14:33:55Z</time>
      </trkpt>
      <trkpt lat="43.7939" lon="6.97454">
        <ele>634.1</ele>
        <time>2009-03-11T14:33:58Z</time>
      </trkpt>
      <trkpt lat="43.79364" lon="6.97463">
        <ele>633.6</ele>
        <time>2009-03-11T14:34:01Z</time>
      </trkpt>
      <trkpt lat="43.79332" lon="6.97446">
        <ele>632.2</ele>
        <time>2009-03-11T14:34:05Z</time>
      </trkpt>
      <trkpt lat="43.79303" lon="6.97427">
        <ele>631.7</ele>
        <time>2009-03-11T14:34:09Z</time>
      </trkpt>
      <trkpt lat="43.79271" lon="6.97401">
        <ele>630.3</ele>
        <time>2009-03-11T14:34:13Z</time>
      </trkpt>
      <trkpt lat="43.79248" lon="6.97378">
        <ele>628.8</ele>
        <time>2009-03-11T14:34:16Z</time>
      </trkpt>
      <trkpt lat="43.79227" lon="6.97342">
        <ele>626.9</ele>
        <time>2009-03-11T14:34:19Z</time>
      </trkpt>
      <trkpt lat="43.7921" lon="6.97303">
        <ele>624.5</ele>
        <time>2009-03-11T14:34:22Z</time>
      </trkpt>
      <trkpt lat="43.79189" lon="6.97276">
        <ele>622.1</ele>
        <time>2009-03-11T14:34:25Z</time>
      </trkpt>
      <trkpt lat="43.79161" lon="6.97253">
        <ele>621.6</ele>
        <time>2009-03-11T14:34:28Z</time>
      </trkpt>
      <trkpt lat="43.79147" lon="6.97215">
        <ele>618.3</ele>
        <time>2009-03-11T14:34:31Z</time>
      </trkpt>
      <trkpt lat="43.79126" lon="6.97183">
        <ele>616.3</ele>
        <time>2009-03-11T14:34:34Z</time>
      </trkpt>
      <trkpt lat="43.79098" lon="6.97163">
        <ele>613.9</ele>
        <time>2009-03-11T14:34:37Z</time>
      </trkpt>
      <trkpt lat="43.79067" lon="6.97143">
        <ele>612.5</ele>
        <time>2009-03-11T14:34:40Z</time>
      </trkpt>
      <trkpt lat="43.79043" lon="6.97108">
        <ele>611.1</ele>
        <time>2009-03-11T14:34:43Z</time>
      </trkpt>
      <trkpt lat="43.7904" lon="6.97065">
        <ele>611.1</ele>
        <time>2009-03-11T14:34:46Z</time>
      </trkpt>
      <trkpt lat="43.79053" lon="6.97023">
        <ele>607.7</ele>
        <time>2009-03-11T14:34:49Z</time>
      </trkpt>
      <trkpt lat="43.79039" lon="6.96992">
        <ele>601</ele>
        <time>2009-03-11T14:34:53Z</time>
      </trkpt>
      <trkpt lat="43.79016" lon="6.97018">
        <ele>597.1</ele>
        <time>2009-03-11T14:34:57Z</time>
      </trkpt>
      <trkpt lat="43.78991" lon="6.9705">
        <ele>593.3</ele>
        <time>2009-03-11T14:35:01Z</time>
      </trkpt>
      <trkpt lat="43.78966" lon="6.97067">
        <ele>589.9</ele>
        <time>2009-03-11T14:35:04Z</time>
      </trkpt>
      <trkpt lat="43.78936" lon="6.9707">
        <ele>587.5</ele>
        <time>2009-03-11T14:35:07Z</time>
      </trkpt>
      <trkpt lat="43.78903" lon="6.97068">
        <ele>584.6</ele>
        <time>2009-03-11T14:35:10Z</time>
      </trkpt>
      <trkpt lat="43.78877" lon="6.9709">
        <ele>580.3</ele>
        <time>2009-03-11T14:35:13Z</time>
      </trkpt>
      <trkpt lat="43.78859" lon="6.97126">
        <ele>577.9</ele>
        <time>2009-03-11T14:35:16Z</time>
      </trkpt>
      <trkpt lat="43.78851" lon="6.97168">
        <ele>574.5</ele>
        <time>2009-03-11T14:35:19Z</time>
      </trkpt>
      <trkpt lat="43.78844" lon="6.97212">
        <ele>571.6</ele>
        <time>2009-03-11T14:35:22Z</time>
      </trkpt>
      <trkpt lat="43.7883" lon="6.97256">
        <ele>568.8</ele>
        <time>2009-03-11T14:35:25Z</time>
      </trkpt>
      <trkpt lat="43.78806" lon="6.97294">
        <ele>565.9</ele>
        <time>2009-03-11T14:35:28Z</time>
      </trkpt>
      <trkpt lat="43.7878" lon="6.97325">
        <ele>563</ele>
        <time>2009-03-11T14:35:31Z</time>
      </trkpt>
      <trkpt lat="43.78753" lon="6.97352">
        <ele>559.6</ele>
        <time>2009-03-11T14:35:34Z</time>
      </trkpt>
      <trkpt lat="43.78724" lon="6.97371">
        <ele>556.7</ele>
        <time>2009-03-11T14:35:37Z</time>
      </trkpt>
      <trkpt lat="43.78697" lon="6.97387">
        <ele>555.8</ele>
        <time>2009-03-11T14:35:40Z</time>
      </trkpt>
      <trkpt lat="43.7867" lon="6.97398">
        <ele>557.2</ele>
        <time>2009-03-11T14:35:43Z</time>
      </trkpt>
      <trkpt lat="43.78637" lon="6.9742">
        <ele>554.8</ele>
        <time>2009-03-11T14:35:47Z</time>
      </trkpt>
      <trkpt lat="43.78604" lon="6.97432">
        <ele>553.9</ele>
        <time>2009-03-11T14:35:51Z</time>
      </trkpt>
      <trkpt lat="43.78572" lon="6.97437">
        <ele>552.4</ele>
        <time>2009-03-11T14:35:55Z</time>
      </trkpt>
      <trkpt lat="43.78544" lon="6.97455">
        <ele>552.4</ele>
        <time>2009-03-11T14:35:59Z</time>
      </trkpt>
      <trkpt lat="43.7852" lon="6.97477">
        <ele>551</ele>
        <time>2009-03-11T14:36:03Z</time>
      </trkpt>
      <trkpt lat="43.78495" lon="6.97496">
        <ele>550</ele>
        <time>2009-03-11T14:36:07Z</time>
      </trkpt>
      <trkpt lat="43.78469" lon="6.97514">
        <ele>549.5</ele>
        <time>2009-03-11T14:36:11Z</time>
      </trkpt>
      <trkpt lat="43.78441" lon="6.97525">
        <ele>550.5</ele>
        <time>2009-03-11T14:36:15Z</time>
      </trkpt>
      <trkpt lat="43.78413" lon="6.97542">
        <ele>550</ele>
        <time>2009-03-11T14:36:19Z</time>
      </trkpt>
      <trkpt lat="43.78386" lon="6.97558">
        <ele>549.1</ele>
        <time>2009-03-11T14:36:23Z</time>
      </trkpt>
      <trkpt lat="43.78357" lon="6.97568">
        <ele>545.2</ele>
        <time>2009-03-11T14:36:27Z</time>
      </trkpt>
      <trkpt lat="43.78329" lon="6.97574">
        <ele>547.6</ele>
        <time>2009-03-11T14:36:31Z</time>
      </trkpt>
      <trkpt lat="43.78304" lon="6.97592">
        <ele>547.6</ele>
        <time>2009-03-11T14:36:35Z</time>
      </trkpt>
      <trkpt lat="43.78281" lon="6.97616">
        <ele>547.1</ele>
        <time>2009-03-11T14:36:39Z</time>
      </trkpt>
      <trkpt lat="43.78258" lon="6.97638">
        <ele>547.6</ele>
        <time>2009-03-11T14:36:43Z</time>
      </trkpt>
      <trkpt lat="43.78234" lon="6.97657">
        <ele>547.6</ele>
        <time>2009-03-11T14:36:47Z</time>
      </trkpt>
      <trkpt lat="43.7821" lon="6.97677">
        <ele>546.6</ele>
        <time>2009-03-11T14:36:51Z</time>
      </trkpt>
      <trkpt lat="43.78186" lon="6.97699">
        <ele>546.2</ele>
        <time>2009-03-11T14:36:55Z</time>
      </trkpt>
      <trkpt lat="43.78161" lon="6.97719">
        <ele>545.7</ele>
        <time>2009-03-11T14:36:59Z</time>
      </trkpt>
      <trkpt lat="43.78132" lon="6.97723">
        <ele>545.7</ele>
        <time>2009-03-11T14:37:03Z</time>
      </trkpt>
      <trkpt lat="43.78105" lon="6.97721">
        <ele>544.2</ele>
        <time>2009-03-11T14:37:07Z</time>
      </trkpt>
      <trkpt lat="43.78078" lon="6.9772">
        <ele>543.3</ele>
        <time>2009-03-11T14:37:11Z</time>
      </trkpt>
      <trkpt lat="43.7805" lon="6.97728">
        <ele>541.4</ele>
        <time>2009-03-11T14:37:15Z</time>
      </trkpt>
      <trkpt lat="43.78025" lon="6.97744">
        <ele>541.4</ele>
        <time>2009-03-11T14:37:19Z</time>
      </trkpt>
      <trkpt lat="43.78002" lon="6.97764">
        <ele>540.9</ele>
        <time>2009-03-11T14:37:23Z</time>
      </trkpt>
      <trkpt lat="43.77976" lon="6.97782">
        <ele>540.4</ele>
        <time>2009-03-11T14:37:27Z</time>
      </trkpt>
      <trkpt lat="43.77949" lon="6.97779">
        <ele>539</ele>
        <time>2009-03-11T14:37:31Z</time>
      </trkpt>
      <trkpt lat="43.77918" lon="6.97767">
        <ele>537.5</ele>
        <time>2009-03-11T14:37:36Z</time>
      </trkpt>
      <trkpt lat="43.77887" lon="6.97778">
        <ele>537.5</ele>
        <time>2009-03-11T14:37:41Z</time>
      </trkpt>
      <trkpt lat="43.7786" lon="6.97802">
        <ele>537.5</ele>
        <time>2009-03-11T14:37:46Z</time>
      </trkpt>
      <trkpt lat="43.77836" lon="6.97832">
        <ele>537</ele>
        <time>2009-03-11T14:37:51Z</time>
      </trkpt>
      <trkpt lat="43.77807" lon="6.97856">
        <ele>536.1</ele>
        <time>2009-03-11T14:37:56Z</time>
      </trkpt>
      <trkpt lat="43.77784" lon="6.97874">
        <ele>533.2</ele>
        <time>2009-03-11T14:38:00Z</time>
      </trkpt>
      <trkpt lat="43.77763" lon="6.97909">
        <ele>531.7</ele>
        <time>2009-03-11T14:38:05Z</time>
      </trkpt>
      <trkpt lat="43.77746" lon="6.97938">
        <ele>530.3</ele>
        <time>2009-03-11T14:38:09Z</time>
      </trkpt>
      <trkpt lat="43.77726" lon="6.97966">
        <ele>529.3</ele>
        <time>2009-03-11T14:38:13Z</time>
      </trkpt>
      <trkpt lat="43.77703" lon="6.9799">
        <ele>528.9</ele>
        <time>2009-03-11T14:38:17Z</time>
      </trkpt>
      <trkpt lat="43.77676" lon="6.98006">
        <ele>527.9</ele>
        <time>2009-03-11T14:38:21Z</time>
      </trkpt>
      <trkpt lat="43.7765" lon="6.98022">
        <ele>526.9</ele>
        <time>2009-03-11T14:38:25Z</time>
      </trkpt>
      <trkpt lat="43.77625" lon="6.9804">
        <ele>526.5</ele>
        <time>2009-03-11T14:38:29Z</time>
      </trkpt>
      <trkpt lat="43.77602" lon="6.98061">
        <ele>524.1</ele>
        <time>2009-03-11T14:38:33Z</time>
      </trkpt>
      <trkpt lat="43.77581" lon="6.98086">
        <ele>524.5</ele>
        <time>2009-03-11T14:38:37Z</time>
      </trkpt>
      <trkpt lat="43.7756" lon="6.98115">
        <ele>524.1</ele>
        <time>2009-03-11T14:38:41Z</time>
      </trkpt>
      <trkpt lat="43.77544" lon="6.98147">
        <ele>523.1</ele>
        <time>2009-03-11T14:38:45Z</time>
      </trkpt>
      <trkpt lat="43.77531" lon="6.98182">
        <ele>521.7</ele>
        <time>2009-03-11T14:38:49Z</time>
      </trkpt>
      <trkpt lat="43.77515" lon="6.98213">
        <ele>520.2</ele>
        <time>2009-03-11T14:38:53Z</time>
      </trkpt>
      <trkpt lat="43.77496" lon="6.9824">
        <ele>519.7</ele>
        <time>2009-03-11T14:38:57Z</time>
      </trkpt>
      <trkpt lat="43.77476" lon="6.98264">
        <ele>518.3</ele>
        <time>2009-03-11T14:39:01Z</time>
      </trkpt>
      <trkpt lat="43.77455" lon="6.98301">
        <ele>517.3</ele>
        <time>2009-03-11T14:39:06Z</time>
      </trkpt>
      <trkpt lat="43.77442" lon="6.98336">
        <ele>517.3</ele>
        <time>2009-03-11T14:39:10Z</time>
      </trkpt>
      <trkpt lat="43.77421" lon="6.98362">
        <ele>516.4</ele>
        <time>2009-03-11T14:39:14Z</time>
      </trkpt>
      <trkpt lat="43.77398" lon="6.98386">
        <ele>516.4</ele>
        <time>2009-03-11T14:39:18Z</time>
      </trkpt>
      <trkpt lat="43.77381" lon="6.98417">
        <ele>516.4</ele>
        <time>2009-03-11T14:39:22Z</time>
      </trkpt>
      <trkpt lat="43.77358" lon="6.98447">
        <ele>514.4</ele>
        <time>2009-03-11T14:39:26Z</time>
      </trkpt>
      <trkpt lat="43.77336" lon="6.98476">
        <ele>514</ele>
        <time>2009-03-11T14:39:30Z</time>
      </trkpt>
      <trkpt lat="43.77313" lon="6.98505">
        <ele>513</ele>
        <time>2009-03-11T14:39:34Z</time>
      </trkpt>
      <trkpt lat="43.77288" lon="6.98531">
        <ele>512</ele>
        <time>2009-03-11T14:39:38Z</time>
      </trkpt>
      <trkpt lat="43.77263" lon="6.98551">
        <ele>511.6</ele>
        <time>2009-03-11T14:39:42Z</time>
      </trkpt>
      <trkpt lat="43.77235" lon="6.98569">
        <ele>510.6</ele>
        <time>2009-03-11T14:39:46Z</time>
      </trkpt>
      <trkpt lat="43.77202" lon="6.98566">
        <ele>510.1</ele>
        <time>2009-03-11T14:39:50Z</time>
      </trkpt>
      <trkpt lat="43.77173" lon="6.98549">
        <ele>509.2</ele>
        <time>2009-03-11T14:39:54Z</time>
      </trkpt>
      <trkpt lat="43.77148" lon="6.98522">
        <ele>508.2</ele>
        <time>2009-03-11T14:39:58Z</time>
      </trkpt>
      <trkpt lat="43.77122" lon="6.98498">
        <ele>507.2</ele>
        <time>2009-03-11T14:40:02Z</time>
      </trkpt>
      <trkpt lat="43.77093" lon="6.98486">
        <ele>505.3</ele>
        <time>2009-03-11T14:40:06Z</time>
      </trkpt>
      <trkpt lat="43.77066" lon="6.98503">
        <ele>503.4</ele>
        <time>2009-03-11T14:40:10Z</time>
      </trkpt>
      <trkpt lat="43.77036" lon="6.98512">
        <ele>502.4</ele>
        <time>2009-03-11T14:40:14Z</time>
      </trkpt>
      <trkpt lat="43.77007" lon="6.98496">
        <ele>501.5</ele>
        <time>2009-03-11T14:40:18Z</time>
      </trkpt>
      <trkpt lat="43.76976" lon="6.98488">
        <ele>500</ele>
        <time>2009-03-11T14:40:22Z</time>
      </trkpt>
      <trkpt lat="43.76946" lon="6.98483">
        <ele>498.6</ele>
        <time>2009-03-11T14:40:26Z</time>
      </trkpt>
      <trkpt lat="43.76914" lon="6.98488">
        <ele>497.6</ele>
        <time>2009-03-11T14:40:30Z</time>
      </trkpt>
      <trkpt lat="43.76884" lon="6.985">
        <ele>494.7</ele>
        <time>2009-03-11T14:40:34Z</time>
      </trkpt>
      <trkpt lat="43.76857" lon="6.98523">
        <ele>493.3</ele>
        <time>2009-03-11T14:40:38Z</time>
      </trkpt>
      <trkpt lat="43.76828" lon="6.98542">
        <ele>490.9</ele>
        <time>2009-03-11T14:40:42Z</time>
      </trkpt>
      <trkpt lat="43.76806" lon="6.98573">
        <ele>489</ele>
        <time>2009-03-11T14:40:46Z</time>
      </trkpt>
      <trkpt lat="43.76781" lon="6.98603">
        <ele>487</ele>
        <time>2009-03-11T14:40:50Z</time>
      </trkpt>
      <trkpt lat="43.76752" lon="6.98624">
        <ele>485.1</ele>
        <time>2009-03-11T14:40:54Z</time>
      </trkpt>
      <trkpt lat="43.76725" lon="6.98647">
        <ele>483.2</ele>
        <time>2009-03-11T14:40:58Z</time>
      </trkpt>
      <trkpt lat="43.76705" lon="6.98681">
        <ele>480.8</ele>
        <time>2009-03-11T14:41:02Z</time>
      </trkpt>
      <trkpt lat="43.76676" lon="6.987">
        <ele>478.9</ele>
        <time>2009-03-11T14:41:06Z</time>
      </trkpt>
      <trkpt lat="43.76644" lon="6.98711">
        <ele>477</ele>
        <time>2009-03-11T14:41:10Z</time>
      </trkpt>
      <trkpt lat="43.7661" lon="6.98714">
        <ele>476.5</ele>
        <time>2009-03-11T14:41:14Z</time>
      </trkpt>
      <trkpt lat="43.76576" lon="6.98706">
        <ele>475.5</ele>
        <time>2009-03-11T14:41:18Z</time>
      </trkpt>
      <trkpt lat="43.76543" lon="6.987">
        <ele>475</ele>
        <time>2009-03-11T14:41:22Z</time>
      </trkpt>
      <trkpt lat="43.76511" lon="6.98704">
        <ele>475</ele>
        <time>2009-03-11T14:41:26Z</time>
      </trkpt>
      <trkpt lat="43.7648" lon="6.98714">
        <ele>475.5</ele>
        <time>2009-03-11T14:41:30Z</time>
      </trkpt>
      <trkpt lat="43.76454" lon="6.98738">
        <ele>475.5</ele>
        <time>2009-03-11T14:41:34Z</time>
      </trkpt>
      <trkpt lat="43.76433" lon="6.9877">
        <ele>475</ele>
        <time>2009-03-11T14:41:38Z</time>
      </trkpt>
      <trkpt lat="43.76405" lon="6.98789">
        <ele>474.5</ele>
        <time>2009-03-11T14:41:42Z</time>
      </trkpt>
      <trkpt lat="43.76373" lon="6.98794">
        <ele>474.1</ele>
        <time>2009-03-11T14:41:46Z</time>
      </trkpt>
      <trkpt lat="43.76341" lon="6.98781">
        <ele>475</ele>
        <time>2009-03-11T14:41:50Z</time>
      </trkpt>
      <trkpt lat="43.76317" lon="6.98758">
        <ele>475.5</ele>
        <time>2009-03-11T14:41:54Z</time>
      </trkpt>
      <trkpt lat="43.76291" lon="6.98751">
        <ele>475.5</ele>
        <time>2009-03-11T14:41:58Z</time>
      </trkpt>
      <trkpt lat="43.76261" lon="6.9877">
        <ele>474.1</ele>
        <time>2009-03-11T14:42:03Z</time>
      </trkpt>
      <trkpt lat="43.76235" lon="6.98786">
        <ele>473.6</ele>
        <time>2009-03-11T14:42:07Z</time>
      </trkpt>
      <trkpt lat="43.76209" lon="6.98801">
        <ele>473.1</ele>
        <time>2009-03-11T14:42:11Z</time>
      </trkpt>
      <trkpt lat="43.76188" lon="6.98823">
        <ele>469.7</ele>
        <time>2009-03-11T14:42:15Z</time>
      </trkpt>
      <trkpt lat="43.76167" lon="6.98857">
        <ele>468.3</ele>
        <time>2009-03-11T14:42:20Z</time>
      </trkpt>
      <trkpt lat="43.76149" lon="6.98885">
        <ele>466.9</ele>
        <time>2009-03-11T14:42:24Z</time>
      </trkpt>
      <trkpt lat="43.76124" lon="6.98893">
        <ele>465.9</ele>
        <time>2009-03-11T14:42:28Z</time>
      </trkpt>
      <trkpt lat="43.76096" lon="6.9889">
        <ele>465.9</ele>
        <time>2009-03-11T14:42:33Z</time>
      </trkpt>
      <trkpt lat="43.76081" lon="6.98918">
        <ele>466.4</ele>
        <time>2009-03-11T14:42:39Z</time>
      </trkpt>
      <trkpt lat="43.76069" lon="6.98953">
        <ele>469.3</ele>
        <time>2009-03-11T14:42:50Z</time>
      </trkpt>
      <trkpt lat="43.76048" lon="6.98979">
        <ele>476</ele>
        <time>2009-03-11T14:43:02Z</time>
      </trkpt>
      <trkpt lat="43.76021" lon="6.98991">
        <ele>483.7</ele>
        <time>2009-03-11T14:43:15Z</time>
      </trkpt>
      <trkpt lat="43.75992" lon="6.99002">
        <ele>489.9</ele>
        <time>2009-03-11T14:43:27Z</time>
      </trkpt>
      <trkpt lat="43.75965" lon="6.99005">
        <ele>497.1</ele>
        <time>2009-03-11T14:43:39Z</time>
      </trkpt>
      <trkpt lat="43.75935" lon="6.99001">
        <ele>500.5</ele>
        <time>2009-03-11T14:43:51Z</time>
      </trkpt>
      <trkpt lat="43.75907" lon="6.98995">
        <ele>505.3</ele>
        <time>2009-03-11T14:44:03Z</time>
      </trkpt>
      <trkpt lat="43.75876" lon="6.98993">
        <ele>509.2</ele>
        <time>2009-03-11T14:44:15Z</time>
      </trkpt>
      <trkpt lat="43.75847" lon="6.98997">
        <ele>511.6</ele>
        <time>2009-03-11T14:44:28Z</time>
      </trkpt>
      <trkpt lat="43.75818" lon="6.98995">
        <ele>516.8</ele>
        <time>2009-03-11T14:44:40Z</time>
      </trkpt>
      <trkpt lat="43.75789" lon="6.9898">
        <ele>518.8</ele>
        <time>2009-03-11T14:44:52Z</time>
      </trkpt>
      <trkpt lat="43.75759" lon="6.98968">
        <ele>515.9</ele>
        <time>2009-03-11T14:45:03Z</time>
      </trkpt>
      <trkpt lat="43.7573" lon="6.98961">
        <ele>515.4</ele>
        <time>2009-03-11T14:45:13Z</time>
      </trkpt>
      <trkpt lat="43.75702" lon="6.98955">
        <ele>512.5</ele>
        <time>2009-03-11T14:45:23Z</time>
      </trkpt>
      <trkpt lat="43.75676" lon="6.98945">
        <ele>517.8</ele>
        <time>2009-03-11T14:45:34Z</time>
      </trkpt>
      <trkpt lat="43.75647" lon="6.98936">
        <ele>521.2</ele>
        <time>2009-03-11T14:45:45Z</time>
      </trkpt>
      <trkpt lat="43.7562" lon="6.98935">
        <ele>524.5</ele>
        <time>2009-03-11T14:45:56Z</time>
      </trkpt>
      <trkpt lat="43.75592" lon="6.98938">
        <ele>530.8</ele>
        <time>2009-03-11T14:46:08Z</time>
      </trkpt>
      <trkpt lat="43.75563" lon="6.98941">
        <ele>535.6</ele>
        <time>2009-03-11T14:46:19Z</time>
      </trkpt>
      <trkpt lat="43.75533" lon="6.98937">
        <ele>538.5</ele>
        <time>2009-03-11T14:46:30Z</time>
      </trkpt>
      <trkpt lat="43.75507" lon="6.98937">
        <ele>534.1</ele>
        <time>2009-03-11T14:46:40Z</time>
      </trkpt>
      <trkpt lat="43.75479" lon="6.98942">
        <ele>527.4</ele>
        <time>2009-03-11T14:46:50Z</time>
      </trkpt>
      <trkpt lat="43.75455" lon="6.98944">
        <ele>514.9</ele>
        <time>2009-03-11T14:47:00Z</time>
      </trkpt>
      <trkpt lat="43.75428" lon="6.98947">
        <ele>516.4</ele>
        <time>2009-03-11T14:47:11Z</time>
      </trkpt>
      <trkpt lat="43.754" lon="6.98949">
        <ele>518.3</ele>
        <time>2009-03-11T14:47:22Z</time>
      </trkpt>
      <trkpt lat="43.75374" lon="6.98961">
        <ele>520.7</ele>
        <time>2009-03-11T14:47:33Z</time>
      </trkpt>
      <trkpt lat="43.7535" lon="6.98979">
        <ele>521.2</ele>
        <time>2009-03-11T14:47:44Z</time>
      </trkpt>
      <trkpt lat="43.75323" lon="6.98984">
        <ele>520.7</ele>
        <time>2009-03-11T14:47:55Z</time>
      </trkpt>
      <trkpt lat="43.75296" lon="6.98994">
        <ele>522.1</ele>
        <time>2009-03-11T14:48:07Z</time>
      </trkpt>
      <trkpt lat="43.7527" lon="6.99013">
        <ele>526</ele>
        <time>2009-03-11T14:48:18Z</time>
      </trkpt>
      <trkpt lat="43.75244" lon="6.99032">
        <ele>526.5</ele>
        <time>2009-03-11T14:48:29Z</time>
      </trkpt>
      <trkpt lat="43.75219" lon="6.99046">
        <ele>526.9</ele>
        <time>2009-03-11T14:48:40Z</time>
      </trkpt>
      <trkpt lat="43.75192" lon="6.99045">
        <ele>528.9</ele>
        <time>2009-03-11T14:48:51Z</time>
      </trkpt>
      <trkpt lat="43.75163" lon="6.99044">
        <ele>530.8</ele>
        <time>2009-03-11T14:49:02Z</time>
      </trkpt>
      <trkpt lat="43.75136" lon="6.99048">
        <ele>531.7</ele>
        <time>2009-03-11T14:49:13Z</time>
      </trkpt>
      <trkpt lat="43.75115" lon="6.99071">
        <ele>530.8</ele>
        <time>2009-03-11T14:49:24Z</time>
      </trkpt>
      <trkpt lat="43.75092" lon="6.99097">
        <ele>534.6</ele>
        <time>2009-03-11T14:49:36Z</time>
      </trkpt>
      <trkpt lat="43.75066" lon="6.99119">
        <ele>539</ele>
        <time>2009-03-11T14:49:47Z</time>
      </trkpt>
      <trkpt lat="43.75039" lon="6.99119">
        <ele>539.9</ele>
        <time>2009-03-11T14:49:59Z</time>
      </trkpt>
      <trkpt lat="43.75011" lon="6.99113">
        <ele>541.4</ele>
        <time>2009-03-11T14:50:11Z</time>
      </trkpt>
      <trkpt lat="43.74985" lon="6.99103">
        <ele>546.6</ele>
        <time>2009-03-11T14:50:23Z</time>
      </trkpt>
      <trkpt lat="43.7496" lon="6.99086">
        <ele>548.6</ele>
        <time>2009-03-11T14:50:36Z</time>
      </trkpt>
      <trkpt lat="43.74939" lon="6.99062">
        <ele>551</ele>
        <time>2009-03-11T14:50:48Z</time>
      </trkpt>
      <trkpt lat="43.74915" lon="6.99046">
        <ele>553.9</ele>
        <time>2009-03-11T14:51:00Z</time>
      </trkpt>
      <trkpt lat="43.74889" lon="6.99039">
        <ele>549.1</ele>
        <time>2009-03-11T14:51:18Z</time>
      </trkpt>
      <trkpt lat="43.74861" lon="6.99057">
        <ele>552.4</ele>
        <time>2009-03-11T14:54:03Z</time>
      </trkpt>
      <trkpt lat="43.74834" lon="6.99078">
        <ele>555.8</ele>
        <time>2009-03-11T14:54:15Z</time>
      </trkpt>
      <trkpt lat="43.74812" lon="6.99103">
        <ele>555.3</ele>
        <time>2009-03-11T14:54:25Z</time>
      </trkpt>
      <trkpt lat="43.7479" lon="6.99129">
        <ele>557.7</ele>
        <time>2009-03-11T14:54:36Z</time>
      </trkpt>
      <trkpt lat="43.74764" lon="6.99157">
        <ele>561.1</ele>
        <time>2009-03-11T14:54:48Z</time>
      </trkpt>
      <trkpt lat="43.74739" lon="6.99172">
        <ele>562.5</ele>
        <time>2009-03-11T14:55:00Z</time>
      </trkpt>
      <trkpt lat="43.7471" lon="6.99177">
        <ele>562.5</ele>
        <time>2009-03-11T14:55:12Z</time>
      </trkpt>
      <trkpt lat="43.74682" lon="6.9918">
        <ele>564</ele>
        <time>2009-03-11T14:55:24Z</time>
      </trkpt>
      <trkpt lat="43.74654" lon="6.99174">
        <ele>565.4</ele>
        <time>2009-03-11T14:55:36Z</time>
      </trkpt>
      <trkpt lat="43.74628" lon="6.9916">
        <ele>567.3</ele>
        <time>2009-03-11T14:55:47Z</time>
      </trkpt>
      <trkpt lat="43.74603" lon="6.99142">
        <ele>567.3</ele>
        <time>2009-03-11T14:55:58Z</time>
      </trkpt>
      <trkpt lat="43.74581" lon="6.99121">
        <ele>568.3</ele>
        <time>2009-03-11T14:56:09Z</time>
      </trkpt>
      <trkpt lat="43.7455" lon="6.99116">
        <ele>571.6</ele>
        <time>2009-03-11T14:56:20Z</time>
      </trkpt>
      <trkpt lat="43.7453" lon="6.99144">
        <ele>571.6</ele>
        <time>2009-03-11T14:56:30Z</time>
      </trkpt>
      <trkpt lat="43.74521" lon="6.99183">
        <ele>573.1</ele>
        <time>2009-03-11T14:56:40Z</time>
      </trkpt>
      <trkpt lat="43.74512" lon="6.99222">
        <ele>575.5</ele>
        <time>2009-03-11T14:56:50Z</time>
      </trkpt>
      <trkpt lat="43.74491" lon="6.99247">
        <ele>580.8</ele>
        <time>2009-03-11T14:57:01Z</time>
      </trkpt>
      <trkpt lat="43.74464" lon="6.99262">
        <ele>585.6</ele>
        <time>2009-03-11T14:57:12Z</time>
      </trkpt>
      <trkpt lat="43.74435" lon="6.99279">
        <ele>589.9</ele>
        <time>2009-03-11T14:57:23Z</time>
      </trkpt>
      <trkpt lat="43.74408" lon="6.99294">
        <ele>590.9</ele>
        <time>2009-03-11T14:57:34Z</time>
      </trkpt>
      <trkpt lat="43.74382" lon="6.99314">
        <ele>594.2</ele>
        <time>2009-03-11T14:57:46Z</time>
      </trkpt>
      <trkpt lat="43.74358" lon="6.99332">
        <ele>597.6</ele>
        <time>2009-03-11T14:57:58Z</time>
      </trkpt>
      <trkpt lat="43.7433" lon="6.99347">
        <ele>600.5</ele>
        <time>2009-03-11T14:58:10Z</time>
      </trkpt>
      <trkpt lat="43.74304" lon="6.99356">
        <ele>603.8</ele>
        <time>2009-03-11T14:58:21Z</time>
      </trkpt>
      <trkpt lat="43.74278" lon="6.99363">
        <ele>598.1</ele>
        <time>2009-03-11T14:58:32Z</time>
      </trkpt>
      <trkpt lat="43.74251" lon="6.99375">
        <ele>593.8</ele>
        <time>2009-03-11T14:58:43Z</time>
      </trkpt>
      <trkpt lat="43.74224" lon="6.99389">
        <ele>594.7</ele>
        <time>2009-03-11T14:58:54Z</time>
      </trkpt>
      <trkpt lat="43.74196" lon="6.99401">
        <ele>594.2</ele>
        <time>2009-03-11T14:59:05Z</time>
      </trkpt>
      <trkpt lat="43.74169" lon="6.99414">
        <ele>594.2</ele>
        <time>2009-03-11T14:59:16Z</time>
      </trkpt>
      <trkpt lat="43.74142" lon="6.99424">
        <ele>594.7</ele>
        <time>2009-03-11T14:59:27Z</time>
      </trkpt>
      <trkpt lat="43.74114" lon="6.99434">
        <ele>601.4</ele>
        <time>2009-03-11T14:59:39Z</time>
      </trkpt>
      <trkpt lat="43.74089" lon="6.99448">
        <ele>602.4</ele>
        <time>2009-03-11T14:59:51Z</time>
      </trkpt>
      <trkpt lat="43.74062" lon="6.99466">
        <ele>602.9</ele>
        <time>2009-03-11T15:00:04Z</time>
      </trkpt>
      <trkpt lat="43.74035" lon="6.99482">
        <ele>601.4</ele>
        <time>2009-03-11T15:00:17Z</time>
      </trkpt>
      <trkpt lat="43.7401" lon="6.99496">
        <ele>603.8</ele>
        <time>2009-03-11T15:00:29Z</time>
      </trkpt>
      <trkpt lat="43.73984" lon="6.99495">
        <ele>609.1</ele>
        <time>2009-03-11T15:00:40Z</time>
      </trkpt>
      <trkpt lat="43.73956" lon="6.99502">
        <ele>609.6</ele>
        <time>2009-03-11T15:00:52Z</time>
      </trkpt>
      <trkpt lat="43.73963" lon="6.99537">
        <ele>608.7</ele>
        <time>2009-03-11T15:01:03Z</time>
      </trkpt>
      <trkpt lat="43.73977" lon="6.99571">
        <ele>609.6</ele>
        <time>2009-03-11T15:01:13Z</time>
      </trkpt>
      <trkpt lat="43.73958" lon="6.99588">
        <ele>610.6</ele>
        <time>2009-03-11T15:01:23Z</time>
      </trkpt>
      <trkpt lat="43.73934" lon="6.99565">
        <ele>610.1</ele>
        <time>2009-03-11T15:01:34Z</time>
      </trkpt>
      <trkpt lat="43.73914" lon="6.99537">
        <ele>610.6</ele>
        <time>2009-03-11T15:01:45Z</time>
      </trkpt>
      <trkpt lat="43.73909" lon="6.995">
        <ele>610.1</ele>
        <time>2009-03-11T15:01:56Z</time>
      </trkpt>
      <trkpt lat="43.73931" lon="6.99478">
        <ele>611.1</ele>
        <time>2009-03-11T15:02:09Z</time>
      </trkpt>
      <trkpt lat="43.73958" lon="6.99472">
        <ele>615.4</ele>
        <time>2009-03-11T15:02:20Z</time>
      </trkpt>
      <trkpt lat="43.73986" lon="6.99469">
        <ele>616.8</ele>
        <time>2009-03-11T15:02:31Z</time>
      </trkpt>
      <trkpt lat="43.74013" lon="6.99461">
        <ele>619.2</ele>
        <time>2009-03-11T15:02:42Z</time>
      </trkpt>
      <trkpt lat="43.74038" lon="6.99443">
        <ele>620.2</ele>
        <time>2009-03-11T15:02:53Z</time>
      </trkpt>
      <trkpt lat="43.74058" lon="6.99418">
        <ele>621.6</ele>
        <time>2009-03-11T15:03:04Z</time>
      </trkpt>
      <trkpt lat="43.7407" lon="6.99384">
        <ele>623.6</ele>
        <time>2009-03-11T15:03:17Z</time>
      </trkpt>
      <trkpt lat="43.74069" lon="6.9935">
        <ele>623.1</ele>
        <time>2009-03-11T15:03:30Z</time>
      </trkpt>
      <trkpt lat="43.74052" lon="6.99377">
        <ele>627.9</ele>
        <time>2009-03-11T15:03:42Z</time>
      </trkpt>
      <trkpt lat="43.74037" lon="6.9941">
        <ele>630.3</ele>
        <time>2009-03-11T15:03:54Z</time>
      </trkpt>
      <trkpt lat="43.74013" lon="6.99426">
        <ele>632.2</ele>
        <time>2009-03-11T15:04:06Z</time>
      </trkpt>
      <trkpt lat="43.73986" lon="6.99432">
        <ele>635.6</ele>
        <time>2009-03-11T15:04:18Z</time>
      </trkpt>
      <trkpt lat="43.73958" lon="6.99434">
        <ele>637.5</ele>
        <time>2009-03-11T15:04:30Z</time>
      </trkpt>
      <trkpt lat="43.7393" lon="6.99436">
        <ele>637.5</ele>
        <time>2009-03-11T15:04:43Z</time>
      </trkpt>
      <trkpt lat="43.739" lon="6.99437">
        <ele>638.9</ele>
        <time>2009-03-11T15:04:56Z</time>
      </trkpt>
      <trkpt lat="43.73873" lon="6.99439">
        <ele>640.4</ele>
        <time>2009-03-11T15:05:08Z</time>
      </trkpt>
      <trkpt lat="43.73847" lon="6.99452">
        <ele>644.2</ele>
        <time>2009-03-11T15:05:20Z</time>
      </trkpt>
      <trkpt lat="43.7382" lon="6.99456">
        <ele>645.7</ele>
        <time>2009-03-11T15:05:32Z</time>
      </trkpt>
      <trkpt lat="43.73794" lon="6.99447">
        <ele>648.1</ele>
        <time>2009-03-11T15:05:44Z</time>
      </trkpt>
      <trkpt lat="43.73764" lon="6.99453">
        <ele>646.1</ele>
        <time>2009-03-11T15:05:57Z</time>
      </trkpt>
      <trkpt lat="43.73738" lon="6.99472">
        <ele>646.6</ele>
        <time>2009-03-11T15:06:10Z</time>
      </trkpt>
      <trkpt lat="43.73715" lon="6.99492">
        <ele>649</ele>
        <time>2009-03-11T15:06:23Z</time>
      </trkpt>
      <trkpt lat="43.73691" lon="6.99512">
        <ele>652.9</ele>
        <time>2009-03-11T15:06:36Z</time>
      </trkpt>
      <trkpt lat="43.73666" lon="6.99526">
        <ele>650.5</ele>
        <time>2009-03-11T15:06:50Z</time>
      </trkpt>
      <trkpt lat="43.73668" lon="6.99492">
        <ele>650.9</ele>
        <time>2009-03-11T15:07:05Z</time>
      </trkpt>
      <trkpt lat="43.73686" lon="6.99462">
        <ele>652.4</ele>
        <time>2009-03-11T15:07:18Z</time>
      </trkpt>
      <trkpt lat="43.73706" lon="6.99436">
        <ele>654.3</ele>
        <time>2009-03-11T15:07:31Z</time>
      </trkpt>
      <trkpt lat="43.73734" lon="6.99421">
        <ele>657.2</ele>
        <time>2009-03-11T15:07:44Z</time>
      </trkpt>
      <trkpt lat="43.7376" lon="6.99413">
        <ele>659.6</ele>
        <time>2009-03-11T15:07:57Z</time>
      </trkpt>
      <trkpt lat="43.73789" lon="6.99411">
        <ele>659.1</ele>
        <time>2009-03-11T15:08:10Z</time>
      </trkpt>
      <trkpt lat="43.73819" lon="6.99412">
        <ele>660.6</ele>
        <time>2009-03-11T15:08:23Z</time>
      </trkpt>
      <trkpt lat="43.73845" lon="6.99401">
        <ele>661.5</ele>
        <time>2009-03-11T15:08:35Z</time>
      </trkpt>
      <trkpt lat="43.73871" lon="6.9939">
        <ele>665.4</ele>
        <time>2009-03-11T15:08:46Z</time>
      </trkpt>
      <trkpt lat="43.73898" lon="6.99377">
        <ele>667.8</ele>
        <time>2009-03-11T15:08:59Z</time>
      </trkpt>
      <trkpt lat="43.73925" lon="6.99358">
        <ele>668.3</ele>
        <time>2009-03-11T15:09:12Z</time>
      </trkpt>
      <trkpt lat="43.73949" lon="6.99339">
        <ele>670.7</ele>
        <time>2009-03-11T15:09:25Z</time>
      </trkpt>
      <trkpt lat="43.73973" lon="6.99318">
        <ele>672.6</ele>
        <time>2009-03-11T15:09:38Z</time>
      </trkpt>
      <trkpt lat="43.73984" lon="6.99288">
        <ele>671.6</ele>
        <time>2009-03-11T15:09:51Z</time>
      </trkpt>
      <trkpt lat="43.73961" lon="6.99288">
        <ele>672.6</ele>
        <time>2009-03-11T15:10:03Z</time>
      </trkpt>
      <trkpt lat="43.73943" lon="6.99318">
        <ele>673.5</ele>
        <time>2009-03-11T15:10:15Z</time>
      </trkpt>
      <trkpt lat="43.73917" lon="6.9933">
        <ele>678.8</ele>
        <time>2009-03-11T15:10:28Z</time>
      </trkpt>
      <trkpt lat="43.73889" lon="6.9934">
        <ele>684.1</ele>
        <time>2009-03-11T15:10:41Z</time>
      </trkpt>
      <trkpt lat="43.73861" lon="6.99352">
        <ele>687.5</ele>
        <time>2009-03-11T15:10:55Z</time>
      </trkpt>
      <trkpt lat="43.7383" lon="6.99358">
        <ele>683.2</ele>
        <time>2009-03-11T15:11:08Z</time>
      </trkpt>
      <trkpt lat="43.73802" lon="6.99355">
        <ele>686</ele>
        <time>2009-03-11T15:11:24Z</time>
      </trkpt>
      <trkpt lat="43.73774" lon="6.99352">
        <ele>685.6</ele>
        <time>2009-03-11T15:11:39Z</time>
      </trkpt>
      <trkpt lat="43.73743" lon="6.9935">
        <ele>687</ele>
        <time>2009-03-11T15:11:54Z</time>
      </trkpt>
      <trkpt lat="43.73715" lon="6.99342">
        <ele>688.9</ele>
        <time>2009-03-11T15:12:08Z</time>
      </trkpt>
      <trkpt lat="43.73686" lon="6.99336">
        <ele>690.4</ele>
        <time>2009-03-11T15:12:22Z</time>
      </trkpt>
      <trkpt lat="43.73654" lon="6.99339">
        <ele>693.2</ele>
        <time>2009-03-11T15:12:36Z</time>
      </trkpt>
      <trkpt lat="43.73624" lon="6.9934">
        <ele>692.8</ele>
        <time>2009-03-11T15:12:49Z</time>
      </trkpt>
      <trkpt lat="43.73595" lon="6.99334">
        <ele>694.2</ele>
        <time>2009-03-11T15:13:02Z</time>
      </trkpt>
      <trkpt lat="43.73567" lon="6.99328">
        <ele>695.7</ele>
        <time>2009-03-11T15:13:15Z</time>
      </trkpt>
      <trkpt lat="43.73536" lon="6.99327">
        <ele>700</ele>
        <time>2009-03-11T15:13:28Z</time>
      </trkpt>
      <trkpt lat="43.73507" lon="6.99325">
        <ele>702.4</ele>
        <time>2009-03-11T15:13:41Z</time>
      </trkpt>
      <trkpt lat="43.73478" lon="6.99327">
        <ele>704.8</ele>
        <time>2009-03-11T15:13:54Z</time>
      </trkpt>
      <trkpt lat="43.73448" lon="6.99334">
        <ele>705.7</ele>
        <time>2009-03-11T15:14:09Z</time>
      </trkpt>
      <trkpt lat="43.7342" lon="6.99338">
        <ele>703.8</ele>
        <time>2009-03-11T15:14:21Z</time>
      </trkpt>
      <trkpt lat="43.73392" lon="6.99332">
        <ele>703.8</ele>
        <time>2009-03-11T15:14:32Z</time>
      </trkpt>
      <trkpt lat="43.73368" lon="6.99313">
        <ele>704.3</ele>
        <time>2009-03-11T15:14:43Z</time>
      </trkpt>
      <trkpt lat="43.73357" lon="6.99278">
        <ele>705.7</ele>
        <time>2009-03-11T15:14:54Z</time>
      </trkpt>
      <trkpt lat="43.73357" lon="6.99238">
        <ele>707.7</ele>
        <time>2009-03-11T15:15:05Z</time>
      </trkpt>
      <trkpt lat="43.73357" lon="6.99197">
        <ele>709.6</ele>
        <time>2009-03-11T15:15:17Z</time>
      </trkpt>
      <trkpt lat="43.7335" lon="6.99159">
        <ele>708.1</ele>
        <time>2009-03-11T15:15:28Z</time>
      </trkpt>
      <trkpt lat="43.73335" lon="6.99128">
        <ele>709.6</ele>
        <time>2009-03-11T15:15:38Z</time>
      </trkpt>
      <trkpt lat="43.73319" lon="6.99096">
        <ele>712</ele>
        <time>2009-03-11T15:15:49Z</time>
      </trkpt>
      <trkpt lat="43.73307" lon="6.99065">
        <ele>714.4</ele>
        <time>2009-03-11T15:16:00Z</time>
      </trkpt>
      <trkpt lat="43.73288" lon="6.99034">
        <ele>716.3</ele>
        <time>2009-03-11T15:16:15Z</time>
      </trkpt>
      <trkpt lat="43.73269" lon="6.99004">
        <ele>717.8</ele>
        <time>2009-03-11T15:16:26Z</time>
      </trkpt>
      <trkpt lat="43.73253" lon="6.98973">
        <ele>719.2</ele>
        <time>2009-03-11T15:16:36Z</time>
      </trkpt>
      <trkpt lat="43.73237" lon="6.98938">
        <ele>720.6</ele>
        <time>2009-03-11T15:16:47Z</time>
      </trkpt>
      <trkpt lat="43.7322" lon="6.98908">
        <ele>723.5</ele>
        <time>2009-03-11T15:16:59Z</time>
      </trkpt>
      <trkpt lat="43.73201" lon="6.9888">
        <ele>723</ele>
        <time>2009-03-11T15:17:11Z</time>
      </trkpt>
      <trkpt lat="43.73179" lon="6.98856">
        <ele>725</ele>
        <time>2009-03-11T15:17:23Z</time>
      </trkpt>
      <trkpt lat="43.73153" lon="6.98835">
        <ele>724</ele>
        <time>2009-03-11T15:17:35Z</time>
      </trkpt>
      <trkpt lat="43.73128" lon="6.98818">
        <ele>723</ele>
        <time>2009-03-11T15:17:46Z</time>
      </trkpt>
      <trkpt lat="43.73103" lon="6.98803">
        <ele>722.1</ele>
        <time>2009-03-11T15:17:57Z</time>
      </trkpt>
      <trkpt lat="43.73074" lon="6.98791">
        <ele>720.6</ele>
        <time>2009-03-11T15:18:09Z</time>
      </trkpt>
      <trkpt lat="43.73046" lon="6.98789">
        <ele>723</ele>
        <time>2009-03-11T15:18:20Z</time>
      </trkpt>
      <trkpt lat="43.73017" lon="6.98792">
        <ele>725</ele>
        <time>2009-03-11T15:18:30Z</time>
      </trkpt>
      <trkpt lat="43.72987" lon="6.9879">
        <ele>725.5</ele>
        <time>2009-03-11T15:18:40Z</time>
      </trkpt>
      <trkpt lat="43.72958" lon="6.98781">
        <ele>725.5</ele>
        <time>2009-03-11T15:18:50Z</time>
      </trkpt>
      <trkpt lat="43.7293" lon="6.98769">
        <ele>724</ele>
        <time>2009-03-11T15:19:00Z</time>
      </trkpt>
      <trkpt lat="43.72901" lon="6.98766">
        <ele>727.4</ele>
        <time>2009-03-11T15:19:10Z</time>
      </trkpt>
      <trkpt lat="43.72872" lon="6.98766">
        <ele>729.3</ele>
        <time>2009-03-11T15:19:20Z</time>
      </trkpt>
      <trkpt lat="43.72845" lon="6.98758">
        <ele>728.8</ele>
        <time>2009-03-11T15:19:31Z</time>
      </trkpt>
      <trkpt lat="43.72821" lon="6.98739">
        <ele>730.7</ele>
        <time>2009-03-11T15:19:42Z</time>
      </trkpt>
      <trkpt lat="43.72795" lon="6.98725">
        <ele>731.2</ele>
        <time>2009-03-11T15:19:52Z</time>
      </trkpt>
      <trkpt lat="43.72768" lon="6.98712">
        <ele>732.2</ele>
        <time>2009-03-11T15:20:02Z</time>
      </trkpt>
      <trkpt lat="43.72742" lon="6.98698">
        <ele>733.6</ele>
        <time>2009-03-11T15:20:12Z</time>
      </trkpt>
      <trkpt lat="43.72719" lon="6.98675">
        <ele>736.5</ele>
        <time>2009-03-11T15:20:22Z</time>
      </trkpt>
      <trkpt lat="43.72705" lon="6.98643">
        <ele>736.5</ele>
        <time>2009-03-11T15:20:33Z</time>
      </trkpt>
      <trkpt lat="43.72689" lon="6.98611">
        <ele>737.5</ele>
        <time>2009-03-11T15:20:44Z</time>
      </trkpt>
      <trkpt lat="43.72666" lon="6.98588">
        <ele>737</ele>
        <time>2009-03-11T15:20:56Z</time>
      </trkpt>
      <trkpt lat="43.72643" lon="6.98569">
        <ele>737</ele>
        <time>2009-03-11T15:21:05Z</time>
      </trkpt>
      <trkpt lat="43.72619" lon="6.98548">
        <ele>737.5</ele>
        <time>2009-03-11T15:21:13Z</time>
      </trkpt>
      <trkpt lat="43.72603" lon="6.98512">
        <ele>738.4</ele>
        <time>2009-03-11T15:21:21Z</time>
      </trkpt>
      <trkpt lat="43.72596" lon="6.98472">
        <ele>737.5</ele>
        <time>2009-03-11T15:21:28Z</time>
      </trkpt>
      <trkpt lat="43.72591" lon="6.9843">
        <ele>737</ele>
        <time>2009-03-11T15:21:35Z</time>
      </trkpt>
      <trkpt lat="43.72586" lon="6.98387">
        <ele>737</ele>
        <time>2009-03-11T15:21:42Z</time>
      </trkpt>
      <trkpt lat="43.7258" lon="6.9835">
        <ele>735.5</ele>
        <time>2009-03-11T15:21:49Z</time>
      </trkpt>
      <trkpt lat="43.72563" lon="6.98314">
        <ele>736</ele>
        <time>2009-03-11T15:21:57Z</time>
      </trkpt>
      <trkpt lat="43.72542" lon="6.98286">
        <ele>735.1</ele>
        <time>2009-03-11T15:22:04Z</time>
      </trkpt>
      <trkpt lat="43.72513" lon="6.98267">
        <ele>734.1</ele>
        <time>2009-03-11T15:22:11Z</time>
      </trkpt>
      <trkpt lat="43.72486" lon="6.98253">
        <ele>736</ele>
        <time>2009-03-11T15:22:17Z</time>
      </trkpt>
      <trkpt lat="43.72464" lon="6.9823">
        <ele>736</ele>
        <time>2009-03-11T15:22:23Z</time>
      </trkpt>
      <trkpt lat="43.72441" lon="6.98198">
        <ele>737</ele>
        <time>2009-03-11T15:22:30Z</time>
      </trkpt>
      <trkpt lat="43.72419" lon="6.98171">
        <ele>737.5</ele>
        <time>2009-03-11T15:22:36Z</time>
      </trkpt>
      <trkpt lat="43.72398" lon="6.98144">
        <ele>737</ele>
        <time>2009-03-11T15:22:43Z</time>
      </trkpt>
      <trkpt lat="43.72374" lon="6.98115">
        <ele>737.9</ele>
        <time>2009-03-11T15:22:50Z</time>
      </trkpt>
      <trkpt lat="43.72351" lon="6.98086">
        <ele>738.4</ele>
        <time>2009-03-11T15:22:57Z</time>
      </trkpt>
      <trkpt lat="43.72328" lon="6.98058">
        <ele>738.4</ele>
        <time>2009-03-11T15:23:04Z</time>
      </trkpt>
      <trkpt lat="43.72308" lon="6.98032">
        <ele>737.9</ele>
        <time>2009-03-11T15:23:10Z</time>
      </trkpt>
      <trkpt lat="43.72287" lon="6.98005">
        <ele>738.4</ele>
        <time>2009-03-11T15:23:16Z</time>
      </trkpt>
      <trkpt lat="43.7227" lon="6.97974">
        <ele>739.4</ele>
        <time>2009-03-11T15:23:22Z</time>
      </trkpt>
      <trkpt lat="43.72256" lon="6.97939">
        <ele>737.9</ele>
        <time>2009-03-11T15:23:28Z</time>
      </trkpt>
      <trkpt lat="43.72246" lon="6.97903">
        <ele>737</ele>
        <time>2009-03-11T15:23:34Z</time>
      </trkpt>
      <trkpt lat="43.72242" lon="6.97864">
        <ele>736</ele>
        <time>2009-03-11T15:23:40Z</time>
      </trkpt>
      <trkpt lat="43.72234" lon="6.97828">
        <ele>735.5</ele>
        <time>2009-03-11T15:23:47Z</time>
      </trkpt>
      <trkpt lat="43.72214" lon="6.97795">
        <ele>734.1</ele>
        <time>2009-03-11T15:23:54Z</time>
      </trkpt>
      <trkpt lat="43.72191" lon="6.97767">
        <ele>736</ele>
        <time>2009-03-11T15:24:01Z</time>
      </trkpt>
      <trkpt lat="43.72169" lon="6.97739">
        <ele>734.6</ele>
        <time>2009-03-11T15:24:08Z</time>
      </trkpt>
      <trkpt lat="43.72144" lon="6.9771">
        <ele>735.1</ele>
        <time>2009-03-11T15:24:16Z</time>
      </trkpt>
      <trkpt lat="43.72122" lon="6.97686">
        <ele>735.1</ele>
        <time>2009-03-11T15:24:23Z</time>
      </trkpt>
      <trkpt lat="43.72105" lon="6.97653">
        <ele>732.7</ele>
        <time>2009-03-11T15:24:28Z</time>
      </trkpt>
      <trkpt lat="43.72122" lon="6.97617">
        <ele>731.2</ele>
        <time>2009-03-11T15:24:32Z</time>
      </trkpt>
      <trkpt lat="43.72127" lon="6.97577">
        <ele>727.9</ele>
        <time>2009-03-11T15:24:36Z</time>
      </trkpt>
      <trkpt lat="43.72102" lon="6.97553">
        <ele>723.5</ele>
        <time>2009-03-11T15:24:40Z</time>
      </trkpt>
      <trkpt lat="43.72079" lon="6.97533">
        <ele>719.2</ele>
        <time>2009-03-11T15:24:44Z</time>
      </trkpt>
      <trkpt lat="43.72069" lon="6.97495">
        <ele>718.2</ele>
        <time>2009-03-11T15:24:48Z</time>
      </trkpt>
      <trkpt lat="43.72062" lon="6.97452">
        <ele>717.3</ele>
        <time>2009-03-11T15:24:52Z</time>
      </trkpt>
      <trkpt lat="43.72066" lon="6.97403">
        <ele>715.4</ele>
        <time>2009-03-11T15:24:56Z</time>
      </trkpt>
      <trkpt lat="43.72068" lon="6.97365">
        <ele>713.4</ele>
        <time>2009-03-11T15:24:59Z</time>
      </trkpt>
      <trkpt lat="43.72066" lon="6.97325">
        <ele>711</ele>
        <time>2009-03-11T15:25:02Z</time>
      </trkpt>
      <trkpt lat="43.72053" lon="6.97286">
        <ele>708.6</ele>
        <time>2009-03-11T15:25:05Z</time>
      </trkpt>
      <trkpt lat="43.72042" lon="6.97246">
        <ele>705.3</ele>
        <time>2009-03-11T15:25:08Z</time>
      </trkpt>
      <trkpt lat="43.72046" lon="6.97202">
        <ele>703.3</ele>
        <time>2009-03-11T15:25:11Z</time>
      </trkpt>
      <trkpt lat="43.7205" lon="6.97158">
        <ele>701.9</ele>
        <time>2009-03-11T15:25:14Z</time>
      </trkpt>
      <trkpt lat="43.72044" lon="6.97114">
        <ele>699.5</ele>
        <time>2009-03-11T15:25:17Z</time>
      </trkpt>
      <trkpt lat="43.7203" lon="6.97071">
        <ele>696.6</ele>
        <time>2009-03-11T15:25:20Z</time>
      </trkpt>
      <trkpt lat="43.72012" lon="6.97039">
        <ele>693.7</ele>
        <time>2009-03-11T15:25:23Z</time>
      </trkpt>
      <trkpt lat="43.71998" lon="6.97006">
        <ele>690.4</ele>
        <time>2009-03-11T15:25:26Z</time>
      </trkpt>
      <trkpt lat="43.71992" lon="6.96967">
        <ele>688</ele>
        <time>2009-03-11T15:25:29Z</time>
      </trkpt>
      <trkpt lat="43.71983" lon="6.96929">
        <ele>685.1</ele>
        <time>2009-03-11T15:25:32Z</time>
      </trkpt>
      <trkpt lat="43.71987" lon="6.96891">
        <ele>682.2</ele>
        <time>2009-03-11T15:25:35Z</time>
      </trkpt>
      <trkpt lat="43.72011" lon="6.96865">
        <ele>680.3</ele>
        <time>2009-03-11T15:25:38Z</time>
      </trkpt>
      <trkpt lat="43.7204" lon="6.96848">
        <ele>677.4</ele>
        <time>2009-03-11T15:25:41Z</time>
      </trkpt>
      <trkpt lat="43.72062" lon="6.96822">
        <ele>675.9</ele>
        <time>2009-03-11T15:25:44Z</time>
      </trkpt>
      <trkpt lat="43.72087" lon="6.96803">
        <ele>675</ele>
        <time>2009-03-11T15:25:47Z</time>
      </trkpt>
      <trkpt lat="43.72103" lon="6.96764">
        <ele>675.5</ele>
        <time>2009-03-11T15:25:51Z</time>
      </trkpt>
      <trkpt lat="43.72081" lon="6.96742">
        <ele>675.9</ele>
        <time>2009-03-11T15:25:55Z</time>
      </trkpt>
      <trkpt lat="43.72053" lon="6.96751">
        <ele>676.4</ele>
        <time>2009-03-11T15:25:59Z</time>
      </trkpt>
      <trkpt lat="43.72023" lon="6.96747">
        <ele>674.5</ele>
        <time>2009-03-11T15:26:03Z</time>
      </trkpt>
      <trkpt lat="43.71996" lon="6.96732">
        <ele>674</ele>
        <time>2009-03-11T15:26:07Z</time>
      </trkpt>
      <trkpt lat="43.71973" lon="6.96711">
        <ele>673.5</ele>
        <time>2009-03-11T15:26:11Z</time>
      </trkpt>
      <trkpt lat="43.71948" lon="6.96691">
        <ele>672.6</ele>
        <time>2009-03-11T15:26:15Z</time>
      </trkpt>
      <trkpt lat="43.71915" lon="6.96689">
        <ele>673.1</ele>
        <time>2009-03-11T15:26:20Z</time>
      </trkpt>
      <trkpt lat="43.71895" lon="6.96718">
        <ele>671.6</ele>
        <time>2009-03-11T15:26:24Z</time>
      </trkpt>
      <trkpt lat="43.71878" lon="6.96754">
        <ele>670.2</ele>
        <time>2009-03-11T15:26:28Z</time>
      </trkpt>
      <trkpt lat="43.71859" lon="6.96788">
        <ele>669.7</ele>
        <time>2009-03-11T15:26:32Z</time>
      </trkpt>
      <trkpt lat="43.71838" lon="6.96815">
        <ele>670.2</ele>
        <time>2009-03-11T15:26:36Z</time>
      </trkpt>
      <trkpt lat="43.7182" lon="6.96842">
        <ele>669.7</ele>
        <time>2009-03-11T15:26:40Z</time>
      </trkpt>
      <trkpt lat="43.7181" lon="6.96884">
        <ele>670.7</ele>
        <time>2009-03-11T15:26:45Z</time>
      </trkpt>
      <trkpt lat="43.71811" lon="6.96925">
        <ele>671.6</ele>
        <time>2009-03-11T15:26:50Z</time>
      </trkpt>
      <trkpt lat="43.718" lon="6.96968">
        <ele>672.6</ele>
        <time>2009-03-11T15:26:56Z</time>
      </trkpt>
      <trkpt lat="43.71785" lon="6.97001">
        <ele>672.1</ele>
        <time>2009-03-11T15:27:02Z</time>
      </trkpt>
      <trkpt lat="43.7178" lon="6.97039">
        <ele>673.1</ele>
        <time>2009-03-11T15:27:08Z</time>
      </trkpt>
      <trkpt lat="43.71782" lon="6.97083">
        <ele>674</ele>
        <time>2009-03-11T15:27:14Z</time>
      </trkpt>
      <trkpt lat="43.71775" lon="6.97123">
        <ele>674.5</ele>
        <time>2009-03-11T15:27:20Z</time>
      </trkpt>
      <trkpt lat="43.71763" lon="6.97161">
        <ele>675</ele>
        <time>2009-03-11T15:27:26Z</time>
      </trkpt>
      <trkpt lat="43.7175" lon="6.97193">
        <ele>671.6</ele>
        <time>2009-03-11T15:27:33Z</time>
      </trkpt>
      <trkpt lat="43.71741" lon="6.97226">
        <ele>671.6</ele>
        <time>2009-03-11T15:27:40Z</time>
      </trkpt>
      <trkpt lat="43.71724" lon="6.97262">
        <ele>672.6</ele>
        <time>2009-03-11T15:27:48Z</time>
      </trkpt>
      <trkpt lat="43.717" lon="6.97288">
        <ele>674.5</ele>
        <time>2009-03-11T15:27:56Z</time>
      </trkpt>
      <trkpt lat="43.71678" lon="6.97318">
        <ele>675.9</ele>
        <time>2009-03-11T15:28:04Z</time>
      </trkpt>
      <trkpt lat="43.71655" lon="6.97343">
        <ele>677.4</ele>
        <time>2009-03-11T15:28:12Z</time>
      </trkpt>
      <trkpt lat="43.71629" lon="6.97359">
        <ele>678.8</ele>
        <time>2009-03-11T15:28:20Z</time>
      </trkpt>
      <trkpt lat="43.71603" lon="6.97349">
        <ele>679.8</ele>
        <time>2009-03-11T15:28:28Z</time>
      </trkpt>
      <trkpt lat="43.71575" lon="6.97351">
        <ele>680.8</ele>
        <time>2009-03-11T15:28:36Z</time>
      </trkpt>
      <trkpt lat="43.71547" lon="6.9736">
        <ele>679.8</ele>
        <time>2009-03-11T15:28:43Z</time>
      </trkpt>
      <trkpt lat="43.71519" lon="6.97353">
        <ele>676.4</ele>
        <time>2009-03-11T15:28:49Z</time>
      </trkpt>
      <trkpt lat="43.71493" lon="6.97348">
        <ele>676.4</ele>
        <time>2009-03-11T15:28:55Z</time>
      </trkpt>
      <trkpt lat="43.71461" lon="6.97351">
        <ele>676.4</ele>
        <time>2009-03-11T15:29:01Z</time>
      </trkpt>
      <trkpt lat="43.71432" lon="6.97342">
        <ele>675</ele>
        <time>2009-03-11T15:29:07Z</time>
      </trkpt>
      <trkpt lat="43.714" lon="6.97339">
        <ele>674.5</ele>
        <time>2009-03-11T15:29:14Z</time>
      </trkpt>
      <trkpt lat="43.71371" lon="6.97348">
        <ele>674.5</ele>
        <time>2009-03-11T15:29:20Z</time>
      </trkpt>
      <trkpt lat="43.71339" lon="6.97356">
        <ele>674</ele>
        <time>2009-03-11T15:29:26Z</time>
      </trkpt>
      <trkpt lat="43.71312" lon="6.97353">
        <ele>672.6</ele>
        <time>2009-03-11T15:29:31Z</time>
      </trkpt>
      <trkpt lat="43.71288" lon="6.97324">
        <ele>671.6</ele>
        <time>2009-03-11T15:29:37Z</time>
      </trkpt>
      <trkpt lat="43.71272" lon="6.97293">
        <ele>671.1</ele>
        <time>2009-03-11T15:29:42Z</time>
      </trkpt>
      <trkpt lat="43.71247" lon="6.97277">
        <ele>671.6</ele>
        <time>2009-03-11T15:29:47Z</time>
      </trkpt>
      <trkpt lat="43.71219" lon="6.97264">
        <ele>671.1</ele>
        <time>2009-03-11T15:29:52Z</time>
      </trkpt>
      <trkpt lat="43.71192" lon="6.97252">
        <ele>671.1</ele>
        <time>2009-03-11T15:29:57Z</time>
      </trkpt>
      <trkpt lat="43.71163" lon="6.9725">
        <ele>673.1</ele>
        <time>2009-03-11T15:30:02Z</time>
      </trkpt>
      <trkpt lat="43.71135" lon="6.97256">
        <ele>673.5</ele>
        <time>2009-03-11T15:30:07Z</time>
      </trkpt>
      <trkpt lat="43.71106" lon="6.97252">
        <ele>671.6</ele>
        <time>2009-03-11T15:30:12Z</time>
      </trkpt>
      <trkpt lat="43.71079" lon="6.97233">
        <ele>671.6</ele>
        <time>2009-03-11T15:30:17Z</time>
      </trkpt>
      <trkpt lat="43.71055" lon="6.97216">
        <ele>672.1</ele>
        <time>2009-03-11T15:30:22Z</time>
      </trkpt>
      <trkpt lat="43.71024" lon="6.97207">
        <ele>671.1</ele>
        <time>2009-03-11T15:30:28Z</time>
      </trkpt>
      <trkpt lat="43.70997" lon="6.97229">
        <ele>671.1</ele>
        <time>2009-03-11T15:30:33Z</time>
      </trkpt>
      <trkpt lat="43.70987" lon="6.97267">
        <ele>672.1</ele>
        <time>2009-03-11T15:30:38Z</time>
      </trkpt>
      <trkpt lat="43.70988" lon="6.97311">
        <ele>672.6</ele>
        <time>2009-03-11T15:30:43Z</time>
      </trkpt>
      <trkpt lat="43.70989" lon="6.97355">
        <ele>673.1</ele>
        <time>2009-03-11T15:30:48Z</time>
      </trkpt>
      <trkpt lat="43.70988" lon="6.97398">
        <ele>672.6</ele>
        <time>2009-03-11T15:30:53Z</time>
      </trkpt>
      <trkpt lat="43.70979" lon="6.9744">
        <ele>671.1</ele>
        <time>2009-03-11T15:30:58Z</time>
      </trkpt>
      <trkpt lat="43.7096" lon="6.97472">
        <ele>669.7</ele>
        <time>2009-03-11T15:31:03Z</time>
      </trkpt>
      <trkpt lat="43.70934" lon="6.97491">
        <ele>669.7</ele>
        <time>2009-03-11T15:31:08Z</time>
      </trkpt>
      <trkpt lat="43.70904" lon="6.97505">
        <ele>669.7</ele>
        <time>2009-03-11T15:31:13Z</time>
      </trkpt>
      <trkpt lat="43.70874" lon="6.97513">
        <ele>668.3</ele>
        <time>2009-03-11T15:31:18Z</time>
      </trkpt>
      <trkpt lat="43.70842" lon="6.97514">
        <ele>665.4</ele>
        <time>2009-03-11T15:31:23Z</time>
      </trkpt>
      <trkpt lat="43.7081" lon="6.97502">
        <ele>663.9</ele>
        <time>2009-03-11T15:31:28Z</time>
      </trkpt>
      <trkpt lat="43.70787" lon="6.9748">
        <ele>662</ele>
        <time>2009-03-11T15:31:32Z</time>
      </trkpt>
      <trkpt lat="43.70773" lon="6.97438">
        <ele>661</ele>
        <time>2009-03-11T15:31:37Z</time>
      </trkpt>
      <trkpt lat="43.7077" lon="6.9739">
        <ele>658.6</ele>
        <time>2009-03-11T15:31:42Z</time>
      </trkpt>
      <trkpt lat="43.70768" lon="6.9734">
        <ele>657.7</ele>
        <time>2009-03-11T15:31:47Z</time>
      </trkpt>
      <trkpt lat="43.70763" lon="6.97302">
        <ele>658.2</ele>
        <time>2009-03-11T15:31:51Z</time>
      </trkpt>
      <trkpt lat="43.70753" lon="6.97265">
        <ele>658.6</ele>
        <time>2009-03-11T15:31:55Z</time>
      </trkpt>
      <trkpt lat="43.70737" lon="6.97233">
        <ele>658.2</ele>
        <time>2009-03-11T15:31:59Z</time>
      </trkpt>
      <trkpt lat="43.70718" lon="6.97207">
        <ele>656.7</ele>
        <time>2009-03-11T15:32:03Z</time>
      </trkpt>
      <trkpt lat="43.70693" lon="6.97187">
        <ele>656.2</ele>
        <time>2009-03-11T15:32:07Z</time>
      </trkpt>
      <trkpt lat="43.70667" lon="6.97173">
        <ele>655.3</ele>
        <time>2009-03-11T15:32:11Z</time>
      </trkpt>
      <trkpt lat="43.7064" lon="6.97163">
        <ele>653.4</ele>
        <time>2009-03-11T15:32:15Z</time>
      </trkpt>
      <trkpt lat="43.70606" lon="6.97159">
        <ele>651.9</ele>
        <time>2009-03-11T15:32:20Z</time>
      </trkpt>
      <trkpt lat="43.7057" lon="6.97159">
        <ele>649.5</ele>
        <time>2009-03-11T15:32:25Z</time>
      </trkpt>
      <trkpt lat="43.70538" lon="6.97154">
        <ele>648.5</ele>
        <time>2009-03-11T15:32:30Z</time>
      </trkpt>
      <trkpt lat="43.70506" lon="6.97139">
        <ele>647.6</ele>
        <time>2009-03-11T15:32:35Z</time>
      </trkpt>
      <trkpt lat="43.70477" lon="6.97118">
        <ele>643.7</ele>
        <time>2009-03-11T15:32:40Z</time>
      </trkpt>
      <trkpt lat="43.70455" lon="6.97095">
        <ele>643.7</ele>
        <time>2009-03-11T15:32:44Z</time>
      </trkpt>
      <trkpt lat="43.70432" lon="6.9707">
        <ele>642.3</ele>
        <time>2009-03-11T15:32:48Z</time>
      </trkpt>
      <trkpt lat="43.70409" lon="6.97045">
        <ele>641.3</ele>
        <time>2009-03-11T15:32:52Z</time>
      </trkpt>
      <trkpt lat="43.70389" lon="6.97017">
        <ele>641.8</ele>
        <time>2009-03-11T15:32:56Z</time>
      </trkpt>
      <trkpt lat="43.70378" lon="6.96979">
        <ele>641.3</ele>
        <time>2009-03-11T15:33:00Z</time>
      </trkpt>
      <trkpt lat="43.70372" lon="6.96937">
        <ele>640.9</ele>
        <time>2009-03-11T15:33:04Z</time>
      </trkpt>
      <trkpt lat="43.70367" lon="6.96894">
        <ele>639.4</ele>
        <time>2009-03-11T15:33:08Z</time>
      </trkpt>
      <trkpt lat="43.70362" lon="6.96852">
        <ele>638.5</ele>
        <time>2009-03-11T15:33:12Z</time>
      </trkpt>
      <trkpt lat="43.70356" lon="6.96812">
        <ele>638</ele>
        <time>2009-03-11T15:33:16Z</time>
      </trkpt>
      <trkpt lat="43.70355" lon="6.9677">
        <ele>634.6</ele>
        <time>2009-03-11T15:33:20Z</time>
      </trkpt>
      <trkpt lat="43.7035" lon="6.96725">
        <ele>635.1</ele>
        <time>2009-03-11T15:33:24Z</time>
      </trkpt>
      <trkpt lat="43.70341" lon="6.96682">
        <ele>635.6</ele>
        <time>2009-03-11T15:33:28Z</time>
      </trkpt>
      <trkpt lat="43.70332" lon="6.96638">
        <ele>634.1</ele>
        <time>2009-03-11T15:33:32Z</time>
      </trkpt>
      <trkpt lat="43.70324" lon="6.96594">
        <ele>633.6</ele>
        <time>2009-03-11T15:33:36Z</time>
      </trkpt>
      <trkpt lat="43.70316" lon="6.9655">
        <ele>632.7</ele>
        <time>2009-03-11T15:33:40Z</time>
      </trkpt>
      <trkpt lat="43.70309" lon="6.96505">
        <ele>633.2</ele>
        <time>2009-03-11T15:33:44Z</time>
      </trkpt>
      <trkpt lat="43.70301" lon="6.96462">
        <ele>632.7</ele>
        <time>2009-03-11T15:33:48Z</time>
      </trkpt>
      <trkpt lat="43.70292" lon="6.96421">
        <ele>632.7</ele>
        <time>2009-03-11T15:33:52Z</time>
      </trkpt>
      <trkpt lat="43.70278" lon="6.96382">
        <ele>635.1</ele>
        <time>2009-03-11T15:33:56Z</time>
      </trkpt>
      <trkpt lat="43.70261" lon="6.96347">
        <ele>635.6</ele>
        <time>2009-03-11T15:34:00Z</time>
      </trkpt>
      <trkpt lat="43.70245" lon="6.96311">
        <ele>634.6</ele>
        <time>2009-03-11T15:34:04Z</time>
      </trkpt>
      <trkpt lat="43.7023" lon="6.96275">
        <ele>632.7</ele>
        <time>2009-03-11T15:34:08Z</time>
      </trkpt>
      <trkpt lat="43.70214" lon="6.96243">
        <ele>631.7</ele>
        <time>2009-03-11T15:34:12Z</time>
      </trkpt>
      <trkpt lat="43.70194" lon="6.96217">
        <ele>629.3</ele>
        <time>2009-03-11T15:34:16Z</time>
      </trkpt>
      <trkpt lat="43.70171" lon="6.96195">
        <ele>628.4</ele>
        <time>2009-03-11T15:34:20Z</time>
      </trkpt>
      <trkpt lat="43.70147" lon="6.96175">
        <ele>626.9</ele>
        <time>2009-03-11T15:34:24Z</time>
      </trkpt>
      <trkpt lat="43.70123" lon="6.96155">
        <ele>624.5</ele>
        <time>2009-03-11T15:34:28Z</time>
      </trkpt>
      <trkpt lat="43.70097" lon="6.96135">
        <ele>623.1</ele>
        <time>2009-03-11T15:34:32Z</time>
      </trkpt>
      <trkpt lat="43.70073" lon="6.96117">
        <ele>623.1</ele>
        <time>2009-03-11T15:34:36Z</time>
      </trkpt>
      <trkpt lat="43.70046" lon="6.96098">
        <ele>623.6</ele>
        <time>2009-03-11T15:34:41Z</time>
      </trkpt>
      <trkpt lat="43.70017" lon="6.96103">
        <ele>624</ele>
        <time>2009-03-11T15:34:46Z</time>
      </trkpt>
      <trkpt lat="43.69999" lon="6.96135">
        <ele>625</ele>
        <time>2009-03-11T15:34:51Z</time>
      </trkpt>
      <trkpt lat="43.70006" lon="6.96174">
        <ele>622.1</ele>
        <time>2009-03-11T15:34:56Z</time>
      </trkpt>
      <trkpt lat="43.70029" lon="6.96206">
        <ele>619.7</ele>
        <time>2009-03-11T15:35:01Z</time>
      </trkpt>
      <trkpt lat="43.70048" lon="6.96232">
        <ele>618.3</ele>
        <time>2009-03-11T15:35:05Z</time>
      </trkpt>
      <trkpt lat="43.70067" lon="6.9626">
        <ele>616.8</ele>
        <time>2009-03-11T15:35:09Z</time>
      </trkpt>
      <trkpt lat="43.70086" lon="6.96289">
        <ele>616.3</ele>
        <time>2009-03-11T15:35:13Z</time>
      </trkpt>
      <trkpt lat="43.70099" lon="6.96322">
        <ele>615.9</ele>
        <time>2009-03-11T15:35:17Z</time>
      </trkpt>
      <trkpt lat="43.70106" lon="6.96365">
        <ele>615.4</ele>
        <time>2009-03-11T15:35:22Z</time>
      </trkpt>
      <trkpt lat="43.70107" lon="6.96412">
        <ele>613.9</ele>
        <time>2009-03-11T15:35:27Z</time>
      </trkpt>
      <trkpt lat="43.70107" lon="6.9645">
        <ele>612.5</ele>
        <time>2009-03-11T15:35:31Z</time>
      </trkpt>
      <trkpt lat="43.70102" lon="6.96488">
        <ele>612.5</ele>
        <time>2009-03-11T15:35:35Z</time>
      </trkpt>
      <trkpt lat="43.70097" lon="6.96525">
        <ele>613.5</ele>
        <time>2009-03-11T15:35:39Z</time>
      </trkpt>
      <trkpt lat="43.70088" lon="6.96562">
        <ele>612.5</ele>
        <time>2009-03-11T15:35:43Z</time>
      </trkpt>
      <trkpt lat="43.70078" lon="6.966">
        <ele>611.1</ele>
        <time>2009-03-11T15:35:47Z</time>
      </trkpt>
      <trkpt lat="43.70064" lon="6.96637">
        <ele>609.1</ele>
        <time>2009-03-11T15:35:51Z</time>
      </trkpt>
      <trkpt lat="43.70042" lon="6.96668">
        <ele>606.2</ele>
        <time>2009-03-11T15:35:55Z</time>
      </trkpt>
      <trkpt lat="43.70014" lon="6.96693">
        <ele>604.8</ele>
        <time>2009-03-11T15:35:59Z</time>
      </trkpt>
      <trkpt lat="43.69983" lon="6.96711">
        <ele>602.4</ele>
        <time>2009-03-11T15:36:03Z</time>
      </trkpt>
      <trkpt lat="43.69949" lon="6.96716">
        <ele>601.4</ele>
        <time>2009-03-11T15:36:07Z</time>
      </trkpt>
      <trkpt lat="43.69917" lon="6.96733">
        <ele>599.5</ele>
        <time>2009-03-11T15:36:11Z</time>
      </trkpt>
      <trkpt lat="43.69889" lon="6.96741">
        <ele>595.7</ele>
        <time>2009-03-11T15:36:14Z</time>
      </trkpt>
      <trkpt lat="43.6986" lon="6.96747">
        <ele>593.3</ele>
        <time>2009-03-11T15:36:17Z</time>
      </trkpt>
      <trkpt lat="43.69831" lon="6.96757">
        <ele>589.9</ele>
        <time>2009-03-11T15:36:20Z</time>
      </trkpt>
      <trkpt lat="43.69798" lon="6.96755">
        <ele>587</ele>
        <time>2009-03-11T15:36:23Z</time>
      </trkpt>
      <trkpt lat="43.6977" lon="6.96733">
        <ele>585.1</ele>
        <time>2009-03-11T15:36:26Z</time>
      </trkpt>
      <trkpt lat="43.69743" lon="6.96711">
        <ele>583.2</ele>
        <time>2009-03-11T15:36:29Z</time>
      </trkpt>
      <trkpt lat="43.69716" lon="6.96689">
        <ele>580.8</ele>
        <time>2009-03-11T15:36:32Z</time>
      </trkpt>
      <trkpt lat="43.69688" lon="6.9667">
        <ele>579.3</ele>
        <time>2009-03-11T15:36:35Z</time>
      </trkpt>
      <trkpt lat="43.69658" lon="6.96666">
        <ele>578.9</ele>
        <time>2009-03-11T15:36:38Z</time>
      </trkpt>
      <trkpt lat="43.69629" lon="6.96684">
        <ele>578.4</ele>
        <time>2009-03-11T15:36:41Z</time>
      </trkpt>
      <trkpt lat="43.69608" lon="6.96718">
        <ele>576.4</ele>
        <time>2009-03-11T15:36:44Z</time>
      </trkpt>
      <trkpt lat="43.69602" lon="6.96762">
        <ele>574</ele>
        <time>2009-03-11T15:36:47Z</time>
      </trkpt>
      <trkpt lat="43.69606" lon="6.96806">
        <ele>570.7</ele>
        <time>2009-03-11T15:36:50Z</time>
      </trkpt>
      <trkpt lat="43.69602" lon="6.96853">
        <ele>567.8</ele>
        <time>2009-03-11T15:36:53Z</time>
      </trkpt>
      <trkpt lat="43.6958" lon="6.96888">
        <ele>564.9</ele>
        <time>2009-03-11T15:36:56Z</time>
      </trkpt>
      <trkpt lat="43.69554" lon="6.96916">
        <ele>561.5</ele>
        <time>2009-03-11T15:36:59Z</time>
      </trkpt>
      <trkpt lat="43.69531" lon="6.96949">
        <ele>559.6</ele>
        <time>2009-03-11T15:37:02Z</time>
      </trkpt>
      <trkpt lat="43.6952" lon="6.96994">
        <ele>555.8</ele>
        <time>2009-03-11T15:37:05Z</time>
      </trkpt>
      <trkpt lat="43.69506" lon="6.97039">
        <ele>552.9</ele>
        <time>2009-03-11T15:37:08Z</time>
      </trkpt>
      <trkpt lat="43.69476" lon="6.97065">
        <ele>548.6</ele>
        <time>2009-03-11T15:37:11Z</time>
      </trkpt>
      <trkpt lat="43.69442" lon="6.97086">
        <ele>548.1</ele>
        <time>2009-03-11T15:37:14Z</time>
      </trkpt>
      <trkpt lat="43.69416" lon="6.97117">
        <ele>544.2</ele>
        <time>2009-03-11T15:37:17Z</time>
      </trkpt>
      <trkpt lat="43.69387" lon="6.97148">
        <ele>540.4</ele>
        <time>2009-03-11T15:37:20Z</time>
      </trkpt>
      <trkpt lat="43.69353" lon="6.97165">
        <ele>537.5</ele>
        <time>2009-03-11T15:37:23Z</time>
      </trkpt>
      <trkpt lat="43.69319" lon="6.97176">
        <ele>536.6</ele>
        <time>2009-03-11T15:37:26Z</time>
      </trkpt>
      <trkpt lat="43.69289" lon="6.97202">
        <ele>534.1</ele>
        <time>2009-03-11T15:37:29Z</time>
      </trkpt>
      <trkpt lat="43.69258" lon="6.97233">
        <ele>531.7</ele>
        <time>2009-03-11T15:37:32Z</time>
      </trkpt>
      <trkpt lat="43.69225" lon="6.97256">
        <ele>526.9</ele>
        <time>2009-03-11T15:37:35Z</time>
      </trkpt>
      <trkpt lat="43.69188" lon="6.97263">
        <ele>522.6</ele>
        <time>2009-03-11T15:37:38Z</time>
      </trkpt>
      <trkpt lat="43.69154" lon="6.97277">
        <ele>520.7</ele>
        <time>2009-03-11T15:37:41Z</time>
      </trkpt>
      <trkpt lat="43.69127" lon="6.97311">
        <ele>518.3</ele>
        <time>2009-03-11T15:37:44Z</time>
      </trkpt>
      <trkpt lat="43.69112" lon="6.97353">
        <ele>514.9</ele>
        <time>2009-03-11T15:37:47Z</time>
      </trkpt>
      <trkpt lat="43.69097" lon="6.97392">
        <ele>510.1</ele>
        <time>2009-03-11T15:37:50Z</time>
      </trkpt>
      <trkpt lat="43.6907" lon="6.97415">
        <ele>507.7</ele>
        <time>2009-03-11T15:37:53Z</time>
      </trkpt>
      <trkpt lat="43.69039" lon="6.97418">
        <ele>502.9</ele>
        <time>2009-03-11T15:37:56Z</time>
      </trkpt>
      <trkpt lat="43.69004" lon="6.97412">
        <ele>498.6</ele>
        <time>2009-03-11T15:37:59Z</time>
      </trkpt>
      <trkpt lat="43.68969" lon="6.97406">
        <ele>494.3</ele>
        <time>2009-03-11T15:38:02Z</time>
      </trkpt>
      <trkpt lat="43.68935" lon="6.974">
        <ele>490.4</ele>
        <time>2009-03-11T15:38:05Z</time>
      </trkpt>
      <trkpt lat="43.68901" lon="6.97392">
        <ele>488.5</ele>
        <time>2009-03-11T15:38:08Z</time>
      </trkpt>
      <trkpt lat="43.68867" lon="6.97385">
        <ele>487</ele>
        <time>2009-03-11T15:38:11Z</time>
      </trkpt>
      <trkpt lat="43.68831" lon="6.97389">
        <ele>485.6</ele>
        <time>2009-03-11T15:38:14Z</time>
      </trkpt>
      <trkpt lat="43.68796" lon="6.97409">
        <ele>485.1</ele>
        <time>2009-03-11T15:38:17Z</time>
      </trkpt>
      <trkpt lat="43.68769" lon="6.97441">
        <ele>481.8</ele>
        <time>2009-03-11T15:38:20Z</time>
      </trkpt>
      <trkpt lat="43.68747" lon="6.97476">
        <ele>477.4</ele>
        <time>2009-03-11T15:38:23Z</time>
      </trkpt>
      <trkpt lat="43.68726" lon="6.97502">
        <ele>473.6</ele>
        <time>2009-03-11T15:38:26Z</time>
      </trkpt>
      <trkpt lat="43.68698" lon="6.97511">
        <ele>469.7</ele>
        <time>2009-03-11T15:38:29Z</time>
      </trkpt>
      <trkpt lat="43.68666" lon="6.97506">
        <ele>468.3</ele>
        <time>2009-03-11T15:38:32Z</time>
      </trkpt>
      <trkpt lat="43.68633" lon="6.97498">
        <ele>465.9</ele>
        <time>2009-03-11T15:38:35Z</time>
      </trkpt>
      <trkpt lat="43.68598" lon="6.97494">
        <ele>463</ele>
        <time>2009-03-11T15:38:38Z</time>
      </trkpt>
      <trkpt lat="43.68566" lon="6.9748">
        <ele>461.1</ele>
        <time>2009-03-11T15:38:41Z</time>
      </trkpt>
      <trkpt lat="43.68539" lon="6.97466">
        <ele>460.1</ele>
        <time>2009-03-11T15:38:44Z</time>
      </trkpt>
      <trkpt lat="43.6851" lon="6.97476">
        <ele>457.7</ele>
        <time>2009-03-11T15:38:47Z</time>
      </trkpt>
      <trkpt lat="43.68478" lon="6.97475">
        <ele>453.9</ele>
        <time>2009-03-11T15:38:50Z</time>
      </trkpt>
      <trkpt lat="43.68449" lon="6.97451">
        <ele>451.5</ele>
        <time>2009-03-11T15:38:53Z</time>
      </trkpt>
      <trkpt lat="43.68418" lon="6.9743">
        <ele>448.1</ele>
        <time>2009-03-11T15:38:56Z</time>
      </trkpt>
      <trkpt lat="43.68389" lon="6.97403">
        <ele>445.7</ele>
        <time>2009-03-11T15:38:59Z</time>
      </trkpt>
      <trkpt lat="43.6837" lon="6.97365">
        <ele>443.8</ele>
        <time>2009-03-11T15:39:02Z</time>
      </trkpt>
      <trkpt lat="43.68354" lon="6.97324">
        <ele>442.8</ele>
        <time>2009-03-11T15:39:05Z</time>
      </trkpt>
      <trkpt lat="43.6833" lon="6.97292">
        <ele>440.9</ele>
        <time>2009-03-11T15:39:08Z</time>
      </trkpt>
      <trkpt lat="43.68303" lon="6.97266">
        <ele>438</ele>
        <time>2009-03-11T15:39:11Z</time>
      </trkpt>
      <trkpt lat="43.68273" lon="6.97241">
        <ele>434.2</ele>
        <time>2009-03-11T15:39:14Z</time>
      </trkpt>
      <trkpt lat="43.68249" lon="6.97206">
        <ele>430.8</ele>
        <time>2009-03-11T15:39:17Z</time>
      </trkpt>
      <trkpt lat="43.68237" lon="6.97166">
        <ele>428.4</ele>
        <time>2009-03-11T15:39:20Z</time>
      </trkpt>
      <trkpt lat="43.68225" lon="6.97123">
        <ele>426.5</ele>
        <time>2009-03-11T15:39:24Z</time>
      </trkpt>
      <trkpt lat="43.68199" lon="6.97106">
        <ele>425.5</ele>
        <time>2009-03-11T15:39:28Z</time>
      </trkpt>
      <trkpt lat="43.6817" lon="6.97121">
        <ele>423.1</ele>
        <time>2009-03-11T15:39:33Z</time>
      </trkpt>
      <trkpt lat="43.68141" lon="6.97147">
        <ele>418.8</ele>
        <time>2009-03-11T15:39:37Z</time>
      </trkpt>
      <trkpt lat="43.68114" lon="6.9717">
        <ele>415.9</ele>
        <time>2009-03-11T15:39:41Z</time>
      </trkpt>
      <trkpt lat="43.68089" lon="6.97177">
        <ele>412.1</ele>
        <time>2009-03-11T15:39:48Z</time>
      </trkpt>
      <trkpt lat="43.68067" lon="6.97153">
        <ele>410.6</ele>
        <time>2009-03-11T15:39:56Z</time>
      </trkpt>
      <trkpt lat="43.68043" lon="6.97138">
        <ele>411.6</ele>
        <time>2009-03-11T15:40:02Z</time>
      </trkpt>
      <trkpt lat="43.68017" lon="6.97163">
        <ele>410.1</ele>
        <time>2009-03-11T15:40:07Z</time>
      </trkpt>
      <trkpt lat="43.67993" lon="6.97191">
        <ele>407.7</ele>
        <time>2009-03-11T15:40:13Z</time>
      </trkpt>
      <trkpt lat="43.67971" lon="6.97222">
        <ele>407.3</ele>
        <time>2009-03-11T15:40:18Z</time>
      </trkpt>
      <trkpt lat="43.67949" lon="6.97254">
        <ele>405.8</ele>
        <time>2009-03-11T15:40:23Z</time>
      </trkpt>
      <trkpt lat="43.67928" lon="6.97284">
        <ele>403.4</ele>
        <time>2009-03-11T15:40:28Z</time>
      </trkpt>
      <trkpt lat="43.67897" lon="6.97301">
        <ele>404.4</ele>
        <time>2009-03-11T15:40:35Z</time>
      </trkpt>
      <trkpt lat="43.67872" lon="6.97327">
        <ele>402</ele>
        <time>2009-03-11T15:40:40Z</time>
      </trkpt>
      <trkpt lat="43.67857" lon="6.97366">
        <ele>402</ele>
        <time>2009-03-11T15:40:45Z</time>
      </trkpt>
      <trkpt lat="43.67839" lon="6.97403">
        <ele>400.5</ele>
        <time>2009-03-11T15:40:50Z</time>
      </trkpt>
      <trkpt lat="43.6781" lon="6.97422">
        <ele>399.1</ele>
        <time>2009-03-11T15:40:55Z</time>
      </trkpt>
      <trkpt lat="43.67783" lon="6.97435">
        <ele>396.7</ele>
        <time>2009-03-11T15:40:59Z</time>
      </trkpt>
      <trkpt lat="43.67753" lon="6.97438">
        <ele>395.7</ele>
        <time>2009-03-11T15:41:05Z</time>
      </trkpt>
      <trkpt lat="43.67726" lon="6.97457">
        <ele>395.7</ele>
        <time>2009-03-11T15:41:11Z</time>
      </trkpt>
      <trkpt lat="43.67699" lon="6.97472">
        <ele>394.3</ele>
        <time>2009-03-11T15:41:15Z</time>
      </trkpt>
      <trkpt lat="43.67673" lon="6.97487">
        <ele>393.8</ele>
        <time>2009-03-11T15:41:19Z</time>
      </trkpt>
      <trkpt lat="43.67645" lon="6.97513">
        <ele>395.2</ele>
        <time>2009-03-11T15:41:24Z</time>
      </trkpt>
      <trkpt lat="43.67627" lon="6.97549">
        <ele>395.7</ele>
        <time>2009-03-11T15:41:29Z</time>
      </trkpt>
      <trkpt lat="43.67612" lon="6.97589">
        <ele>396.2</ele>
        <time>2009-03-11T15:41:34Z</time>
      </trkpt>
      <trkpt lat="43.67594" lon="6.97624">
        <ele>394.8</ele>
        <time>2009-03-11T15:41:39Z</time>
      </trkpt>
      <trkpt lat="43.67573" lon="6.97655">
        <ele>393.3</ele>
        <time>2009-03-11T15:41:44Z</time>
      </trkpt>
      <trkpt lat="43.67545" lon="6.97684">
        <ele>390.4</ele>
        <time>2009-03-11T15:41:49Z</time>
      </trkpt>
      <trkpt lat="43.67527" lon="6.97722">
        <ele>387.5</ele>
        <time>2009-03-11T15:41:53Z</time>
      </trkpt>
      <trkpt lat="43.67506" lon="6.9775">
        <ele>383.7</ele>
        <time>2009-03-11T15:41:56Z</time>
      </trkpt>
      <trkpt lat="43.67481" lon="6.97771">
        <ele>381.8</ele>
        <time>2009-03-11T15:41:59Z</time>
      </trkpt>
      <trkpt lat="43.67457" lon="6.97792">
        <ele>379.4</ele>
        <time>2009-03-11T15:42:02Z</time>
      </trkpt>
      <trkpt lat="43.67446" lon="6.97826">
        <ele>377.9</ele>
        <time>2009-03-11T15:42:06Z</time>
      </trkpt>
      <trkpt lat="43.6747" lon="6.97832">
        <ele>374.6</ele>
        <time>2009-03-11T15:42:10Z</time>
      </trkpt>
      <trkpt lat="43.67497" lon="6.97799">
        <ele>371.7</ele>
        <time>2009-03-11T15:42:14Z</time>
      </trkpt>
      <trkpt lat="43.67526" lon="6.97778">
        <ele>369.3</ele>
        <time>2009-03-11T15:42:17Z</time>
      </trkpt>
      <trkpt lat="43.67558" lon="6.97757">
        <ele>365.4</ele>
        <time>2009-03-11T15:42:20Z</time>
      </trkpt>
      <trkpt lat="43.67589" lon="6.97735">
        <ele>363</ele>
        <time>2009-03-11T15:42:23Z</time>
      </trkpt>
      <trkpt lat="43.67613" lon="6.97714">
        <ele>362.1</ele>
        <time>2009-03-11T15:42:26Z</time>
      </trkpt>
      <trkpt lat="43.67639" lon="6.97725">
        <ele>363.5</ele>
        <time>2009-03-11T15:42:30Z</time>
      </trkpt>
      <trkpt lat="43.67627" lon="6.97757">
        <ele>360.6</ele>
        <time>2009-03-11T15:42:34Z</time>
      </trkpt>
      <trkpt lat="43.67601" lon="6.9779">
        <ele>357.7</ele>
        <time>2009-03-11T15:42:38Z</time>
      </trkpt>
      <trkpt lat="43.67582" lon="6.97827">
        <ele>353.4</ele>
        <time>2009-03-11T15:42:41Z</time>
      </trkpt>
      <trkpt lat="43.67562" lon="6.97868">
        <ele>350.5</ele>
        <time>2009-03-11T15:42:44Z</time>
      </trkpt>
      <trkpt lat="43.67539" lon="6.97905">
        <ele>347.2</ele>
        <time>2009-03-11T15:42:47Z</time>
      </trkpt>
      <trkpt lat="43.6751" lon="6.97938">
        <ele>343.3</ele>
        <time>2009-03-11T15:42:50Z</time>
      </trkpt>
      <trkpt lat="43.67479" lon="6.97969">
        <ele>339</ele>
        <time>2009-03-11T15:42:53Z</time>
      </trkpt>
      <trkpt lat="43.67449" lon="6.97997">
        <ele>334.2</ele>
        <time>2009-03-11T15:42:56Z</time>
      </trkpt>
      <trkpt lat="43.67419" lon="6.9803">
        <ele>330.8</ele>
        <time>2009-03-11T15:42:59Z</time>
      </trkpt>
      <trkpt lat="43.67388" lon="6.98067">
        <ele>327.5</ele>
        <time>2009-03-11T15:43:02Z</time>
      </trkpt>
      <trkpt lat="43.67367" lon="6.98094">
        <ele>326</ele>
        <time>2009-03-11T15:43:04Z</time>
      </trkpt>
      <trkpt lat="43.67343" lon="6.98118">
        <ele>322.7</ele>
        <time>2009-03-11T15:43:06Z</time>
      </trkpt>
      <trkpt lat="43.67318" lon="6.9814">
        <ele>320.7</ele>
        <time>2009-03-11T15:43:08Z</time>
      </trkpt>
      <trkpt lat="43.67292" lon="6.98161">
        <ele>317.9</ele>
        <time>2009-03-11T15:43:10Z</time>
      </trkpt>
      <trkpt lat="43.67266" lon="6.9818">
        <ele>314.5</ele>
        <time>2009-03-11T15:43:12Z</time>
      </trkpt>
      <trkpt lat="43.67241" lon="6.98201">
        <ele>307.8</ele>
        <time>2009-03-11T15:43:14Z</time>
      </trkpt>
      <trkpt lat="43.67218" lon="6.98232">
        <ele>301.5</ele>
        <time>2009-03-11T15:43:16Z</time>
      </trkpt>
      <trkpt lat="43.67194" lon="6.98262">
        <ele>294.8</ele>
        <time>2009-03-11T15:43:18Z</time>
      </trkpt>
      <trkpt lat="43.67167" lon="6.98284">
        <ele>289</ele>
        <time>2009-03-11T15:43:20Z</time>
      </trkpt>
      <trkpt lat="43.67139" lon="6.98303">
        <ele>283.7</ele>
        <time>2009-03-11T15:43:22Z</time>
      </trkpt>
      <trkpt lat="43.6711" lon="6.98321">
        <ele>278.9</ele>
        <time>2009-03-11T15:43:24Z</time>
      </trkpt>
      <trkpt lat="43.67081" lon="6.98338">
        <ele>274.6</ele>
        <time>2009-03-11T15:43:26Z</time>
      </trkpt>
      <trkpt lat="43.67052" lon="6.98355">
        <ele>269.8</ele>
        <time>2009-03-11T15:43:28Z</time>
      </trkpt>
      <trkpt lat="43.67024" lon="6.98372">
        <ele>266.9</ele>
        <time>2009-03-11T15:43:30Z</time>
      </trkpt>
      <trkpt lat="43.66997" lon="6.9839">
        <ele>264.5</ele>
        <time>2009-03-11T15:43:32Z</time>
      </trkpt>
      <trkpt lat="43.66975" lon="6.98412">
        <ele>263.5</ele>
        <time>2009-03-11T15:43:34Z</time>
      </trkpt>
      <trkpt lat="43.66941" lon="6.98439">
        <ele>261.1</ele>
        <time>2009-03-11T15:43:37Z</time>
      </trkpt>
      <trkpt lat="43.66907" lon="6.98444">
        <ele>260.2</ele>
        <time>2009-03-11T15:43:40Z</time>
      </trkpt>
      <trkpt lat="43.6688" lon="6.98448">
        <ele>259.7</ele>
        <time>2009-03-11T15:43:43Z</time>
      </trkpt>
      <trkpt lat="43.66853" lon="6.9845">
        <ele>257.8</ele>
        <time>2009-03-11T15:43:48Z</time>
      </trkpt>
      <trkpt lat="43.66825" lon="6.98443">
        <ele>256.3</ele>
        <time>2009-03-11T15:43:55Z</time>
      </trkpt>
      <trkpt lat="43.66797" lon="6.98445">
        <ele>256.8</ele>
        <time>2009-03-11T15:44:00Z</time>
      </trkpt>
      <trkpt lat="43.66792" lon="6.98481">
        <ele>255.8</ele>
        <time>2009-03-11T15:44:05Z</time>
      </trkpt>
      <trkpt lat="43.66778" lon="6.98505">
        <ele>253.4</ele>
        <time>2009-03-11T15:44:15Z</time>
      </trkpt>
      <trkpt lat="43.66753" lon="6.98494">
        <ele>253</ele>
        <time>2009-03-11T15:44:23Z</time>
      </trkpt>
      <trkpt lat="43.66777" lon="6.98501">
        <ele>260.7</ele>
        <time>2009-03-11T15:48:52Z</time>
      </trkpt>
      <trkpt lat="43.66796" lon="6.98508">
        <ele>257.8</ele>
        <time>2009-03-11T15:49:04Z</time>
      </trkpt>
      <trkpt lat="43.66818" lon="6.98487">
        <ele>255.4</ele>
        <time>2009-03-11T15:49:17Z</time>
      </trkpt>
      <trkpt lat="43.66831" lon="6.98457">
        <ele>255.8</ele>
        <time>2009-03-11T15:49:25Z</time>
      </trkpt>
      <trkpt lat="43.66809" lon="6.98439">
        <ele>258.3</ele>
        <time>2009-03-11T15:49:32Z</time>
      </trkpt>
      <trkpt lat="43.66783" lon="6.98455">
        <ele>257.3</ele>
        <time>2009-03-11T15:49:37Z</time>
      </trkpt>
      <trkpt lat="43.66756" lon="6.98458">
        <ele>256.3</ele>
        <time>2009-03-11T15:49:41Z</time>
      </trkpt>
      <trkpt lat="43.66727" lon="6.98456">
        <ele>254.9</ele>
        <time>2009-03-11T15:49:45Z</time>
      </trkpt>
      <trkpt lat="43.66692" lon="6.98461">
        <ele>255.8</ele>
        <time>2009-03-11T15:49:50Z</time>
      </trkpt>
      <trkpt lat="43.66666" lon="6.98474">
        <ele>254.9</ele>
        <time>2009-03-11T15:49:54Z</time>
      </trkpt>
      <trkpt lat="43.6664" lon="6.98489">
        <ele>253.4</ele>
        <time>2009-03-11T15:49:58Z</time>
      </trkpt>
      <trkpt lat="43.66613" lon="6.98506">
        <ele>253.4</ele>
        <time>2009-03-11T15:50:02Z</time>
      </trkpt>
      <trkpt lat="43.66586" lon="6.98521">
        <ele>251.5</ele>
        <time>2009-03-11T15:50:06Z</time>
      </trkpt>
      <trkpt lat="43.66559" lon="6.98536">
        <ele>250.6</ele>
        <time>2009-03-11T15:50:10Z</time>
      </trkpt>
      <trkpt lat="43.66534" lon="6.98553">
        <ele>249.1</ele>
        <time>2009-03-11T15:50:14Z</time>
      </trkpt>
      <trkpt lat="43.66509" lon="6.98572">
        <ele>248.6</ele>
        <time>2009-03-11T15:50:18Z</time>
      </trkpt>
      <trkpt lat="43.66484" lon="6.98591">
        <ele>248.6</ele>
        <time>2009-03-11T15:50:22Z</time>
      </trkpt>
      <trkpt lat="43.66458" lon="6.98607">
        <ele>250.1</ele>
        <time>2009-03-11T15:50:26Z</time>
      </trkpt>
      <trkpt lat="43.66431" lon="6.98619">
        <ele>251</ele>
        <time>2009-03-11T15:50:30Z</time>
      </trkpt>
      <trkpt lat="43.66403" lon="6.9863">
        <ele>251.5</ele>
        <time>2009-03-11T15:50:34Z</time>
      </trkpt>
      <trkpt lat="43.66376" lon="6.98639">
        <ele>252</ele>
        <time>2009-03-11T15:50:38Z</time>
      </trkpt>
      <trkpt lat="43.6635" lon="6.9865">
        <ele>252</ele>
        <time>2009-03-11T15:50:42Z</time>
      </trkpt>
      <trkpt lat="43.6632" lon="6.98671">
        <ele>250.6</ele>
        <time>2009-03-11T15:50:47Z</time>
      </trkpt>
      <trkpt lat="43.66294" lon="6.9869">
        <ele>248.2</ele>
        <time>2009-03-11T15:50:51Z</time>
      </trkpt>
      <trkpt lat="43.66269" lon="6.98707">
        <ele>248.6</ele>
        <time>2009-03-11T15:50:55Z</time>
      </trkpt>
      <trkpt lat="43.66237" lon="6.98721">
        <ele>249.6</ele>
        <time>2009-03-11T15:51:00Z</time>
      </trkpt>
      <trkpt lat="43.66207" lon="6.9873">
        <ele>251</ele>
        <time>2009-03-11T15:51:05Z</time>
      </trkpt>
      <trkpt lat="43.66178" lon="6.98738">
        <ele>251</ele>
        <time>2009-03-11T15:51:10Z</time>
      </trkpt>
      <trkpt lat="43.66152" lon="6.98749">
        <ele>252.5</ele>
        <time>2009-03-11T15:51:15Z</time>
      </trkpt>
      <trkpt lat="43.66124" lon="6.98766">
        <ele>252</ele>
        <time>2009-03-11T15:51:21Z</time>
      </trkpt>
      <trkpt lat="43.66106" lon="6.98801">
        <ele>250.6</ele>
        <time>2009-03-11T15:51:27Z</time>
      </trkpt>
      <trkpt lat="43.66095" lon="6.9884">
        <ele>249.6</ele>
        <time>2009-03-11T15:51:33Z</time>
      </trkpt>
      <trkpt lat="43.66087" lon="6.9888">
        <ele>249.1</ele>
        <time>2009-03-11T15:51:39Z</time>
      </trkpt>
      <trkpt lat="43.66078" lon="6.9892">
        <ele>250.1</ele>
        <time>2009-03-11T15:51:45Z</time>
      </trkpt>
      <trkpt lat="43.66069" lon="6.98961">
        <ele>250.6</ele>
        <time>2009-03-11T15:51:51Z</time>
      </trkpt>
      <trkpt lat="43.66057" lon="6.99002">
        <ele>249.1</ele>
        <time>2009-03-11T15:51:57Z</time>
      </trkpt>
      <trkpt lat="43.66043" lon="6.9904">
        <ele>249.1</ele>
        <time>2009-03-11T15:52:03Z</time>
      </trkpt>
      <trkpt lat="43.66029" lon="6.99076">
        <ele>245.3</ele>
        <time>2009-03-11T15:52:08Z</time>
      </trkpt>
      <trkpt lat="43.66013" lon="6.99109">
        <ele>244.3</ele>
        <time>2009-03-11T15:52:13Z</time>
      </trkpt>
      <trkpt lat="43.65996" lon="6.9914">
        <ele>243.8</ele>
        <time>2009-03-11T15:52:18Z</time>
      </trkpt>
      <trkpt lat="43.65974" lon="6.99167">
        <ele>241.9</ele>
        <time>2009-03-11T15:52:23Z</time>
      </trkpt>
      <trkpt lat="43.65952" lon="6.99196">
        <ele>241.4</ele>
        <time>2009-03-11T15:52:28Z</time>
      </trkpt>
      <trkpt lat="43.6593" lon="6.99226">
        <ele>240</ele>
        <time>2009-03-11T15:52:33Z</time>
      </trkpt>
      <trkpt lat="43.65909" lon="6.99255">
        <ele>239</ele>
        <time>2009-03-11T15:52:38Z</time>
      </trkpt>
      <trkpt lat="43.65888" lon="6.99284">
        <ele>238.1</ele>
        <time>2009-03-11T15:52:43Z</time>
      </trkpt>
      <trkpt lat="43.6587" lon="6.99319">
        <ele>239.5</ele>
        <time>2009-03-11T15:52:48Z</time>
      </trkpt>
      <trkpt lat="43.65857" lon="6.9936">
        <ele>240.5</ele>
        <time>2009-03-11T15:52:53Z</time>
      </trkpt>
      <trkpt lat="43.65848" lon="6.99403">
        <ele>240.9</ele>
        <time>2009-03-11T15:52:58Z</time>
      </trkpt>
      <trkpt lat="43.65839" lon="6.99444">
        <ele>242.4</ele>
        <time>2009-03-11T15:53:03Z</time>
      </trkpt>
      <trkpt lat="43.65831" lon="6.99486">
        <ele>242.9</ele>
        <time>2009-03-11T15:53:08Z</time>
      </trkpt>
      <trkpt lat="43.65822" lon="6.99525">
        <ele>240.5</ele>
        <time>2009-03-11T15:53:13Z</time>
      </trkpt>
      <trkpt lat="43.6581" lon="6.99559">
        <ele>239.5</ele>
        <time>2009-03-11T15:53:19Z</time>
      </trkpt>
      <trkpt lat="43.65808" lon="6.99598">
        <ele>240</ele>
        <time>2009-03-11T15:53:25Z</time>
      </trkpt>
      <trkpt lat="43.65794" lon="6.99631">
        <ele>242.4</ele>
        <time>2009-03-11T15:53:35Z</time>
      </trkpt>
      <trkpt lat="43.65777" lon="6.99667">
        <ele>244.8</ele>
        <time>2009-03-11T15:53:49Z</time>
      </trkpt>
      <trkpt lat="43.65761" lon="6.99702">
        <ele>249.1</ele>
        <time>2009-03-11T15:54:04Z</time>
      </trkpt>
      <trkpt lat="43.65745" lon="6.99737">
        <ele>252.5</ele>
        <time>2009-03-11T15:54:17Z</time>
      </trkpt>
      <trkpt lat="43.65731" lon="6.99774">
        <ele>256.8</ele>
        <time>2009-03-11T15:54:29Z</time>
      </trkpt>
      <trkpt lat="43.65715" lon="6.99812">
        <ele>259.2</ele>
        <time>2009-03-11T15:54:45Z</time>
      </trkpt>
      <trkpt lat="43.65698" lon="6.99846">
        <ele>264.5</ele>
        <time>2009-03-11T15:55:01Z</time>
      </trkpt>
      <trkpt lat="43.65679" lon="6.99884">
        <ele>278.9</ele>
        <time>2009-03-11T15:55:24Z</time>
      </trkpt>
      <trkpt lat="43.65661" lon="6.9993">
        <ele>283.2</ele>
        <time>2009-03-11T15:55:48Z</time>
      </trkpt>
      <trkpt lat="43.65657" lon="6.9997">
        <ele>291.4</ele>
        <time>2009-03-11T15:56:03Z</time>
      </trkpt>
      <trkpt lat="43.65643" lon="7.00011">
        <ele>295.3</ele>
        <time>2009-03-11T15:56:18Z</time>
      </trkpt>
      <trkpt lat="43.65617" lon="7.00069">
        <ele>287.1</ele>
        <time>2009-03-11T15:56:35Z</time>
      </trkpt>
      <trkpt lat="43.65588" lon="7.00114">
        <ele>288.1</ele>
        <time>2009-03-11T15:56:57Z</time>
      </trkpt>
      <trkpt lat="43.65562" lon="7.00155">
        <ele>288.1</ele>
        <time>2009-03-11T15:57:15Z</time>
      </trkpt>
      <trkpt lat="43.65532" lon="7.00188">
        <ele>285.2</ele>
        <time>2009-03-11T15:57:32Z</time>
      </trkpt>
      <trkpt lat="43.655" lon="7.00198">
        <ele>279.4</ele>
        <time>2009-03-11T15:57:45Z</time>
      </trkpt>
      <trkpt lat="43.65471" lon="7.00201">
        <ele>276.5</ele>
        <time>2009-03-11T15:57:54Z</time>
      </trkpt>
      <trkpt lat="43.6544" lon="7.00206">
        <ele>275.6</ele>
        <time>2009-03-11T15:58:03Z</time>
      </trkpt>
      <trkpt lat="43.65413" lon="7.00226">
        <ele>275.6</ele>
        <time>2009-03-11T15:58:11Z</time>
      </trkpt>
      <trkpt lat="43.65386" lon="7.00248">
        <ele>275.6</ele>
        <time>2009-03-11T15:58:20Z</time>
      </trkpt>
      <trkpt lat="43.65359" lon="7.00272">
        <ele>274.1</ele>
        <time>2009-03-11T15:58:30Z</time>
      </trkpt>
      <trkpt lat="43.65333" lon="7.00293">
        <ele>274.6</ele>
        <time>2009-03-11T15:58:38Z</time>
      </trkpt>
      <trkpt lat="43.65307" lon="7.00314">
        <ele>276.5</ele>
        <time>2009-03-11T15:58:46Z</time>
      </trkpt>
      <trkpt lat="43.6528" lon="7.00332">
        <ele>278</ele>
        <time>2009-03-11T15:58:54Z</time>
      </trkpt>
      <trkpt lat="43.65253" lon="7.00352">
        <ele>279.4</ele>
        <time>2009-03-11T15:59:02Z</time>
      </trkpt>
      <trkpt lat="43.65224" lon="7.00374">
        <ele>276</ele>
        <time>2009-03-11T15:59:08Z</time>
      </trkpt>
      <trkpt lat="43.65197" lon="7.00388">
        <ele>275.1</ele>
        <time>2009-03-11T15:59:13Z</time>
      </trkpt>
      <trkpt lat="43.65167" lon="7.00401">
        <ele>273.2</ele>
        <time>2009-03-11T15:59:18Z</time>
      </trkpt>
      <trkpt lat="43.6514" lon="7.00413">
        <ele>272.2</ele>
        <time>2009-03-11T15:59:22Z</time>
      </trkpt>
      <trkpt lat="43.65113" lon="7.00441">
        <ele>270.7</ele>
        <time>2009-03-11T15:59:26Z</time>
      </trkpt>
      <trkpt lat="43.65087" lon="7.00473">
        <ele>268.8</ele>
        <time>2009-03-11T15:59:30Z</time>
      </trkpt>
      <trkpt lat="43.65062" lon="7.00508">
        <ele>267.9</ele>
        <time>2009-03-11T15:59:34Z</time>
      </trkpt>
      <trkpt lat="43.65037" lon="7.00543">
        <ele>266.4</ele>
        <time>2009-03-11T15:59:38Z</time>
      </trkpt>
      <trkpt lat="43.65013" lon="7.00583">
        <ele>268.8</ele>
        <time>2009-03-11T15:59:42Z</time>
      </trkpt>
      <trkpt lat="43.64992" lon="7.00619">
        <ele>266.9</ele>
        <time>2009-03-11T15:59:46Z</time>
      </trkpt>
      <trkpt lat="43.64973" lon="7.00654">
        <ele>265</ele>
        <time>2009-03-11T15:59:50Z</time>
      </trkpt>
      <trkpt lat="43.64955" lon="7.00683">
        <ele>264</ele>
        <time>2009-03-11T15:59:54Z</time>
      </trkpt>
      <trkpt lat="43.64934" lon="7.00716">
        <ele>263.1</ele>
        <time>2009-03-11T15:59:59Z</time>
      </trkpt>
      <trkpt lat="43.64916" lon="7.00748">
        <ele>264</ele>
        <time>2009-03-11T16:00:05Z</time>
      </trkpt>
      <trkpt lat="43.64897" lon="7.0078">
        <ele>263.5</ele>
        <time>2009-03-11T16:00:12Z</time>
      </trkpt>
      <trkpt lat="43.6488" lon="7.00811">
        <ele>263.1</ele>
        <time>2009-03-11T16:00:18Z</time>
      </trkpt>
      <trkpt lat="43.64857" lon="7.0084">
        <ele>259.7</ele>
        <time>2009-03-11T16:00:24Z</time>
      </trkpt>
      <trkpt lat="43.64835" lon="7.00863">
        <ele>259.7</ele>
        <time>2009-03-11T16:00:29Z</time>
      </trkpt>
      <trkpt lat="43.64809" lon="7.00887">
        <ele>256.8</ele>
        <time>2009-03-11T16:00:35Z</time>
      </trkpt>
      <trkpt lat="43.64782" lon="7.00879">
        <ele>251.5</ele>
        <time>2009-03-11T16:00:42Z</time>
      </trkpt>
      <trkpt lat="43.64753" lon="7.00852">
        <ele>249.6</ele>
        <time>2009-03-11T16:00:47Z</time>
      </trkpt>
      <trkpt lat="43.64727" lon="7.0082">
        <ele>247.7</ele>
        <time>2009-03-11T16:00:51Z</time>
      </trkpt>
      <trkpt lat="43.64709" lon="7.00788">
        <ele>245.8</ele>
        <time>2009-03-11T16:00:54Z</time>
      </trkpt>
      <trkpt lat="43.64687" lon="7.00755">
        <ele>244.3</ele>
        <time>2009-03-11T16:00:57Z</time>
      </trkpt>
      <trkpt lat="43.64658" lon="7.00734">
        <ele>241.9</ele>
        <time>2009-03-11T16:01:00Z</time>
      </trkpt>
      <trkpt lat="43.64627" lon="7.00717">
        <ele>238.1</ele>
        <time>2009-03-11T16:01:03Z</time>
      </trkpt>
      <trkpt lat="43.64592" lon="7.00712">
        <ele>235.2</ele>
        <time>2009-03-11T16:01:06Z</time>
      </trkpt>
      <trkpt lat="43.6456" lon="7.00716">
        <ele>231.8</ele>
        <time>2009-03-11T16:01:09Z</time>
      </trkpt>
      <trkpt lat="43.64531" lon="7.00719">
        <ele>229.4</ele>
        <time>2009-03-11T16:01:12Z</time>
      </trkpt>
      <trkpt lat="43.64502" lon="7.00723">
        <ele>225.6</ele>
        <time>2009-03-11T16:01:15Z</time>
      </trkpt>
      <trkpt lat="43.64473" lon="7.00723">
        <ele>222.7</ele>
        <time>2009-03-11T16:01:18Z</time>
      </trkpt>
      <trkpt lat="43.64444" lon="7.00722">
        <ele>217.9</ele>
        <time>2009-03-11T16:01:21Z</time>
      </trkpt>
      <trkpt lat="43.64416" lon="7.0071">
        <ele>216.9</ele>
        <time>2009-03-11T16:01:24Z</time>
      </trkpt>
      <trkpt lat="43.64387" lon="7.00704">
        <ele>216.4</ele>
        <time>2009-03-11T16:01:27Z</time>
      </trkpt>
      <trkpt lat="43.64351" lon="7.00706">
        <ele>216</ele>
        <time>2009-03-11T16:01:31Z</time>
      </trkpt>
      <trkpt lat="43.64324" lon="7.00718">
        <ele>214.5</ele>
        <time>2009-03-11T16:01:34Z</time>
      </trkpt>
      <trkpt lat="43.64295" lon="7.00722">
        <ele>213.1</ele>
        <time>2009-03-11T16:01:37Z</time>
      </trkpt>
      <trkpt lat="43.64262" lon="7.00723">
        <ele>210.7</ele>
        <time>2009-03-11T16:01:41Z</time>
      </trkpt>
      <trkpt lat="43.64236" lon="7.00741">
        <ele>201.1</ele>
        <time>2009-03-11T16:01:53Z</time>
      </trkpt>
      <trkpt lat="43.64208" lon="7.00758">
        <ele>196.7</ele>
        <time>2009-03-11T16:01:58Z</time>
      </trkpt>
      <trkpt lat="43.64181" lon="7.00771">
        <ele>194.3</ele>
        <time>2009-03-11T16:02:02Z</time>
      </trkpt>
      <trkpt lat="43.64156" lon="7.00788">
        <ele>191</ele>
        <time>2009-03-11T16:02:08Z</time>
      </trkpt>
      <trkpt lat="43.64143" lon="7.00823">
        <ele>185.7</ele>
        <time>2009-03-11T16:02:23Z</time>
      </trkpt>
      <trkpt lat="43.64124" lon="7.00838">
        <ele>182.3</ele>
        <time>2009-03-11T16:02:42Z</time>
      </trkpt>
      <trkpt lat="43.64129" lon="7.00847">
        <ele>178.5</ele>
        <time>2009-03-11T16:07:52Z</time>
      </trkpt>
    </trkseg>
  </trk>
</gpx>